<?xml version="1.0" encoding="UTF-8" standalone="no" ?>
<gpx xmlns="http://www.topografix.com/GPX/1/1" xmlns:xsi="http://www.w3.org/2001/XMLSchema-instance" xsi:schemaLocation="http://www.topografix.com/GPX/1/1 http://www.topografix.com/GPX/1/1/gpx.xsd" version="1.1" creator="VisuGPX - https://www.visugpx.com">
  <metadata>
    <name>La Neuville Chant d'Oisel 14Km3</name>
    <desc><![CDATA[Boucle A-R au départ du Chateau d'Anquetil]]></desc>
  </metadata>
  <trk>
    <name><![CDATA[La Neuville Chant d'Oisel 14Km3_1]]></name>
    <trkseg>
      <trkpt lat="49.35658" lon="1.2563">
        <ele>150</ele>
        <time>2017-06-27T13:52:50Z</time>
      </trkpt>
      <trkpt lat="49.35656" lon="1.25631">
        <ele>150</ele>
        <time>2017-06-27T13:52:50Z</time>
      </trkpt>
      <trkpt lat="49.35655" lon="1.25631">
        <ele>150</ele>
        <time>2017-06-27T13:52:50Z</time>
      </trkpt>
      <trkpt lat="49.35655" lon="1.25631">
        <ele>150</ele>
        <time>2017-06-27T13:52:50Z</time>
      </trkpt>
      <trkpt lat="49.35655" lon="1.25632">
        <ele>150</ele>
        <time>2017-06-27T13:52:50Z</time>
      </trkpt>
      <trkpt lat="49.35654" lon="1.25636">
        <ele>150</ele>
        <time>2017-06-27T13:56:24Z</time>
      </trkpt>
      <trkpt lat="49.35654" lon="1.25636">
        <ele>150</ele>
        <time>2017-06-27T13:56:26Z</time>
      </trkpt>
      <trkpt lat="49.35651" lon="1.25638">
        <ele>150</ele>
        <time>2017-06-27T13:56:26Z</time>
      </trkpt>
      <trkpt lat="49.35647" lon="1.2564">
        <ele>150</ele>
        <time>2017-06-27T13:56:26Z</time>
      </trkpt>
      <trkpt lat="49.35646" lon="1.25641">
        <ele>150</ele>
        <time>2017-06-27T13:56:26Z</time>
      </trkpt>
      <trkpt lat="49.35645" lon="1.25642">
        <ele>150</ele>
        <time>2017-06-27T13:56:52Z</time>
      </trkpt>
      <trkpt lat="49.35643" lon="1.25647">
        <ele>150</ele>
        <time>2017-06-27T13:56:52Z</time>
      </trkpt>
      <trkpt lat="49.35638" lon="1.2565">
        <ele>150</ele>
        <time>2017-06-27T13:56:52Z</time>
      </trkpt>
      <trkpt lat="49.35633" lon="1.25651">
        <ele>150</ele>
        <time>2017-06-27T13:56:52Z</time>
      </trkpt>
      <trkpt lat="49.35629" lon="1.25652">
        <ele>150</ele>
        <time>2017-06-27T13:56:52Z</time>
      </trkpt>
      <trkpt lat="49.35626" lon="1.25657">
        <ele>150</ele>
        <time>2017-06-27T13:57:10Z</time>
      </trkpt>
      <trkpt lat="49.35623" lon="1.2566">
        <ele>149</ele>
        <time>2017-06-27T13:57:10Z</time>
      </trkpt>
      <trkpt lat="49.35618" lon="1.25664">
        <ele>149</ele>
        <time>2017-06-27T13:57:10Z</time>
      </trkpt>
      <trkpt lat="49.35614" lon="1.25668">
        <ele>149</ele>
        <time>2017-06-27T13:57:10Z</time>
      </trkpt>
      <trkpt lat="49.35609" lon="1.25672">
        <ele>149</ele>
        <time>2017-06-27T13:57:25Z</time>
      </trkpt>
      <trkpt lat="49.35606" lon="1.25678">
        <ele>149</ele>
        <time>2017-06-27T13:57:25Z</time>
      </trkpt>
      <trkpt lat="49.35604" lon="1.2568">
        <ele>149</ele>
        <time>2017-06-27T13:57:26Z</time>
      </trkpt>
      <trkpt lat="49.35601" lon="1.25681">
        <ele>149</ele>
        <time>2017-06-27T13:57:26Z</time>
      </trkpt>
      <trkpt lat="49.35598" lon="1.25683">
        <ele>149</ele>
        <time>2017-06-27T13:57:41Z</time>
      </trkpt>
      <trkpt lat="49.35591" lon="1.25693">
        <ele>149</ele>
        <time>2017-06-27T13:57:41Z</time>
      </trkpt>
      <trkpt lat="49.35588" lon="1.25702">
        <ele>149</ele>
        <time>2017-06-27T13:57:41Z</time>
      </trkpt>
      <trkpt lat="49.35581" lon="1.25707">
        <ele>149</ele>
        <time>2017-06-27T13:57:41Z</time>
      </trkpt>
      <trkpt lat="49.35578" lon="1.25711">
        <ele>150</ele>
        <time>2017-06-27T13:57:56Z</time>
      </trkpt>
      <trkpt lat="49.35573" lon="1.25716">
        <ele>150</ele>
        <time>2017-06-27T13:57:56Z</time>
      </trkpt>
      <trkpt lat="49.35569" lon="1.25719">
        <ele>150</ele>
        <time>2017-06-27T13:57:56Z</time>
      </trkpt>
      <trkpt lat="49.35565" lon="1.25723">
        <ele>150</ele>
        <time>2017-06-27T13:57:56Z</time>
      </trkpt>
      <trkpt lat="49.3556" lon="1.25725">
        <ele>150</ele>
        <time>2017-06-27T13:58:13Z</time>
      </trkpt>
      <trkpt lat="49.35557" lon="1.25728">
        <ele>150</ele>
        <time>2017-06-27T13:58:14Z</time>
      </trkpt>
      <trkpt lat="49.35553" lon="1.25733">
        <ele>150</ele>
        <time>2017-06-27T13:58:14Z</time>
      </trkpt>
      <trkpt lat="49.35548" lon="1.25738">
        <ele>150</ele>
        <time>2017-06-27T13:58:14Z</time>
      </trkpt>
      <trkpt lat="49.35546" lon="1.2574">
        <ele>150</ele>
        <time>2017-06-27T13:58:29Z</time>
      </trkpt>
      <trkpt lat="49.3554" lon="1.25745">
        <ele>148</ele>
        <time>2017-06-27T13:58:29Z</time>
      </trkpt>
      <trkpt lat="49.35538" lon="1.2575">
        <ele>148</ele>
        <time>2017-06-27T13:58:30Z</time>
      </trkpt>
      <trkpt lat="49.35538" lon="1.2575">
        <ele>148</ele>
        <time>2017-06-27T13:58:30Z</time>
      </trkpt>
      <trkpt lat="49.35537" lon="1.25752">
        <ele>148</ele>
        <time>2017-06-27T13:58:56Z</time>
      </trkpt>
      <trkpt lat="49.35537" lon="1.25752">
        <ele>148</ele>
        <time>2017-06-27T13:58:56Z</time>
      </trkpt>
      <trkpt lat="49.35537" lon="1.25752">
        <ele>148</ele>
        <time>2017-06-27T13:58:56Z</time>
      </trkpt>
      <trkpt lat="49.35533" lon="1.25759">
        <ele>148</ele>
        <time>2017-06-27T13:58:56Z</time>
      </trkpt>
      <trkpt lat="49.35529" lon="1.25763">
        <ele>148</ele>
        <time>2017-06-27T13:58:56Z</time>
      </trkpt>
      <trkpt lat="49.35523" lon="1.25771">
        <ele>148</ele>
        <time>2017-06-27T13:59:14Z</time>
      </trkpt>
      <trkpt lat="49.35518" lon="1.25776">
        <ele>148</ele>
        <time>2017-06-27T13:59:14Z</time>
      </trkpt>
      <trkpt lat="49.35515" lon="1.25781">
        <ele>148</ele>
        <time>2017-06-27T13:59:14Z</time>
      </trkpt>
      <trkpt lat="49.3551" lon="1.25786">
        <ele>148</ele>
        <time>2017-06-27T13:59:14Z</time>
      </trkpt>
      <trkpt lat="49.3551" lon="1.25788">
        <ele>148</ele>
        <time>2017-06-27T13:59:40Z</time>
      </trkpt>
      <trkpt lat="49.35505" lon="1.25792">
        <ele>148</ele>
        <time>2017-06-27T13:59:41Z</time>
      </trkpt>
      <trkpt lat="49.35502" lon="1.25795">
        <ele>148</ele>
        <time>2017-06-27T13:59:41Z</time>
      </trkpt>
      <trkpt lat="49.35498" lon="1.25799">
        <ele>148</ele>
        <time>2017-06-27T13:59:41Z</time>
      </trkpt>
      <trkpt lat="49.35495" lon="1.25802">
        <ele>148</ele>
        <time>2017-06-27T13:59:41Z</time>
      </trkpt>
      <trkpt lat="49.3549" lon="1.2581">
        <ele>148</ele>
        <time>2017-06-27T13:59:56Z</time>
      </trkpt>
      <trkpt lat="49.35484" lon="1.25814">
        <ele>148</ele>
        <time>2017-06-27T13:59:56Z</time>
      </trkpt>
      <trkpt lat="49.35479" lon="1.25823">
        <ele>148</ele>
        <time>2017-06-27T13:59:56Z</time>
      </trkpt>
      <trkpt lat="49.35476" lon="1.25827">
        <ele>148</ele>
        <time>2017-06-27T13:59:56Z</time>
      </trkpt>
      <trkpt lat="49.35471" lon="1.25836">
        <ele>148</ele>
        <time>2017-06-27T14:00:14Z</time>
      </trkpt>
      <trkpt lat="49.35469" lon="1.25844">
        <ele>148</ele>
        <time>2017-06-27T14:00:14Z</time>
      </trkpt>
      <trkpt lat="49.35467" lon="1.25854">
        <ele>148</ele>
        <time>2017-06-27T14:00:14Z</time>
      </trkpt>
      <trkpt lat="49.35466" lon="1.25863">
        <ele>148</ele>
        <time>2017-06-27T14:00:14Z</time>
      </trkpt>
      <trkpt lat="49.35467" lon="1.25868">
        <ele>148</ele>
        <time>2017-06-27T14:00:30Z</time>
      </trkpt>
      <trkpt lat="49.35465" lon="1.25881">
        <ele>149</ele>
        <time>2017-06-27T14:00:30Z</time>
      </trkpt>
      <trkpt lat="49.35467" lon="1.2589">
        <ele>149</ele>
        <time>2017-06-27T14:00:30Z</time>
      </trkpt>
      <trkpt lat="49.35468" lon="1.259">
        <ele>149</ele>
        <time>2017-06-27T14:00:31Z</time>
      </trkpt>
      <trkpt lat="49.35469" lon="1.25907">
        <ele>149</ele>
        <time>2017-06-27T14:00:45Z</time>
      </trkpt>
      <trkpt lat="49.35472" lon="1.25917">
        <ele>149</ele>
        <time>2017-06-27T14:00:45Z</time>
      </trkpt>
      <trkpt lat="49.35475" lon="1.25922">
        <ele>149</ele>
        <time>2017-06-27T14:00:45Z</time>
      </trkpt>
      <trkpt lat="49.35477" lon="1.25928">
        <ele>149</ele>
        <time>2017-06-27T14:00:45Z</time>
      </trkpt>
      <trkpt lat="49.35481" lon="1.25935">
        <ele>149</ele>
        <time>2017-06-27T14:01:01Z</time>
      </trkpt>
      <trkpt lat="49.35484" lon="1.25939">
        <ele>149</ele>
        <time>2017-06-27T14:01:01Z</time>
      </trkpt>
      <trkpt lat="49.35487" lon="1.25943">
        <ele>149</ele>
        <time>2017-06-27T14:01:01Z</time>
      </trkpt>
      <trkpt lat="49.35491" lon="1.25948">
        <ele>149</ele>
        <time>2017-06-27T14:01:01Z</time>
      </trkpt>
      <trkpt lat="49.35495" lon="1.25952">
        <ele>149</ele>
        <time>2017-06-27T14:01:19Z</time>
      </trkpt>
      <trkpt lat="49.35499" lon="1.25962">
        <ele>148</ele>
        <time>2017-06-27T14:01:19Z</time>
      </trkpt>
      <trkpt lat="49.355" lon="1.25966">
        <ele>148</ele>
        <time>2017-06-27T14:01:19Z</time>
      </trkpt>
      <trkpt lat="49.35498" lon="1.25978">
        <ele>148</ele>
        <time>2017-06-27T14:01:19Z</time>
      </trkpt>
      <trkpt lat="49.35494" lon="1.25984">
        <ele>148</ele>
        <time>2017-06-27T14:01:35Z</time>
      </trkpt>
      <trkpt lat="49.35489" lon="1.25992">
        <ele>148</ele>
        <time>2017-06-27T14:01:35Z</time>
      </trkpt>
      <trkpt lat="49.35486" lon="1.25995">
        <ele>148</ele>
        <time>2017-06-27T14:01:35Z</time>
      </trkpt>
      <trkpt lat="49.35481" lon="1.25999">
        <ele>148</ele>
        <time>2017-06-27T14:01:35Z</time>
      </trkpt>
      <trkpt lat="49.35477" lon="1.26003">
        <ele>148</ele>
        <time>2017-06-27T14:01:49Z</time>
      </trkpt>
      <trkpt lat="49.3547" lon="1.26011">
        <ele>148</ele>
        <time>2017-06-27T14:01:49Z</time>
      </trkpt>
      <trkpt lat="49.35467" lon="1.26013">
        <ele>148</ele>
        <time>2017-06-27T14:01:49Z</time>
      </trkpt>
      <trkpt lat="49.35463" lon="1.26016">
        <ele>148</ele>
        <time>2017-06-27T14:01:49Z</time>
      </trkpt>
      <trkpt lat="49.3546" lon="1.26018">
        <ele>148</ele>
        <time>2017-06-27T14:02:06Z</time>
      </trkpt>
      <trkpt lat="49.35454" lon="1.26024">
        <ele>149</ele>
        <time>2017-06-27T14:02:06Z</time>
      </trkpt>
      <trkpt lat="49.35451" lon="1.26027">
        <ele>149</ele>
        <time>2017-06-27T14:02:06Z</time>
      </trkpt>
      <trkpt lat="49.35447" lon="1.2603">
        <ele>149</ele>
        <time>2017-06-27T14:02:06Z</time>
      </trkpt>
      <trkpt lat="49.35443" lon="1.26034">
        <ele>149</ele>
        <time>2017-06-27T14:02:22Z</time>
      </trkpt>
      <trkpt lat="49.3544" lon="1.26037">
        <ele>149</ele>
        <time>2017-06-27T14:02:22Z</time>
      </trkpt>
      <trkpt lat="49.35435" lon="1.26042">
        <ele>147</ele>
        <time>2017-06-27T14:02:22Z</time>
      </trkpt>
      <trkpt lat="49.35432" lon="1.26047">
        <ele>147</ele>
        <time>2017-06-27T14:02:23Z</time>
      </trkpt>
      <trkpt lat="49.35429" lon="1.26049">
        <ele>147</ele>
        <time>2017-06-27T14:02:38Z</time>
      </trkpt>
      <trkpt lat="49.35424" lon="1.26055">
        <ele>147</ele>
        <time>2017-06-27T14:02:38Z</time>
      </trkpt>
      <trkpt lat="49.3542" lon="1.2606">
        <ele>147</ele>
        <time>2017-06-27T14:02:38Z</time>
      </trkpt>
      <trkpt lat="49.35417" lon="1.26064">
        <ele>147</ele>
        <time>2017-06-27T14:02:38Z</time>
      </trkpt>
      <trkpt lat="49.35417" lon="1.26064">
        <ele>147</ele>
        <time>2017-06-27T14:02:52Z</time>
      </trkpt>
      <trkpt lat="49.35413" lon="1.2607">
        <ele>147</ele>
        <time>2017-06-27T14:02:52Z</time>
      </trkpt>
      <trkpt lat="49.35409" lon="1.26078">
        <ele>147</ele>
        <time>2017-06-27T14:02:52Z</time>
      </trkpt>
      <trkpt lat="49.35406" lon="1.26085">
        <ele>147</ele>
        <time>2017-06-27T14:02:52Z</time>
      </trkpt>
      <trkpt lat="49.35401" lon="1.26093">
        <ele>147</ele>
        <time>2017-06-27T14:03:09Z</time>
      </trkpt>
      <trkpt lat="49.35398" lon="1.26098">
        <ele>147</ele>
        <time>2017-06-27T14:03:09Z</time>
      </trkpt>
      <trkpt lat="49.35395" lon="1.26104">
        <ele>147</ele>
        <time>2017-06-27T14:03:09Z</time>
      </trkpt>
      <trkpt lat="49.35393" lon="1.26108">
        <ele>147</ele>
        <time>2017-06-27T14:03:09Z</time>
      </trkpt>
      <trkpt lat="49.35389" lon="1.26118">
        <ele>147</ele>
        <time>2017-06-27T14:03:27Z</time>
      </trkpt>
      <trkpt lat="49.35386" lon="1.26122">
        <ele>147</ele>
        <time>2017-06-27T14:03:27Z</time>
      </trkpt>
      <trkpt lat="49.35383" lon="1.2613">
        <ele>145</ele>
        <time>2017-06-27T14:03:27Z</time>
      </trkpt>
      <trkpt lat="49.35381" lon="1.26135">
        <ele>145</ele>
        <time>2017-06-27T14:03:27Z</time>
      </trkpt>
      <trkpt lat="49.35379" lon="1.26139">
        <ele>145</ele>
        <time>2017-06-27T14:03:41Z</time>
      </trkpt>
      <trkpt lat="49.35377" lon="1.26145">
        <ele>145</ele>
        <time>2017-06-27T14:03:41Z</time>
      </trkpt>
      <trkpt lat="49.35374" lon="1.26151">
        <ele>145</ele>
        <time>2017-06-27T14:03:41Z</time>
      </trkpt>
      <trkpt lat="49.35371" lon="1.26158">
        <ele>145</ele>
        <time>2017-06-27T14:03:41Z</time>
      </trkpt>
      <trkpt lat="49.35367" lon="1.26166">
        <ele>145</ele>
        <time>2017-06-27T14:03:57Z</time>
      </trkpt>
      <trkpt lat="49.35365" lon="1.26171">
        <ele>145</ele>
        <time>2017-06-27T14:03:57Z</time>
      </trkpt>
      <trkpt lat="49.35361" lon="1.2618">
        <ele>145</ele>
        <time>2017-06-27T14:03:57Z</time>
      </trkpt>
      <trkpt lat="49.35359" lon="1.26184">
        <ele>145</ele>
        <time>2017-06-27T14:03:57Z</time>
      </trkpt>
      <trkpt lat="49.35355" lon="1.26192">
        <ele>145</ele>
        <time>2017-06-27T14:04:14Z</time>
      </trkpt>
      <trkpt lat="49.35353" lon="1.26199">
        <ele>145</ele>
        <time>2017-06-27T14:04:14Z</time>
      </trkpt>
      <trkpt lat="49.35349" lon="1.2621">
        <ele>142</ele>
        <time>2017-06-27T14:04:14Z</time>
      </trkpt>
      <trkpt lat="49.35348" lon="1.26214">
        <ele>142</ele>
        <time>2017-06-27T14:04:14Z</time>
      </trkpt>
      <trkpt lat="49.35347" lon="1.26216">
        <ele>142</ele>
        <time>2017-06-27T14:04:31Z</time>
      </trkpt>
      <trkpt lat="49.35343" lon="1.26227">
        <ele>142</ele>
        <time>2017-06-27T14:04:31Z</time>
      </trkpt>
      <trkpt lat="49.35341" lon="1.26233">
        <ele>142</ele>
        <time>2017-06-27T14:04:31Z</time>
      </trkpt>
      <trkpt lat="49.35338" lon="1.2624">
        <ele>142</ele>
        <time>2017-06-27T14:04:31Z</time>
      </trkpt>
      <trkpt lat="49.35336" lon="1.26246">
        <ele>142</ele>
        <time>2017-06-27T14:04:44Z</time>
      </trkpt>
      <trkpt lat="49.35331" lon="1.26248">
        <ele>142</ele>
        <time>2017-06-27T14:04:44Z</time>
      </trkpt>
      <trkpt lat="49.3533" lon="1.26252">
        <ele>142</ele>
        <time>2017-06-27T14:04:44Z</time>
      </trkpt>
      <trkpt lat="49.35326" lon="1.26262">
        <ele>142</ele>
        <time>2017-06-27T14:04:44Z</time>
      </trkpt>
      <trkpt lat="49.35325" lon="1.26267">
        <ele>142</ele>
        <time>2017-06-27T14:05:02Z</time>
      </trkpt>
      <trkpt lat="49.35321" lon="1.26276">
        <ele>142</ele>
        <time>2017-06-27T14:05:02Z</time>
      </trkpt>
      <trkpt lat="49.35319" lon="1.26283">
        <ele>142</ele>
        <time>2017-06-27T14:05:02Z</time>
      </trkpt>
      <trkpt lat="49.35316" lon="1.26288">
        <ele>142</ele>
        <time>2017-06-27T14:05:02Z</time>
      </trkpt>
      <trkpt lat="49.35313" lon="1.26297">
        <ele>142</ele>
        <time>2017-06-27T14:05:21Z</time>
      </trkpt>
      <trkpt lat="49.35311" lon="1.26302">
        <ele>142</ele>
        <time>2017-06-27T14:05:22Z</time>
      </trkpt>
      <trkpt lat="49.35308" lon="1.26306">
        <ele>142</ele>
        <time>2017-06-27T14:05:22Z</time>
      </trkpt>
      <trkpt lat="49.35308" lon="1.26308">
        <ele>142</ele>
        <time>2017-06-27T14:05:22Z</time>
      </trkpt>
      <trkpt lat="49.35307" lon="1.26311">
        <ele>142</ele>
        <time>2017-06-27T14:05:22Z</time>
      </trkpt>
      <trkpt lat="49.35307" lon="1.26312">
        <ele>142</ele>
        <time>2017-06-27T14:05:38Z</time>
      </trkpt>
      <trkpt lat="49.35302" lon="1.26316">
        <ele>142</ele>
        <time>2017-06-27T14:05:38Z</time>
      </trkpt>
      <trkpt lat="49.35301" lon="1.26329">
        <ele>142</ele>
        <time>2017-06-27T14:05:38Z</time>
      </trkpt>
      <trkpt lat="49.35296" lon="1.26334">
        <ele>142</ele>
        <time>2017-06-27T14:05:38Z</time>
      </trkpt>
      <trkpt lat="49.35291" lon="1.2634">
        <ele>139</ele>
        <time>2017-06-27T14:05:53Z</time>
      </trkpt>
      <trkpt lat="49.35287" lon="1.26349">
        <ele>139</ele>
        <time>2017-06-27T14:05:53Z</time>
      </trkpt>
      <trkpt lat="49.35284" lon="1.26352">
        <ele>139</ele>
        <time>2017-06-27T14:05:53Z</time>
      </trkpt>
      <trkpt lat="49.3528" lon="1.26356">
        <ele>139</ele>
        <time>2017-06-27T14:05:53Z</time>
      </trkpt>
      <trkpt lat="49.35276" lon="1.26359">
        <ele>139</ele>
        <time>2017-06-27T14:06:10Z</time>
      </trkpt>
      <trkpt lat="49.35273" lon="1.26365">
        <ele>139</ele>
        <time>2017-06-27T14:06:10Z</time>
      </trkpt>
      <trkpt lat="49.35267" lon="1.26368">
        <ele>139</ele>
        <time>2017-06-27T14:06:10Z</time>
      </trkpt>
      <trkpt lat="49.3526" lon="1.26371">
        <ele>139</ele>
        <time>2017-06-27T14:06:10Z</time>
      </trkpt>
      <trkpt lat="49.35257" lon="1.26374">
        <ele>139</ele>
        <time>2017-06-27T14:06:26Z</time>
      </trkpt>
      <trkpt lat="49.35252" lon="1.26377">
        <ele>138</ele>
        <time>2017-06-27T14:06:26Z</time>
      </trkpt>
      <trkpt lat="49.35246" lon="1.26378">
        <ele>138</ele>
        <time>2017-06-27T14:06:26Z</time>
      </trkpt>
      <trkpt lat="49.35242" lon="1.26377">
        <ele>138</ele>
        <time>2017-06-27T14:06:26Z</time>
      </trkpt>
      <trkpt lat="49.35237" lon="1.26378">
        <ele>138</ele>
        <time>2017-06-27T14:06:41Z</time>
      </trkpt>
      <trkpt lat="49.35231" lon="1.26378">
        <ele>138</ele>
        <time>2017-06-27T14:06:42Z</time>
      </trkpt>
      <trkpt lat="49.35225" lon="1.26378">
        <ele>138</ele>
        <time>2017-06-27T14:06:42Z</time>
      </trkpt>
      <trkpt lat="49.35219" lon="1.26378">
        <ele>138</ele>
        <time>2017-06-27T14:06:42Z</time>
      </trkpt>
      <trkpt lat="49.35214" lon="1.26377">
        <ele>138</ele>
        <time>2017-06-27T14:06:59Z</time>
      </trkpt>
      <trkpt lat="49.35209" lon="1.26374">
        <ele>139</ele>
        <time>2017-06-27T14:06:59Z</time>
      </trkpt>
      <trkpt lat="49.35205" lon="1.26373">
        <ele>136</ele>
        <time>2017-06-27T14:06:59Z</time>
      </trkpt>
      <trkpt lat="49.35197" lon="1.26371">
        <ele>136</ele>
        <time>2017-06-27T14:06:59Z</time>
      </trkpt>
      <trkpt lat="49.35193" lon="1.26371">
        <ele>136</ele>
        <time>2017-06-27T14:07:15Z</time>
      </trkpt>
      <trkpt lat="49.35188" lon="1.2637">
        <ele>136</ele>
        <time>2017-06-27T14:07:15Z</time>
      </trkpt>
      <trkpt lat="49.35183" lon="1.26369">
        <ele>136</ele>
        <time>2017-06-27T14:07:15Z</time>
      </trkpt>
      <trkpt lat="49.35176" lon="1.26367">
        <ele>136</ele>
        <time>2017-06-27T14:07:15Z</time>
      </trkpt>
      <trkpt lat="49.35171" lon="1.26371">
        <ele>136</ele>
        <time>2017-06-27T14:07:30Z</time>
      </trkpt>
      <trkpt lat="49.35166" lon="1.26367">
        <ele>136</ele>
        <time>2017-06-27T14:07:30Z</time>
      </trkpt>
      <trkpt lat="49.35165" lon="1.26359">
        <ele>136</ele>
        <time>2017-06-27T14:07:30Z</time>
      </trkpt>
      <trkpt lat="49.3516" lon="1.26356">
        <ele>136</ele>
        <time>2017-06-27T14:07:30Z</time>
      </trkpt>
      <trkpt lat="49.35157" lon="1.26364">
        <ele>136</ele>
        <time>2017-06-27T14:07:45Z</time>
      </trkpt>
      <trkpt lat="49.35143" lon="1.26365">
        <ele>136</ele>
        <time>2017-06-27T14:07:45Z</time>
      </trkpt>
      <trkpt lat="49.35141" lon="1.26364">
        <ele>136</ele>
        <time>2017-06-27T14:07:45Z</time>
      </trkpt>
      <trkpt lat="49.35134" lon="1.26365">
        <ele>136</ele>
        <time>2017-06-27T14:07:45Z</time>
      </trkpt>
      <trkpt lat="49.35128" lon="1.26364">
        <ele>136</ele>
        <time>2017-06-27T14:08:02Z</time>
      </trkpt>
      <trkpt lat="49.35123" lon="1.26363">
        <ele>136</ele>
        <time>2017-06-27T14:08:02Z</time>
      </trkpt>
      <trkpt lat="49.35118" lon="1.26364">
        <ele>136</ele>
        <time>2017-06-27T14:08:02Z</time>
      </trkpt>
      <trkpt lat="49.35113" lon="1.26363">
        <ele>136</ele>
        <time>2017-06-27T14:08:02Z</time>
      </trkpt>
      <trkpt lat="49.35108" lon="1.26362">
        <ele>136</ele>
        <time>2017-06-27T14:08:19Z</time>
      </trkpt>
      <trkpt lat="49.35103" lon="1.2636">
        <ele>136</ele>
        <time>2017-06-27T14:08:19Z</time>
      </trkpt>
      <trkpt lat="49.35097" lon="1.26359">
        <ele>136</ele>
        <time>2017-06-27T14:08:19Z</time>
      </trkpt>
      <trkpt lat="49.35092" lon="1.26359">
        <ele>136</ele>
        <time>2017-06-27T14:08:19Z</time>
      </trkpt>
      <trkpt lat="49.35088" lon="1.26359">
        <ele>136</ele>
        <time>2017-06-27T14:08:35Z</time>
      </trkpt>
      <trkpt lat="49.35082" lon="1.26357">
        <ele>136</ele>
        <time>2017-06-27T14:08:35Z</time>
      </trkpt>
      <trkpt lat="49.35078" lon="1.26355">
        <ele>136</ele>
        <time>2017-06-27T14:08:35Z</time>
      </trkpt>
      <trkpt lat="49.35072" lon="1.26351">
        <ele>136</ele>
        <time>2017-06-27T14:08:35Z</time>
      </trkpt>
      <trkpt lat="49.35068" lon="1.26351">
        <ele>136</ele>
        <time>2017-06-27T14:08:48Z</time>
      </trkpt>
      <trkpt lat="49.35062" lon="1.2635">
        <ele>136</ele>
        <time>2017-06-27T14:08:48Z</time>
      </trkpt>
      <trkpt lat="49.35057" lon="1.26349">
        <ele>136</ele>
        <time>2017-06-27T14:08:48Z</time>
      </trkpt>
      <trkpt lat="49.35052" lon="1.26348">
        <ele>136</ele>
        <time>2017-06-27T14:08:48Z</time>
      </trkpt>
      <trkpt lat="49.35047" lon="1.26347">
        <ele>136</ele>
        <time>2017-06-27T14:09:06Z</time>
      </trkpt>
      <trkpt lat="49.35042" lon="1.26346">
        <ele>136</ele>
        <time>2017-06-27T14:09:06Z</time>
      </trkpt>
      <trkpt lat="49.35035" lon="1.26345">
        <ele>139</ele>
        <time>2017-06-27T14:09:06Z</time>
      </trkpt>
      <trkpt lat="49.35031" lon="1.26345">
        <ele>139</ele>
        <time>2017-06-27T14:09:06Z</time>
      </trkpt>
      <trkpt lat="49.35025" lon="1.26345">
        <ele>139</ele>
        <time>2017-06-27T14:09:22Z</time>
      </trkpt>
      <trkpt lat="49.35019" lon="1.26344">
        <ele>139</ele>
        <time>2017-06-27T14:09:22Z</time>
      </trkpt>
      <trkpt lat="49.35015" lon="1.26342">
        <ele>139</ele>
        <time>2017-06-27T14:09:22Z</time>
      </trkpt>
      <trkpt lat="49.3501" lon="1.26341">
        <ele>139</ele>
        <time>2017-06-27T14:09:22Z</time>
      </trkpt>
      <trkpt lat="49.35006" lon="1.2634">
        <ele>139</ele>
        <time>2017-06-27T14:09:38Z</time>
      </trkpt>
      <trkpt lat="49.35" lon="1.26339">
        <ele>139</ele>
        <time>2017-06-27T14:09:38Z</time>
      </trkpt>
      <trkpt lat="49.34995" lon="1.26338">
        <ele>139</ele>
        <time>2017-06-27T14:09:38Z</time>
      </trkpt>
      <trkpt lat="49.34989" lon="1.26337">
        <ele>139</ele>
        <time>2017-06-27T14:09:38Z</time>
      </trkpt>
      <trkpt lat="49.34983" lon="1.26338">
        <ele>139</ele>
        <time>2017-06-27T14:09:53Z</time>
      </trkpt>
      <trkpt lat="49.34979" lon="1.26336">
        <ele>139</ele>
        <time>2017-06-27T14:09:53Z</time>
      </trkpt>
      <trkpt lat="49.34973" lon="1.26335">
        <ele>139</ele>
        <time>2017-06-27T14:09:53Z</time>
      </trkpt>
      <trkpt lat="49.3497" lon="1.26335">
        <ele>139</ele>
        <time>2017-06-27T14:09:53Z</time>
      </trkpt>
      <trkpt lat="49.34962" lon="1.26333">
        <ele>139</ele>
        <time>2017-06-27T14:10:10Z</time>
      </trkpt>
      <trkpt lat="49.34959" lon="1.26333">
        <ele>139</ele>
        <time>2017-06-27T14:10:10Z</time>
      </trkpt>
      <trkpt lat="49.34953" lon="1.26333">
        <ele>141</ele>
        <time>2017-06-27T14:10:10Z</time>
      </trkpt>
      <trkpt lat="49.34948" lon="1.26333">
        <ele>141</ele>
        <time>2017-06-27T14:10:10Z</time>
      </trkpt>
      <trkpt lat="49.34945" lon="1.2633">
        <ele>141</ele>
        <time>2017-06-27T14:10:25Z</time>
      </trkpt>
      <trkpt lat="49.34939" lon="1.26332">
        <ele>141</ele>
        <time>2017-06-27T14:10:25Z</time>
      </trkpt>
      <trkpt lat="49.34935" lon="1.26331">
        <ele>141</ele>
        <time>2017-06-27T14:10:25Z</time>
      </trkpt>
      <trkpt lat="49.34928" lon="1.2633">
        <ele>141</ele>
        <time>2017-06-27T14:10:25Z</time>
      </trkpt>
      <trkpt lat="49.34924" lon="1.26329">
        <ele>141</ele>
        <time>2017-06-27T14:10:42Z</time>
      </trkpt>
      <trkpt lat="49.34918" lon="1.26329">
        <ele>141</ele>
        <time>2017-06-27T14:10:42Z</time>
      </trkpt>
      <trkpt lat="49.34912" lon="1.26329">
        <ele>141</ele>
        <time>2017-06-27T14:10:42Z</time>
      </trkpt>
      <trkpt lat="49.34906" lon="1.26329">
        <ele>141</ele>
        <time>2017-06-27T14:10:42Z</time>
      </trkpt>
      <trkpt lat="49.34901" lon="1.26326">
        <ele>141</ele>
        <time>2017-06-27T14:10:57Z</time>
      </trkpt>
      <trkpt lat="49.34897" lon="1.26325">
        <ele>141</ele>
        <time>2017-06-27T14:10:58Z</time>
      </trkpt>
      <trkpt lat="49.34892" lon="1.26324">
        <ele>141</ele>
        <time>2017-06-27T14:10:58Z</time>
      </trkpt>
      <trkpt lat="49.34887" lon="1.26324">
        <ele>141</ele>
        <time>2017-06-27T14:10:58Z</time>
      </trkpt>
      <trkpt lat="49.34881" lon="1.26322">
        <ele>141</ele>
        <time>2017-06-27T14:11:13Z</time>
      </trkpt>
      <trkpt lat="49.34875" lon="1.26324">
        <ele>141</ele>
        <time>2017-06-27T14:11:13Z</time>
      </trkpt>
      <trkpt lat="49.34868" lon="1.26323">
        <ele>143</ele>
        <time>2017-06-27T14:11:13Z</time>
      </trkpt>
      <trkpt lat="49.34865" lon="1.26322">
        <ele>143</ele>
        <time>2017-06-27T14:11:13Z</time>
      </trkpt>
      <trkpt lat="49.34859" lon="1.26321">
        <ele>143</ele>
        <time>2017-06-27T14:11:34Z</time>
      </trkpt>
      <trkpt lat="49.34853" lon="1.26321">
        <ele>143</ele>
        <time>2017-06-27T14:11:34Z</time>
      </trkpt>
      <trkpt lat="49.34851" lon="1.2632">
        <ele>143</ele>
        <time>2017-06-27T14:11:34Z</time>
      </trkpt>
      <trkpt lat="49.3485" lon="1.2632">
        <ele>143</ele>
        <time>2017-06-27T14:11:34Z</time>
      </trkpt>
      <trkpt lat="49.34844" lon="1.26319">
        <ele>143</ele>
        <time>2017-06-27T14:11:34Z</time>
      </trkpt>
      <trkpt lat="49.3484" lon="1.26318">
        <ele>143</ele>
        <time>2017-06-27T14:11:48Z</time>
      </trkpt>
      <trkpt lat="49.34835" lon="1.26316">
        <ele>143</ele>
        <time>2017-06-27T14:11:48Z</time>
      </trkpt>
      <trkpt lat="49.34829" lon="1.26315">
        <ele>143</ele>
        <time>2017-06-27T14:11:48Z</time>
      </trkpt>
      <trkpt lat="49.34825" lon="1.26315">
        <ele>143</ele>
        <time>2017-06-27T14:11:48Z</time>
      </trkpt>
      <trkpt lat="49.3482" lon="1.26312">
        <ele>143</ele>
        <time>2017-06-27T14:12:05Z</time>
      </trkpt>
      <trkpt lat="49.34815" lon="1.2631">
        <ele>143</ele>
        <time>2017-06-27T14:12:05Z</time>
      </trkpt>
      <trkpt lat="49.34808" lon="1.26307">
        <ele>143</ele>
        <time>2017-06-27T14:12:05Z</time>
      </trkpt>
      <trkpt lat="49.34804" lon="1.26307">
        <ele>143</ele>
        <time>2017-06-27T14:12:05Z</time>
      </trkpt>
      <trkpt lat="49.34798" lon="1.26304">
        <ele>143</ele>
        <time>2017-06-27T14:12:21Z</time>
      </trkpt>
      <trkpt lat="49.34794" lon="1.26304">
        <ele>143</ele>
        <time>2017-06-27T14:12:21Z</time>
      </trkpt>
      <trkpt lat="49.34788" lon="1.26302">
        <ele>144</ele>
        <time>2017-06-27T14:12:22Z</time>
      </trkpt>
      <trkpt lat="49.34781" lon="1.263">
        <ele>144</ele>
        <time>2017-06-27T14:12:22Z</time>
      </trkpt>
      <trkpt lat="49.34775" lon="1.26296">
        <ele>144</ele>
        <time>2017-06-27T14:12:37Z</time>
      </trkpt>
      <trkpt lat="49.34771" lon="1.26292">
        <ele>144</ele>
        <time>2017-06-27T14:12:37Z</time>
      </trkpt>
      <trkpt lat="49.34766" lon="1.26287">
        <ele>143</ele>
        <time>2017-06-27T14:12:37Z</time>
      </trkpt>
      <trkpt lat="49.34762" lon="1.26285">
        <ele>143</ele>
        <time>2017-06-27T14:12:38Z</time>
      </trkpt>
      <trkpt lat="49.34758" lon="1.26283">
        <ele>143</ele>
        <time>2017-06-27T14:12:53Z</time>
      </trkpt>
      <trkpt lat="49.34751" lon="1.2628">
        <ele>143</ele>
        <time>2017-06-27T14:12:53Z</time>
      </trkpt>
      <trkpt lat="49.34745" lon="1.26277">
        <ele>143</ele>
        <time>2017-06-27T14:12:53Z</time>
      </trkpt>
      <trkpt lat="49.34742" lon="1.26274">
        <ele>143</ele>
        <time>2017-06-27T14:12:53Z</time>
      </trkpt>
      <trkpt lat="49.34734" lon="1.2627">
        <ele>143</ele>
        <time>2017-06-27T14:13:10Z</time>
      </trkpt>
      <trkpt lat="49.34731" lon="1.26268">
        <ele>143</ele>
        <time>2017-06-27T14:13:10Z</time>
      </trkpt>
      <trkpt lat="49.34725" lon="1.26263">
        <ele>143</ele>
        <time>2017-06-27T14:13:10Z</time>
      </trkpt>
      <trkpt lat="49.3472" lon="1.2626">
        <ele>143</ele>
        <time>2017-06-27T14:13:10Z</time>
      </trkpt>
      <trkpt lat="49.34716" lon="1.26257">
        <ele>143</ele>
        <time>2017-06-27T14:13:25Z</time>
      </trkpt>
      <trkpt lat="49.34711" lon="1.26252">
        <ele>143</ele>
        <time>2017-06-27T14:13:25Z</time>
      </trkpt>
      <trkpt lat="49.34706" lon="1.26249">
        <ele>146</ele>
        <time>2017-06-27T14:13:25Z</time>
      </trkpt>
      <trkpt lat="49.347" lon="1.26245">
        <ele>146</ele>
        <time>2017-06-27T14:13:26Z</time>
      </trkpt>
      <trkpt lat="49.34696" lon="1.26242">
        <ele>146</ele>
        <time>2017-06-27T14:13:40Z</time>
      </trkpt>
      <trkpt lat="49.34692" lon="1.26239">
        <ele>146</ele>
        <time>2017-06-27T14:13:41Z</time>
      </trkpt>
      <trkpt lat="49.34686" lon="1.26235">
        <ele>146</ele>
        <time>2017-06-27T14:13:41Z</time>
      </trkpt>
      <trkpt lat="49.34683" lon="1.26232">
        <ele>146</ele>
        <time>2017-06-27T14:13:41Z</time>
      </trkpt>
      <trkpt lat="49.34675" lon="1.26228">
        <ele>146</ele>
        <time>2017-06-27T14:13:59Z</time>
      </trkpt>
      <trkpt lat="49.34673" lon="1.26226">
        <ele>146</ele>
        <time>2017-06-27T14:13:59Z</time>
      </trkpt>
      <trkpt lat="49.34668" lon="1.26221">
        <ele>146</ele>
        <time>2017-06-27T14:13:59Z</time>
      </trkpt>
      <trkpt lat="49.34664" lon="1.26216">
        <ele>146</ele>
        <time>2017-06-27T14:13:59Z</time>
      </trkpt>
      <trkpt lat="49.3466" lon="1.26211">
        <ele>146</ele>
        <time>2017-06-27T14:14:14Z</time>
      </trkpt>
      <trkpt lat="49.34651" lon="1.26216">
        <ele>146</ele>
        <time>2017-06-27T14:14:14Z</time>
      </trkpt>
      <trkpt lat="49.3465" lon="1.2621">
        <ele>146</ele>
        <time>2017-06-27T14:14:14Z</time>
      </trkpt>
      <trkpt lat="49.34645" lon="1.26205">
        <ele>144</ele>
        <time>2017-06-27T14:14:14Z</time>
      </trkpt>
      <trkpt lat="49.3464" lon="1.26201">
        <ele>144</ele>
        <time>2017-06-27T14:14:30Z</time>
      </trkpt>
      <trkpt lat="49.34635" lon="1.26197">
        <ele>144</ele>
        <time>2017-06-27T14:14:31Z</time>
      </trkpt>
      <trkpt lat="49.34632" lon="1.26192">
        <ele>144</ele>
        <time>2017-06-27T14:14:31Z</time>
      </trkpt>
      <trkpt lat="49.34628" lon="1.26184">
        <ele>144</ele>
        <time>2017-06-27T14:14:31Z</time>
      </trkpt>
      <trkpt lat="49.34626" lon="1.26185">
        <ele>144</ele>
        <time>2017-06-27T14:14:46Z</time>
      </trkpt>
      <trkpt lat="49.34623" lon="1.26183">
        <ele>144</ele>
        <time>2017-06-27T14:14:46Z</time>
      </trkpt>
      <trkpt lat="49.34617" lon="1.26179">
        <ele>144</ele>
        <time>2017-06-27T14:14:46Z</time>
      </trkpt>
      <trkpt lat="49.34615" lon="1.26172">
        <ele>144</ele>
        <time>2017-06-27T14:14:46Z</time>
      </trkpt>
      <trkpt lat="49.34611" lon="1.2617">
        <ele>144</ele>
        <time>2017-06-27T14:15:01Z</time>
      </trkpt>
      <trkpt lat="49.34608" lon="1.26163">
        <ele>144</ele>
        <time>2017-06-27T14:15:01Z</time>
      </trkpt>
      <trkpt lat="49.34602" lon="1.26159">
        <ele>144</ele>
        <time>2017-06-27T14:15:01Z</time>
      </trkpt>
      <trkpt lat="49.34596" lon="1.26158">
        <ele>144</ele>
        <time>2017-06-27T14:15:01Z</time>
      </trkpt>
      <trkpt lat="49.34585" lon="1.26159">
        <ele>144</ele>
        <time>2017-06-27T14:15:18Z</time>
      </trkpt>
      <trkpt lat="49.34579" lon="1.26153">
        <ele>144</ele>
        <time>2017-06-27T14:15:18Z</time>
      </trkpt>
      <trkpt lat="49.34577" lon="1.26148">
        <ele>144</ele>
        <time>2017-06-27T14:15:18Z</time>
      </trkpt>
      <trkpt lat="49.34576" lon="1.26147">
        <ele>144</ele>
        <time>2017-06-27T14:15:18Z</time>
      </trkpt>
      <trkpt lat="49.34573" lon="1.26143">
        <ele>144</ele>
        <time>2017-06-27T14:15:37Z</time>
      </trkpt>
      <trkpt lat="49.34572" lon="1.26143">
        <ele>144</ele>
        <time>2017-06-27T14:15:37Z</time>
      </trkpt>
      <trkpt lat="49.34569" lon="1.26142">
        <ele>144</ele>
        <time>2017-06-27T14:15:37Z</time>
      </trkpt>
      <trkpt lat="49.34566" lon="1.26147">
        <ele>144</ele>
        <time>2017-06-27T14:15:37Z</time>
      </trkpt>
      <trkpt lat="49.34561" lon="1.26148">
        <ele>144</ele>
        <time>2017-06-27T14:15:37Z</time>
      </trkpt>
      <trkpt lat="49.34563" lon="1.26143">
        <ele>144</ele>
        <time>2017-06-27T14:16:13Z</time>
      </trkpt>
      <trkpt lat="49.34563" lon="1.26143">
        <ele>144</ele>
        <time>2017-06-27T14:16:13Z</time>
      </trkpt>
      <trkpt lat="49.34563" lon="1.26142">
        <ele>144</ele>
        <time>2017-06-27T14:16:13Z</time>
      </trkpt>
      <trkpt lat="49.34556" lon="1.26136">
        <ele>144</ele>
        <time>2017-06-27T14:16:13Z</time>
      </trkpt>
      <trkpt lat="49.3454" lon="1.26129">
        <ele>139</ele>
        <time>2017-06-27T14:16:13Z</time>
      </trkpt>
      <trkpt lat="49.34531" lon="1.26119">
        <ele>137</ele>
        <time>2017-06-27T14:16:30Z</time>
      </trkpt>
      <trkpt lat="49.34526" lon="1.26119">
        <ele>137</ele>
        <time>2017-06-27T14:16:30Z</time>
      </trkpt>
      <trkpt lat="49.3452" lon="1.26123">
        <ele>137</ele>
        <time>2017-06-27T14:16:30Z</time>
      </trkpt>
      <trkpt lat="49.34514" lon="1.26127">
        <ele>139</ele>
        <time>2017-06-27T14:16:30Z</time>
      </trkpt>
      <trkpt lat="49.3451" lon="1.26126">
        <ele>139</ele>
        <time>2017-06-27T14:16:45Z</time>
      </trkpt>
      <trkpt lat="49.34508" lon="1.26123">
        <ele>137</ele>
        <time>2017-06-27T14:16:46Z</time>
      </trkpt>
      <trkpt lat="49.34503" lon="1.26122">
        <ele>137</ele>
        <time>2017-06-27T14:16:46Z</time>
      </trkpt>
      <trkpt lat="49.34498" lon="1.26123">
        <ele>137</ele>
        <time>2017-06-27T14:16:46Z</time>
      </trkpt>
      <trkpt lat="49.34491" lon="1.26114">
        <ele>137</ele>
        <time>2017-06-27T14:17:02Z</time>
      </trkpt>
      <trkpt lat="49.34482" lon="1.26126">
        <ele>139</ele>
        <time>2017-06-27T14:17:02Z</time>
      </trkpt>
      <trkpt lat="49.34476" lon="1.26132">
        <ele>139</ele>
        <time>2017-06-27T14:17:02Z</time>
      </trkpt>
      <trkpt lat="49.34473" lon="1.26134">
        <ele>139</ele>
        <time>2017-06-27T14:17:02Z</time>
      </trkpt>
      <trkpt lat="49.34472" lon="1.26136">
        <ele>139</ele>
        <time>2017-06-27T14:17:23Z</time>
      </trkpt>
      <trkpt lat="49.3447" lon="1.26136">
        <ele>139</ele>
        <time>2017-06-27T14:17:23Z</time>
      </trkpt>
      <trkpt lat="49.34467" lon="1.26137">
        <ele>139</ele>
        <time>2017-06-27T14:17:23Z</time>
      </trkpt>
      <trkpt lat="49.34465" lon="1.26139">
        <ele>139</ele>
        <time>2017-06-27T14:17:23Z</time>
      </trkpt>
      <trkpt lat="49.34463" lon="1.26142">
        <ele>139</ele>
        <time>2017-06-27T14:17:23Z</time>
      </trkpt>
      <trkpt lat="49.3446" lon="1.2614">
        <ele>139</ele>
        <time>2017-06-27T14:17:37Z</time>
      </trkpt>
      <trkpt lat="49.34452" lon="1.26148">
        <ele>131</ele>
        <time>2017-06-27T14:17:37Z</time>
      </trkpt>
      <trkpt lat="49.3445" lon="1.26152">
        <ele>131</ele>
        <time>2017-06-27T14:17:37Z</time>
      </trkpt>
      <trkpt lat="49.34448" lon="1.26153">
        <ele>131</ele>
        <time>2017-06-27T14:17:37Z</time>
      </trkpt>
      <trkpt lat="49.34441" lon="1.26157">
        <ele>131</ele>
        <time>2017-06-27T14:17:52Z</time>
      </trkpt>
      <trkpt lat="49.34435" lon="1.26162">
        <ele>131</ele>
        <time>2017-06-27T14:17:52Z</time>
      </trkpt>
      <trkpt lat="49.34434" lon="1.26168">
        <ele>131</ele>
        <time>2017-06-27T14:17:52Z</time>
      </trkpt>
      <trkpt lat="49.34433" lon="1.26168">
        <ele>131</ele>
        <time>2017-06-27T14:17:52Z</time>
      </trkpt>
      <trkpt lat="49.34426" lon="1.26175">
        <ele>131</ele>
        <time>2017-06-27T14:18:08Z</time>
      </trkpt>
      <trkpt lat="49.34421" lon="1.26177">
        <ele>131</ele>
        <time>2017-06-27T14:18:08Z</time>
      </trkpt>
      <trkpt lat="49.34413" lon="1.26182">
        <ele>131</ele>
        <time>2017-06-27T14:18:08Z</time>
      </trkpt>
      <trkpt lat="49.34408" lon="1.26182">
        <ele>131</ele>
        <time>2017-06-27T14:18:08Z</time>
      </trkpt>
      <trkpt lat="49.34406" lon="1.26183">
        <ele>131</ele>
        <time>2017-06-27T14:18:27Z</time>
      </trkpt>
      <trkpt lat="49.34401" lon="1.26184">
        <ele>131</ele>
        <time>2017-06-27T14:18:27Z</time>
      </trkpt>
      <trkpt lat="49.34398" lon="1.26188">
        <ele>131</ele>
        <time>2017-06-27T14:18:27Z</time>
      </trkpt>
      <trkpt lat="49.34393" lon="1.26185">
        <ele>131</ele>
        <time>2017-06-27T14:18:27Z</time>
      </trkpt>
      <trkpt lat="49.34388" lon="1.2618">
        <ele>131</ele>
        <time>2017-06-27T14:18:42Z</time>
      </trkpt>
      <trkpt lat="49.34381" lon="1.26187">
        <ele>131</ele>
        <time>2017-06-27T14:18:42Z</time>
      </trkpt>
      <trkpt lat="49.3438" lon="1.26188">
        <ele>131</ele>
        <time>2017-06-27T14:18:42Z</time>
      </trkpt>
      <trkpt lat="49.34375" lon="1.26186">
        <ele>125</ele>
        <time>2017-06-27T14:18:42Z</time>
      </trkpt>
      <trkpt lat="49.34375" lon="1.26182">
        <ele>125</ele>
        <time>2017-06-27T14:18:58Z</time>
      </trkpt>
      <trkpt lat="49.3437" lon="1.26177">
        <ele>125</ele>
        <time>2017-06-27T14:18:58Z</time>
      </trkpt>
      <trkpt lat="49.34365" lon="1.26184">
        <ele>125</ele>
        <time>2017-06-27T14:18:58Z</time>
      </trkpt>
      <trkpt lat="49.34361" lon="1.26182">
        <ele>125</ele>
        <time>2017-06-27T14:18:58Z</time>
      </trkpt>
      <trkpt lat="49.34356" lon="1.26186">
        <ele>125</ele>
        <time>2017-06-27T14:19:13Z</time>
      </trkpt>
      <trkpt lat="49.3435" lon="1.26188">
        <ele>125</ele>
        <time>2017-06-27T14:19:15Z</time>
      </trkpt>
      <trkpt lat="49.34348" lon="1.26188">
        <ele>125</ele>
        <time>2017-06-27T14:19:15Z</time>
      </trkpt>
      <trkpt lat="49.34343" lon="1.26188">
        <ele>125</ele>
        <time>2017-06-27T14:19:15Z</time>
      </trkpt>
      <trkpt lat="49.34339" lon="1.2619">
        <ele>125</ele>
        <time>2017-06-27T14:19:31Z</time>
      </trkpt>
      <trkpt lat="49.34334" lon="1.26187">
        <ele>125</ele>
        <time>2017-06-27T14:19:31Z</time>
      </trkpt>
      <trkpt lat="49.3433" lon="1.26188">
        <ele>125</ele>
        <time>2017-06-27T14:19:31Z</time>
      </trkpt>
      <trkpt lat="49.34325" lon="1.2619">
        <ele>125</ele>
        <time>2017-06-27T14:19:31Z</time>
      </trkpt>
      <trkpt lat="49.34321" lon="1.26191">
        <ele>125</ele>
        <time>2017-06-27T14:19:46Z</time>
      </trkpt>
      <trkpt lat="49.34311" lon="1.26197">
        <ele>125</ele>
        <time>2017-06-27T14:19:46Z</time>
      </trkpt>
      <trkpt lat="49.3431" lon="1.26188">
        <ele>125</ele>
        <time>2017-06-27T14:19:46Z</time>
      </trkpt>
      <trkpt lat="49.34305" lon="1.26194">
        <ele>125</ele>
        <time>2017-06-27T14:19:46Z</time>
      </trkpt>
      <trkpt lat="49.34301" lon="1.26192">
        <ele>125</ele>
        <time>2017-06-27T14:20:02Z</time>
      </trkpt>
      <trkpt lat="49.34299" lon="1.26191">
        <ele>125</ele>
        <time>2017-06-27T14:20:02Z</time>
      </trkpt>
      <trkpt lat="49.34295" lon="1.26191">
        <ele>125</ele>
        <time>2017-06-27T14:20:02Z</time>
      </trkpt>
      <trkpt lat="49.3429" lon="1.26192">
        <ele>118</ele>
        <time>2017-06-27T14:20:02Z</time>
      </trkpt>
      <trkpt lat="49.34286" lon="1.26189">
        <ele>118</ele>
        <time>2017-06-27T14:20:17Z</time>
      </trkpt>
      <trkpt lat="49.34282" lon="1.26189">
        <ele>118</ele>
        <time>2017-06-27T14:20:17Z</time>
      </trkpt>
      <trkpt lat="49.34278" lon="1.2619">
        <ele>118</ele>
        <time>2017-06-27T14:20:17Z</time>
      </trkpt>
      <trkpt lat="49.34274" lon="1.26189">
        <ele>118</ele>
        <time>2017-06-27T14:20:17Z</time>
      </trkpt>
      <trkpt lat="49.34266" lon="1.26196">
        <ele>118</ele>
        <time>2017-06-27T14:20:33Z</time>
      </trkpt>
      <trkpt lat="49.34262" lon="1.26198">
        <ele>118</ele>
        <time>2017-06-27T14:20:33Z</time>
      </trkpt>
      <trkpt lat="49.34258" lon="1.26189">
        <ele>118</ele>
        <time>2017-06-27T14:20:33Z</time>
      </trkpt>
      <trkpt lat="49.34256" lon="1.26191">
        <ele>118</ele>
        <time>2017-06-27T14:20:33Z</time>
      </trkpt>
      <trkpt lat="49.34251" lon="1.26192">
        <ele>118</ele>
        <time>2017-06-27T14:20:49Z</time>
      </trkpt>
      <trkpt lat="49.34248" lon="1.26192">
        <ele>118</ele>
        <time>2017-06-27T14:20:49Z</time>
      </trkpt>
      <trkpt lat="49.34241" lon="1.26195">
        <ele>118</ele>
        <time>2017-06-27T14:20:49Z</time>
      </trkpt>
      <trkpt lat="49.34236" lon="1.26195">
        <ele>118</ele>
        <time>2017-06-27T14:20:49Z</time>
      </trkpt>
      <trkpt lat="49.34234" lon="1.26194">
        <ele>118</ele>
        <time>2017-06-27T14:21:06Z</time>
      </trkpt>
      <trkpt lat="49.3423" lon="1.26197">
        <ele>118</ele>
        <time>2017-06-27T14:21:06Z</time>
      </trkpt>
      <trkpt lat="49.34226" lon="1.26195">
        <ele>118</ele>
        <time>2017-06-27T14:21:06Z</time>
      </trkpt>
      <trkpt lat="49.34221" lon="1.262">
        <ele>118</ele>
        <time>2017-06-27T14:21:06Z</time>
      </trkpt>
      <trkpt lat="49.34216" lon="1.2621">
        <ele>100</ele>
        <time>2017-06-27T14:21:23Z</time>
      </trkpt>
      <trkpt lat="49.3421" lon="1.26219">
        <ele>100</ele>
        <time>2017-06-27T14:21:23Z</time>
      </trkpt>
      <trkpt lat="49.34203" lon="1.26212">
        <ele>92</ele>
        <time>2017-06-27T14:21:23Z</time>
      </trkpt>
      <trkpt lat="49.342" lon="1.26211">
        <ele>92</ele>
        <time>2017-06-27T14:21:23Z</time>
      </trkpt>
      <trkpt lat="49.34195" lon="1.26212">
        <ele>92</ele>
        <time>2017-06-27T14:21:36Z</time>
      </trkpt>
      <trkpt lat="49.34189" lon="1.26214">
        <ele>92</ele>
        <time>2017-06-27T14:21:36Z</time>
      </trkpt>
      <trkpt lat="49.34188" lon="1.26211">
        <ele>92</ele>
        <time>2017-06-27T14:21:36Z</time>
      </trkpt>
      <trkpt lat="49.34184" lon="1.26212">
        <ele>92</ele>
        <time>2017-06-27T14:21:36Z</time>
      </trkpt>
      <trkpt lat="49.34182" lon="1.26202">
        <ele>109</ele>
        <time>2017-06-27T14:22:33Z</time>
      </trkpt>
      <trkpt lat="49.34175" lon="1.26202">
        <ele>109</ele>
        <time>2017-06-27T14:22:33Z</time>
      </trkpt>
      <trkpt lat="49.34168" lon="1.26197">
        <ele>109</ele>
        <time>2017-06-27T14:22:33Z</time>
      </trkpt>
      <trkpt lat="49.34163" lon="1.26195">
        <ele>109</ele>
        <time>2017-06-27T14:22:33Z</time>
      </trkpt>
      <trkpt lat="49.34158" lon="1.26196">
        <ele>109</ele>
        <time>2017-06-27T14:22:33Z</time>
      </trkpt>
      <trkpt lat="49.34154" lon="1.26192">
        <ele>109</ele>
        <time>2017-06-27T14:22:49Z</time>
      </trkpt>
      <trkpt lat="49.3415" lon="1.26197">
        <ele>109</ele>
        <time>2017-06-27T14:22:49Z</time>
      </trkpt>
      <trkpt lat="49.34143" lon="1.26196">
        <ele>109</ele>
        <time>2017-06-27T14:22:49Z</time>
      </trkpt>
      <trkpt lat="49.34137" lon="1.26188">
        <ele>109</ele>
        <time>2017-06-27T14:22:49Z</time>
      </trkpt>
      <trkpt lat="49.34136" lon="1.26184">
        <ele>109</ele>
        <time>2017-06-27T14:23:05Z</time>
      </trkpt>
      <trkpt lat="49.34138" lon="1.2618">
        <ele>109</ele>
        <time>2017-06-27T14:23:05Z</time>
      </trkpt>
      <trkpt lat="49.34133" lon="1.2618">
        <ele>109</ele>
        <time>2017-06-27T14:23:05Z</time>
      </trkpt>
      <trkpt lat="49.34126" lon="1.26177">
        <ele>109</ele>
        <time>2017-06-27T14:23:05Z</time>
      </trkpt>
      <trkpt lat="49.34121" lon="1.26179">
        <ele>89</ele>
        <time>2017-06-27T14:23:22Z</time>
      </trkpt>
      <trkpt lat="49.34119" lon="1.26179">
        <ele>89</ele>
        <time>2017-06-27T14:23:22Z</time>
      </trkpt>
      <trkpt lat="49.34115" lon="1.26172">
        <ele>89</ele>
        <time>2017-06-27T14:23:22Z</time>
      </trkpt>
      <trkpt lat="49.34115" lon="1.26164">
        <ele>89</ele>
        <time>2017-06-27T14:23:22Z</time>
      </trkpt>
      <trkpt lat="49.34109" lon="1.2616">
        <ele>89</ele>
        <time>2017-06-27T14:23:52Z</time>
      </trkpt>
      <trkpt lat="49.34109" lon="1.2616">
        <ele>89</ele>
        <time>2017-06-27T14:23:52Z</time>
      </trkpt>
      <trkpt lat="49.34109" lon="1.2616">
        <ele>89</ele>
        <time>2017-06-27T14:23:52Z</time>
      </trkpt>
      <trkpt lat="49.34106" lon="1.26161">
        <ele>89</ele>
        <time>2017-06-27T14:23:52Z</time>
      </trkpt>
      <trkpt lat="49.34099" lon="1.26161">
        <ele>89</ele>
        <time>2017-06-27T14:23:52Z</time>
      </trkpt>
      <trkpt lat="49.34094" lon="1.26157">
        <ele>89</ele>
        <time>2017-06-27T14:24:10Z</time>
      </trkpt>
      <trkpt lat="49.3409" lon="1.26156">
        <ele>89</ele>
        <time>2017-06-27T14:24:10Z</time>
      </trkpt>
      <trkpt lat="49.34085" lon="1.26151">
        <ele>89</ele>
        <time>2017-06-27T14:24:10Z</time>
      </trkpt>
      <trkpt lat="49.34083" lon="1.26151">
        <ele>89</ele>
        <time>2017-06-27T14:24:10Z</time>
      </trkpt>
      <trkpt lat="49.34082" lon="1.2615">
        <ele>89</ele>
        <time>2017-06-27T14:24:27Z</time>
      </trkpt>
      <trkpt lat="49.34079" lon="1.2615">
        <ele>89</ele>
        <time>2017-06-27T14:24:27Z</time>
      </trkpt>
      <trkpt lat="49.34079" lon="1.2615">
        <ele>89</ele>
        <time>2017-06-27T14:24:27Z</time>
      </trkpt>
      <trkpt lat="49.34073" lon="1.26141">
        <ele>89</ele>
        <time>2017-06-27T14:24:27Z</time>
      </trkpt>
      <trkpt lat="49.34068" lon="1.26135">
        <ele>89</ele>
        <time>2017-06-27T14:24:42Z</time>
      </trkpt>
      <trkpt lat="49.34065" lon="1.2613">
        <ele>89</ele>
        <time>2017-06-27T14:24:42Z</time>
      </trkpt>
      <trkpt lat="49.34055" lon="1.26125">
        <ele>89</ele>
        <time>2017-06-27T14:24:42Z</time>
      </trkpt>
      <trkpt lat="49.34052" lon="1.26124">
        <ele>105</ele>
        <time>2017-06-27T14:24:42Z</time>
      </trkpt>
      <trkpt lat="49.34051" lon="1.26124">
        <ele>105</ele>
        <time>2017-06-27T14:24:59Z</time>
      </trkpt>
      <trkpt lat="49.3405" lon="1.26122">
        <ele>105</ele>
        <time>2017-06-27T14:24:59Z</time>
      </trkpt>
      <trkpt lat="49.34046" lon="1.26118">
        <ele>105</ele>
        <time>2017-06-27T14:24:59Z</time>
      </trkpt>
      <trkpt lat="49.3404" lon="1.26113">
        <ele>78</ele>
        <time>2017-06-27T14:24:59Z</time>
      </trkpt>
      <trkpt lat="49.34038" lon="1.26111">
        <ele>78</ele>
        <time>2017-06-27T14:25:14Z</time>
      </trkpt>
      <trkpt lat="49.34034" lon="1.2611">
        <ele>78</ele>
        <time>2017-06-27T14:25:14Z</time>
      </trkpt>
      <trkpt lat="49.3403" lon="1.26109">
        <ele>78</ele>
        <time>2017-06-27T14:25:14Z</time>
      </trkpt>
      <trkpt lat="49.34026" lon="1.26103">
        <ele>78</ele>
        <time>2017-06-27T14:25:14Z</time>
      </trkpt>
      <trkpt lat="49.34023" lon="1.26101">
        <ele>78</ele>
        <time>2017-06-27T14:25:30Z</time>
      </trkpt>
      <trkpt lat="49.34019" lon="1.26099">
        <ele>78</ele>
        <time>2017-06-27T14:25:30Z</time>
      </trkpt>
      <trkpt lat="49.34017" lon="1.26099">
        <ele>78</ele>
        <time>2017-06-27T14:25:30Z</time>
      </trkpt>
      <trkpt lat="49.34012" lon="1.26095">
        <ele>78</ele>
        <time>2017-06-27T14:25:30Z</time>
      </trkpt>
      <trkpt lat="49.34009" lon="1.26094">
        <ele>78</ele>
        <time>2017-06-27T14:25:46Z</time>
      </trkpt>
      <trkpt lat="49.34005" lon="1.26088">
        <ele>78</ele>
        <time>2017-06-27T14:25:46Z</time>
      </trkpt>
      <trkpt lat="49.34002" lon="1.26086">
        <ele>78</ele>
        <time>2017-06-27T14:25:46Z</time>
      </trkpt>
      <trkpt lat="49.33998" lon="1.26083">
        <ele>78</ele>
        <time>2017-06-27T14:25:46Z</time>
      </trkpt>
      <trkpt lat="49.33995" lon="1.26076">
        <ele>78</ele>
        <time>2017-06-27T14:26:03Z</time>
      </trkpt>
      <trkpt lat="49.33994" lon="1.26071">
        <ele>78</ele>
        <time>2017-06-27T14:26:03Z</time>
      </trkpt>
      <trkpt lat="49.33991" lon="1.26068">
        <ele>78</ele>
        <time>2017-06-27T14:26:03Z</time>
      </trkpt>
      <trkpt lat="49.33987" lon="1.26067">
        <ele>78</ele>
        <time>2017-06-27T14:26:03Z</time>
      </trkpt>
      <trkpt lat="49.33982" lon="1.26064">
        <ele>78</ele>
        <time>2017-06-27T14:26:29Z</time>
      </trkpt>
      <trkpt lat="49.33977" lon="1.26059">
        <ele>78</ele>
        <time>2017-06-27T14:26:29Z</time>
      </trkpt>
      <trkpt lat="49.33972" lon="1.26055">
        <ele>78</ele>
        <time>2017-06-27T14:26:29Z</time>
      </trkpt>
      <trkpt lat="49.33969" lon="1.26049">
        <ele>78</ele>
        <time>2017-06-27T14:26:29Z</time>
      </trkpt>
      <trkpt lat="49.33965" lon="1.26049">
        <ele>78</ele>
        <time>2017-06-27T14:26:29Z</time>
      </trkpt>
      <trkpt lat="49.33963" lon="1.26041">
        <ele>97</ele>
        <time>2017-06-27T14:26:46Z</time>
      </trkpt>
      <trkpt lat="49.33962" lon="1.2604">
        <ele>97</ele>
        <time>2017-06-27T14:26:46Z</time>
      </trkpt>
      <trkpt lat="49.33958" lon="1.26038">
        <ele>73</ele>
        <time>2017-06-27T14:26:46Z</time>
      </trkpt>
      <trkpt lat="49.33951" lon="1.26033">
        <ele>73</ele>
        <time>2017-06-27T14:26:46Z</time>
      </trkpt>
      <trkpt lat="49.3395" lon="1.26032">
        <ele>73</ele>
        <time>2017-06-27T14:27:01Z</time>
      </trkpt>
      <trkpt lat="49.33947" lon="1.26028">
        <ele>73</ele>
        <time>2017-06-27T14:27:01Z</time>
      </trkpt>
      <trkpt lat="49.33946" lon="1.26023">
        <ele>73</ele>
        <time>2017-06-27T14:27:01Z</time>
      </trkpt>
      <trkpt lat="49.33942" lon="1.26024">
        <ele>73</ele>
        <time>2017-06-27T14:27:01Z</time>
      </trkpt>
      <trkpt lat="49.33943" lon="1.26033">
        <ele>73</ele>
        <time>2017-06-27T14:29:34Z</time>
      </trkpt>
      <trkpt lat="49.33943" lon="1.26033">
        <ele>73</ele>
        <time>2017-06-27T14:29:34Z</time>
      </trkpt>
      <trkpt lat="49.33943" lon="1.26033">
        <ele>73</ele>
        <time>2017-06-27T14:29:34Z</time>
      </trkpt>
      <trkpt lat="49.33943" lon="1.26038">
        <ele>73</ele>
        <time>2017-06-27T14:29:34Z</time>
      </trkpt>
      <trkpt lat="49.33942" lon="1.26045">
        <ele>53</ele>
        <time>2017-06-27T14:29:34Z</time>
      </trkpt>
      <trkpt lat="49.33948" lon="1.26049">
        <ele>53</ele>
        <time>2017-06-27T14:29:48Z</time>
      </trkpt>
      <trkpt lat="49.3395" lon="1.2605">
        <ele>53</ele>
        <time>2017-06-27T14:29:48Z</time>
      </trkpt>
      <trkpt lat="49.33953" lon="1.26053">
        <ele>53</ele>
        <time>2017-06-27T14:29:48Z</time>
      </trkpt>
      <trkpt lat="49.33957" lon="1.26059">
        <ele>53</ele>
        <time>2017-06-27T14:29:48Z</time>
      </trkpt>
      <trkpt lat="49.3396" lon="1.26069">
        <ele>78</ele>
        <time>2017-06-27T14:30:06Z</time>
      </trkpt>
      <trkpt lat="49.33964" lon="1.26061">
        <ele>78</ele>
        <time>2017-06-27T14:30:06Z</time>
      </trkpt>
      <trkpt lat="49.33967" lon="1.26067">
        <ele>78</ele>
        <time>2017-06-27T14:30:06Z</time>
      </trkpt>
      <trkpt lat="49.3397" lon="1.2608">
        <ele>78</ele>
        <time>2017-06-27T14:30:06Z</time>
      </trkpt>
      <trkpt lat="49.33974" lon="1.26083">
        <ele>78</ele>
        <time>2017-06-27T14:30:22Z</time>
      </trkpt>
      <trkpt lat="49.33973" lon="1.26087">
        <ele>78</ele>
        <time>2017-06-27T14:30:22Z</time>
      </trkpt>
      <trkpt lat="49.33973" lon="1.2609">
        <ele>78</ele>
        <time>2017-06-27T14:30:22Z</time>
      </trkpt>
      <trkpt lat="49.33979" lon="1.26096">
        <ele>78</ele>
        <time>2017-06-27T14:30:22Z</time>
      </trkpt>
      <trkpt lat="49.33981" lon="1.26104">
        <ele>78</ele>
        <time>2017-06-27T14:30:38Z</time>
      </trkpt>
      <trkpt lat="49.33985" lon="1.26106">
        <ele>78</ele>
        <time>2017-06-27T14:30:38Z</time>
      </trkpt>
      <trkpt lat="49.33989" lon="1.2611">
        <ele>78</ele>
        <time>2017-06-27T14:30:38Z</time>
      </trkpt>
      <trkpt lat="49.33993" lon="1.26113">
        <ele>78</ele>
        <time>2017-06-27T14:30:38Z</time>
      </trkpt>
      <trkpt lat="49.33993" lon="1.26115">
        <ele>78</ele>
        <time>2017-06-27T14:30:55Z</time>
      </trkpt>
      <trkpt lat="49.33993" lon="1.26126">
        <ele>61</ele>
        <time>2017-06-27T14:30:55Z</time>
      </trkpt>
      <trkpt lat="49.33994" lon="1.2613">
        <ele>61</ele>
        <time>2017-06-27T14:30:55Z</time>
      </trkpt>
      <trkpt lat="49.33997" lon="1.26137">
        <ele>61</ele>
        <time>2017-06-27T14:30:55Z</time>
      </trkpt>
      <trkpt lat="49.34" lon="1.26143">
        <ele>61</ele>
        <time>2017-06-27T14:31:10Z</time>
      </trkpt>
      <trkpt lat="49.34" lon="1.26151">
        <ele>61</ele>
        <time>2017-06-27T14:31:10Z</time>
      </trkpt>
      <trkpt lat="49.34" lon="1.26156">
        <ele>61</ele>
        <time>2017-06-27T14:31:10Z</time>
      </trkpt>
      <trkpt lat="49.34003" lon="1.26165">
        <ele>61</ele>
        <time>2017-06-27T14:31:10Z</time>
      </trkpt>
      <trkpt lat="49.34008" lon="1.2617">
        <ele>61</ele>
        <time>2017-06-27T14:31:30Z</time>
      </trkpt>
      <trkpt lat="49.34009" lon="1.26171">
        <ele>61</ele>
        <time>2017-06-27T14:31:30Z</time>
      </trkpt>
      <trkpt lat="49.34013" lon="1.26178">
        <ele>61</ele>
        <time>2017-06-27T14:31:30Z</time>
      </trkpt>
      <trkpt lat="49.34012" lon="1.26182">
        <ele>61</ele>
        <time>2017-06-27T14:31:30Z</time>
      </trkpt>
      <trkpt lat="49.34014" lon="1.26188">
        <ele>61</ele>
        <time>2017-06-27T14:31:30Z</time>
      </trkpt>
      <trkpt lat="49.34017" lon="1.26195">
        <ele>61</ele>
        <time>2017-06-27T14:31:46Z</time>
      </trkpt>
      <trkpt lat="49.34016" lon="1.26199">
        <ele>61</ele>
        <time>2017-06-27T14:31:46Z</time>
      </trkpt>
      <trkpt lat="49.34016" lon="1.26208">
        <ele>61</ele>
        <time>2017-06-27T14:31:46Z</time>
      </trkpt>
      <trkpt lat="49.34021" lon="1.26223">
        <ele>58</ele>
        <time>2017-06-27T14:31:46Z</time>
      </trkpt>
      <trkpt lat="49.34038" lon="1.26261">
        <ele>58</ele>
        <time>2017-06-27T14:32:35Z</time>
      </trkpt>
      <trkpt lat="49.34037" lon="1.26263">
        <ele>58</ele>
        <time>2017-06-27T14:32:35Z</time>
      </trkpt>
      <trkpt lat="49.34036" lon="1.26264">
        <ele>58</ele>
        <time>2017-06-27T14:32:35Z</time>
      </trkpt>
      <trkpt lat="49.34035" lon="1.26265">
        <ele>58</ele>
        <time>2017-06-27T14:32:35Z</time>
      </trkpt>
      <trkpt lat="49.34026" lon="1.26278">
        <ele>58</ele>
        <time>2017-06-27T14:32:35Z</time>
      </trkpt>
      <trkpt lat="49.3403" lon="1.26269">
        <ele>58</ele>
        <time>2017-06-27T14:33:35Z</time>
      </trkpt>
      <trkpt lat="49.3403" lon="1.26268">
        <ele>58</ele>
        <time>2017-06-27T14:33:35Z</time>
      </trkpt>
      <trkpt lat="49.34027" lon="1.2627">
        <ele>58</ele>
        <time>2017-06-27T14:33:35Z</time>
      </trkpt>
      <trkpt lat="49.34025" lon="1.26271">
        <ele>58</ele>
        <time>2017-06-27T14:33:35Z</time>
      </trkpt>
      <trkpt lat="49.3402" lon="1.2627">
        <ele>58</ele>
        <time>2017-06-27T14:33:35Z</time>
      </trkpt>
      <trkpt lat="49.34017" lon="1.26263">
        <ele>58</ele>
        <time>2017-06-27T14:33:48Z</time>
      </trkpt>
      <trkpt lat="49.34013" lon="1.26261">
        <ele>58</ele>
        <time>2017-06-27T14:33:48Z</time>
      </trkpt>
      <trkpt lat="49.34008" lon="1.26263">
        <ele>58</ele>
        <time>2017-06-27T14:33:48Z</time>
      </trkpt>
      <trkpt lat="49.34006" lon="1.26263">
        <ele>58</ele>
        <time>2017-06-27T14:33:48Z</time>
      </trkpt>
      <trkpt lat="49.33999" lon="1.2627">
        <ele>58</ele>
        <time>2017-06-27T14:34:19Z</time>
      </trkpt>
      <trkpt lat="49.33996" lon="1.26272">
        <ele>58</ele>
        <time>2017-06-27T14:34:19Z</time>
      </trkpt>
      <trkpt lat="49.33996" lon="1.26272">
        <ele>58</ele>
        <time>2017-06-27T14:34:19Z</time>
      </trkpt>
      <trkpt lat="49.33995" lon="1.26272">
        <ele>58</ele>
        <time>2017-06-27T14:34:19Z</time>
      </trkpt>
      <trkpt lat="49.33987" lon="1.26269">
        <ele>58</ele>
        <time>2017-06-27T14:34:19Z</time>
      </trkpt>
      <trkpt lat="49.33984" lon="1.26266">
        <ele>58</ele>
        <time>2017-06-27T14:34:32Z</time>
      </trkpt>
      <trkpt lat="49.33979" lon="1.26264">
        <ele>58</ele>
        <time>2017-06-27T14:34:32Z</time>
      </trkpt>
      <trkpt lat="49.33973" lon="1.2626">
        <ele>58</ele>
        <time>2017-06-27T14:34:32Z</time>
      </trkpt>
      <trkpt lat="49.33965" lon="1.26257">
        <ele>58</ele>
        <time>2017-06-27T14:34:32Z</time>
      </trkpt>
      <trkpt lat="49.3396" lon="1.26263">
        <ele>58</ele>
        <time>2017-06-27T14:35:38Z</time>
      </trkpt>
      <trkpt lat="49.33952" lon="1.26252">
        <ele>57</ele>
        <time>2017-06-27T14:35:38Z</time>
      </trkpt>
      <trkpt lat="49.33946" lon="1.26245">
        <ele>57</ele>
        <time>2017-06-27T14:35:38Z</time>
      </trkpt>
      <trkpt lat="49.33937" lon="1.26243">
        <ele>57</ele>
        <time>2017-06-27T14:35:38Z</time>
      </trkpt>
      <trkpt lat="49.33932" lon="1.26243">
        <ele>57</ele>
        <time>2017-06-27T14:35:38Z</time>
      </trkpt>
      <trkpt lat="49.33927" lon="1.26239">
        <ele>57</ele>
        <time>2017-06-27T14:35:54Z</time>
      </trkpt>
      <trkpt lat="49.33921" lon="1.26239">
        <ele>57</ele>
        <time>2017-06-27T14:35:54Z</time>
      </trkpt>
      <trkpt lat="49.33917" lon="1.26239">
        <ele>57</ele>
        <time>2017-06-27T14:35:54Z</time>
      </trkpt>
      <trkpt lat="49.33913" lon="1.26238">
        <ele>57</ele>
        <time>2017-06-27T14:35:54Z</time>
      </trkpt>
      <trkpt lat="49.33907" lon="1.26238">
        <ele>57</ele>
        <time>2017-06-27T14:36:09Z</time>
      </trkpt>
      <trkpt lat="49.33903" lon="1.2624">
        <ele>57</ele>
        <time>2017-06-27T14:36:09Z</time>
      </trkpt>
      <trkpt lat="49.33897" lon="1.26242">
        <ele>57</ele>
        <time>2017-06-27T14:36:09Z</time>
      </trkpt>
      <trkpt lat="49.33893" lon="1.26243">
        <ele>57</ele>
        <time>2017-06-27T14:36:09Z</time>
      </trkpt>
      <trkpt lat="49.33889" lon="1.26242">
        <ele>57</ele>
        <time>2017-06-27T14:36:25Z</time>
      </trkpt>
      <trkpt lat="49.33886" lon="1.26243">
        <ele>57</ele>
        <time>2017-06-27T14:36:25Z</time>
      </trkpt>
      <trkpt lat="49.33879" lon="1.26247">
        <ele>57</ele>
        <time>2017-06-27T14:36:25Z</time>
      </trkpt>
      <trkpt lat="49.33876" lon="1.26247">
        <ele>57</ele>
        <time>2017-06-27T14:36:25Z</time>
      </trkpt>
      <trkpt lat="49.33869" lon="1.26247">
        <ele>50</ele>
        <time>2017-06-27T14:36:41Z</time>
      </trkpt>
      <trkpt lat="49.33867" lon="1.26248">
        <ele>50</ele>
        <time>2017-06-27T14:36:41Z</time>
      </trkpt>
      <trkpt lat="49.33863" lon="1.26252">
        <ele>50</ele>
        <time>2017-06-27T14:36:41Z</time>
      </trkpt>
      <trkpt lat="49.3386" lon="1.26255">
        <ele>50</ele>
        <time>2017-06-27T14:36:41Z</time>
      </trkpt>
      <trkpt lat="49.33854" lon="1.26259">
        <ele>50</ele>
        <time>2017-06-27T14:36:57Z</time>
      </trkpt>
      <trkpt lat="49.33853" lon="1.26262">
        <ele>50</ele>
        <time>2017-06-27T14:36:57Z</time>
      </trkpt>
      <trkpt lat="49.3385" lon="1.26266">
        <ele>50</ele>
        <time>2017-06-27T14:36:57Z</time>
      </trkpt>
      <trkpt lat="49.33847" lon="1.2627">
        <ele>50</ele>
        <time>2017-06-27T14:36:57Z</time>
      </trkpt>
      <trkpt lat="49.33846" lon="1.26274">
        <ele>50</ele>
        <time>2017-06-27T14:37:14Z</time>
      </trkpt>
      <trkpt lat="49.33844" lon="1.2628">
        <ele>50</ele>
        <time>2017-06-27T14:37:14Z</time>
      </trkpt>
      <trkpt lat="49.33843" lon="1.26285">
        <ele>50</ele>
        <time>2017-06-27T14:37:14Z</time>
      </trkpt>
      <trkpt lat="49.33847" lon="1.26289">
        <ele>50</ele>
        <time>2017-06-27T14:37:14Z</time>
      </trkpt>
      <trkpt lat="49.3385" lon="1.26294">
        <ele>57</ele>
        <time>2017-06-27T14:37:31Z</time>
      </trkpt>
      <trkpt lat="49.33853" lon="1.26305">
        <ele>57</ele>
        <time>2017-06-27T14:37:31Z</time>
      </trkpt>
      <trkpt lat="49.33855" lon="1.26311">
        <ele>57</ele>
        <time>2017-06-27T14:37:31Z</time>
      </trkpt>
      <trkpt lat="49.33851" lon="1.26318">
        <ele>57</ele>
        <time>2017-06-27T14:37:31Z</time>
      </trkpt>
      <trkpt lat="49.3385" lon="1.26323">
        <ele>57</ele>
        <time>2017-06-27T14:37:45Z</time>
      </trkpt>
      <trkpt lat="49.33849" lon="1.26334">
        <ele>57</ele>
        <time>2017-06-27T14:37:45Z</time>
      </trkpt>
      <trkpt lat="49.33849" lon="1.26338">
        <ele>57</ele>
        <time>2017-06-27T14:37:45Z</time>
      </trkpt>
      <trkpt lat="49.33847" lon="1.26342">
        <ele>57</ele>
        <time>2017-06-27T14:37:45Z</time>
      </trkpt>
      <trkpt lat="49.33845" lon="1.26349">
        <ele>57</ele>
        <time>2017-06-27T14:38:02Z</time>
      </trkpt>
      <trkpt lat="49.33844" lon="1.26354">
        <ele>57</ele>
        <time>2017-06-27T14:38:02Z</time>
      </trkpt>
      <trkpt lat="49.33841" lon="1.26363">
        <ele>57</ele>
        <time>2017-06-27T14:38:02Z</time>
      </trkpt>
      <trkpt lat="49.3384" lon="1.26367">
        <ele>57</ele>
        <time>2017-06-27T14:38:02Z</time>
      </trkpt>
      <trkpt lat="49.33836" lon="1.26372">
        <ele>57</ele>
        <time>2017-06-27T14:38:18Z</time>
      </trkpt>
      <trkpt lat="49.33832" lon="1.26381">
        <ele>65</ele>
        <time>2017-06-27T14:38:18Z</time>
      </trkpt>
      <trkpt lat="49.3383" lon="1.26387">
        <ele>65</ele>
        <time>2017-06-27T14:38:18Z</time>
      </trkpt>
      <trkpt lat="49.33831" lon="1.2639">
        <ele>65</ele>
        <time>2017-06-27T14:38:18Z</time>
      </trkpt>
      <trkpt lat="49.33829" lon="1.26395">
        <ele>65</ele>
        <time>2017-06-27T14:38:33Z</time>
      </trkpt>
      <trkpt lat="49.33827" lon="1.26395">
        <ele>65</ele>
        <time>2017-06-27T14:38:33Z</time>
      </trkpt>
      <trkpt lat="49.33823" lon="1.26402">
        <ele>65</ele>
        <time>2017-06-27T14:38:33Z</time>
      </trkpt>
      <trkpt lat="49.33821" lon="1.26411">
        <ele>65</ele>
        <time>2017-06-27T14:38:33Z</time>
      </trkpt>
      <trkpt lat="49.33824" lon="1.26416">
        <ele>65</ele>
        <time>2017-06-27T14:38:52Z</time>
      </trkpt>
      <trkpt lat="49.33823" lon="1.2642">
        <ele>65</ele>
        <time>2017-06-27T14:38:52Z</time>
      </trkpt>
      <trkpt lat="49.33827" lon="1.26424">
        <ele>65</ele>
        <time>2017-06-27T14:38:52Z</time>
      </trkpt>
      <trkpt lat="49.33827" lon="1.26428">
        <ele>65</ele>
        <time>2017-06-27T14:38:52Z</time>
      </trkpt>
      <trkpt lat="49.33828" lon="1.26432">
        <ele>65</ele>
        <time>2017-06-27T14:38:52Z</time>
      </trkpt>
      <trkpt lat="49.33832" lon="1.26443">
        <ele>65</ele>
        <time>2017-06-27T14:39:25Z</time>
      </trkpt>
      <trkpt lat="49.33833" lon="1.26443">
        <ele>65</ele>
        <time>2017-06-27T14:39:25Z</time>
      </trkpt>
      <trkpt lat="49.33833" lon="1.26443">
        <ele>65</ele>
        <time>2017-06-27T14:39:25Z</time>
      </trkpt>
      <trkpt lat="49.33833" lon="1.26443">
        <ele>65</ele>
        <time>2017-06-27T14:39:25Z</time>
      </trkpt>
      <trkpt lat="49.33836" lon="1.26451">
        <ele>65</ele>
        <time>2017-06-27T14:39:25Z</time>
      </trkpt>
      <trkpt lat="49.33842" lon="1.26453">
        <ele>65</ele>
        <time>2017-06-27T14:40:03Z</time>
      </trkpt>
      <trkpt lat="49.33842" lon="1.26453">
        <ele>65</ele>
        <time>2017-06-27T14:40:03Z</time>
      </trkpt>
      <trkpt lat="49.33847" lon="1.26456">
        <ele>65</ele>
        <time>2017-06-27T14:40:03Z</time>
      </trkpt>
      <trkpt lat="49.33856" lon="1.2646">
        <ele>75</ele>
        <time>2017-06-27T14:40:03Z</time>
      </trkpt>
      <trkpt lat="49.33859" lon="1.26466">
        <ele>75</ele>
        <time>2017-06-27T14:40:03Z</time>
      </trkpt>
      <trkpt lat="49.33862" lon="1.26474">
        <ele>75</ele>
        <time>2017-06-27T14:41:23Z</time>
      </trkpt>
      <trkpt lat="49.33862" lon="1.26474">
        <ele>75</ele>
        <time>2017-06-27T14:41:23Z</time>
      </trkpt>
      <trkpt lat="49.33862" lon="1.26474">
        <ele>75</ele>
        <time>2017-06-27T14:41:23Z</time>
      </trkpt>
      <trkpt lat="49.33863" lon="1.26474">
        <ele>75</ele>
        <time>2017-06-27T14:41:23Z</time>
      </trkpt>
      <trkpt lat="49.33866" lon="1.265">
        <ele>75</ele>
        <time>2017-06-27T14:41:23Z</time>
      </trkpt>
      <trkpt lat="49.33865" lon="1.2651">
        <ele>75</ele>
        <time>2017-06-27T14:41:37Z</time>
      </trkpt>
      <trkpt lat="49.33868" lon="1.26517">
        <ele>75</ele>
        <time>2017-06-27T14:41:37Z</time>
      </trkpt>
      <trkpt lat="49.33866" lon="1.26524">
        <ele>75</ele>
        <time>2017-06-27T14:41:37Z</time>
      </trkpt>
      <trkpt lat="49.3387" lon="1.26534">
        <ele>75</ele>
        <time>2017-06-27T14:41:37Z</time>
      </trkpt>
      <trkpt lat="49.33869" lon="1.26543">
        <ele>79</ele>
        <time>2017-06-27T14:41:52Z</time>
      </trkpt>
      <trkpt lat="49.33869" lon="1.26547">
        <ele>79</ele>
        <time>2017-06-27T14:41:52Z</time>
      </trkpt>
      <trkpt lat="49.3387" lon="1.26553">
        <ele>79</ele>
        <time>2017-06-27T14:41:52Z</time>
      </trkpt>
      <trkpt lat="49.33867" lon="1.26558">
        <ele>79</ele>
        <time>2017-06-27T14:41:52Z</time>
      </trkpt>
      <trkpt lat="49.33873" lon="1.26563">
        <ele>79</ele>
        <time>2017-06-27T14:42:09Z</time>
      </trkpt>
      <trkpt lat="49.33876" lon="1.26568">
        <ele>113</ele>
        <time>2017-06-27T14:42:09Z</time>
      </trkpt>
      <trkpt lat="49.33878" lon="1.26573">
        <ele>113</ele>
        <time>2017-06-27T14:42:09Z</time>
      </trkpt>
      <trkpt lat="49.33877" lon="1.26577">
        <ele>113</ele>
        <time>2017-06-27T14:42:09Z</time>
      </trkpt>
      <trkpt lat="49.33878" lon="1.26587">
        <ele>113</ele>
        <time>2017-06-27T14:42:26Z</time>
      </trkpt>
      <trkpt lat="49.33878" lon="1.26593">
        <ele>113</ele>
        <time>2017-06-27T14:42:26Z</time>
      </trkpt>
      <trkpt lat="49.33881" lon="1.26599">
        <ele>113</ele>
        <time>2017-06-27T14:42:26Z</time>
      </trkpt>
      <trkpt lat="49.3388" lon="1.26604">
        <ele>113</ele>
        <time>2017-06-27T14:42:26Z</time>
      </trkpt>
      <trkpt lat="49.33881" lon="1.26611">
        <ele>113</ele>
        <time>2017-06-27T14:42:40Z</time>
      </trkpt>
      <trkpt lat="49.33883" lon="1.26618">
        <ele>113</ele>
        <time>2017-06-27T14:42:40Z</time>
      </trkpt>
      <trkpt lat="49.33883" lon="1.26623">
        <ele>113</ele>
        <time>2017-06-27T14:42:40Z</time>
      </trkpt>
      <trkpt lat="49.33881" lon="1.26632">
        <ele>112</ele>
        <time>2017-06-27T14:42:40Z</time>
      </trkpt>
      <trkpt lat="49.33882" lon="1.26639">
        <ele>112</ele>
        <time>2017-06-27T14:42:56Z</time>
      </trkpt>
      <trkpt lat="49.33885" lon="1.26644">
        <ele>112</ele>
        <time>2017-06-27T14:42:56Z</time>
      </trkpt>
      <trkpt lat="49.33883" lon="1.26651">
        <ele>112</ele>
        <time>2017-06-27T14:42:56Z</time>
      </trkpt>
      <trkpt lat="49.33885" lon="1.26658">
        <ele>112</ele>
        <time>2017-06-27T14:42:56Z</time>
      </trkpt>
      <trkpt lat="49.33884" lon="1.26665">
        <ele>112</ele>
        <time>2017-06-27T14:43:14Z</time>
      </trkpt>
      <trkpt lat="49.33883" lon="1.26672">
        <ele>112</ele>
        <time>2017-06-27T14:43:14Z</time>
      </trkpt>
      <trkpt lat="49.33884" lon="1.26674">
        <ele>112</ele>
        <time>2017-06-27T14:43:14Z</time>
      </trkpt>
      <trkpt lat="49.33884" lon="1.2668">
        <ele>112</ele>
        <time>2017-06-27T14:43:14Z</time>
      </trkpt>
      <trkpt lat="49.33887" lon="1.26686">
        <ele>112</ele>
        <time>2017-06-27T14:43:30Z</time>
      </trkpt>
      <trkpt lat="49.3389" lon="1.26691">
        <ele>112</ele>
        <time>2017-06-27T14:43:30Z</time>
      </trkpt>
      <trkpt lat="49.33892" lon="1.26698">
        <ele>112</ele>
        <time>2017-06-27T14:43:30Z</time>
      </trkpt>
      <trkpt lat="49.33893" lon="1.26705">
        <ele>112</ele>
        <time>2017-06-27T14:43:30Z</time>
      </trkpt>
      <trkpt lat="49.33892" lon="1.26713">
        <ele>112</ele>
        <time>2017-06-27T14:43:47Z</time>
      </trkpt>
      <trkpt lat="49.33892" lon="1.26721">
        <ele>112</ele>
        <time>2017-06-27T14:43:47Z</time>
      </trkpt>
      <trkpt lat="49.33891" lon="1.26725">
        <ele>112</ele>
        <time>2017-06-27T14:43:47Z</time>
      </trkpt>
      <trkpt lat="49.3389" lon="1.26736">
        <ele>112</ele>
        <time>2017-06-27T14:43:47Z</time>
      </trkpt>
      <trkpt lat="49.3389" lon="1.26741">
        <ele>112</ele>
        <time>2017-06-27T14:44:02Z</time>
      </trkpt>
      <trkpt lat="49.33891" lon="1.26747">
        <ele>112</ele>
        <time>2017-06-27T14:44:02Z</time>
      </trkpt>
      <trkpt lat="49.33892" lon="1.26753">
        <ele>112</ele>
        <time>2017-06-27T14:44:02Z</time>
      </trkpt>
      <trkpt lat="49.33893" lon="1.26757">
        <ele>112</ele>
        <time>2017-06-27T14:44:02Z</time>
      </trkpt>
      <trkpt lat="49.33894" lon="1.26763">
        <ele>112</ele>
        <time>2017-06-27T14:44:17Z</time>
      </trkpt>
      <trkpt lat="49.33893" lon="1.26772">
        <ele>112</ele>
        <time>2017-06-27T14:44:17Z</time>
      </trkpt>
      <trkpt lat="49.33892" lon="1.26777">
        <ele>112</ele>
        <time>2017-06-27T14:44:17Z</time>
      </trkpt>
      <trkpt lat="49.33892" lon="1.26782">
        <ele>112</ele>
        <time>2017-06-27T14:44:17Z</time>
      </trkpt>
      <trkpt lat="49.33893" lon="1.26792">
        <ele>112</ele>
        <time>2017-06-27T14:44:34Z</time>
      </trkpt>
      <trkpt lat="49.33891" lon="1.26798">
        <ele>112</ele>
        <time>2017-06-27T14:44:34Z</time>
      </trkpt>
      <trkpt lat="49.33892" lon="1.26802">
        <ele>112</ele>
        <time>2017-06-27T14:44:34Z</time>
      </trkpt>
      <trkpt lat="49.33892" lon="1.26811">
        <ele>112</ele>
        <time>2017-06-27T14:44:34Z</time>
      </trkpt>
      <trkpt lat="49.33893" lon="1.26815">
        <ele>112</ele>
        <time>2017-06-27T14:44:49Z</time>
      </trkpt>
      <trkpt lat="49.33893" lon="1.26822">
        <ele>112</ele>
        <time>2017-06-27T14:44:49Z</time>
      </trkpt>
      <trkpt lat="49.33893" lon="1.26829">
        <ele>112</ele>
        <time>2017-06-27T14:44:49Z</time>
      </trkpt>
      <trkpt lat="49.33893" lon="1.26837">
        <ele>112</ele>
        <time>2017-06-27T14:44:49Z</time>
      </trkpt>
      <trkpt lat="49.33893" lon="1.26844">
        <ele>112</ele>
        <time>2017-06-27T14:45:06Z</time>
      </trkpt>
      <trkpt lat="49.33893" lon="1.26852">
        <ele>112</ele>
        <time>2017-06-27T14:45:06Z</time>
      </trkpt>
      <trkpt lat="49.33892" lon="1.26857">
        <ele>112</ele>
        <time>2017-06-27T14:45:06Z</time>
      </trkpt>
      <trkpt lat="49.33893" lon="1.26865">
        <ele>112</ele>
        <time>2017-06-27T14:45:06Z</time>
      </trkpt>
      <trkpt lat="49.33893" lon="1.26872">
        <ele>112</ele>
        <time>2017-06-27T14:45:22Z</time>
      </trkpt>
      <trkpt lat="49.33892" lon="1.26877">
        <ele>110</ele>
        <time>2017-06-27T14:45:22Z</time>
      </trkpt>
      <trkpt lat="49.33892" lon="1.26886">
        <ele>110</ele>
        <time>2017-06-27T14:45:22Z</time>
      </trkpt>
      <trkpt lat="49.33891" lon="1.26895">
        <ele>110</ele>
        <time>2017-06-27T14:45:22Z</time>
      </trkpt>
      <trkpt lat="49.33891" lon="1.26902">
        <ele>110</ele>
        <time>2017-06-27T14:45:38Z</time>
      </trkpt>
      <trkpt lat="49.33891" lon="1.26907">
        <ele>110</ele>
        <time>2017-06-27T14:45:38Z</time>
      </trkpt>
      <trkpt lat="49.33891" lon="1.26915">
        <ele>110</ele>
        <time>2017-06-27T14:45:38Z</time>
      </trkpt>
      <trkpt lat="49.33891" lon="1.26921">
        <ele>110</ele>
        <time>2017-06-27T14:45:38Z</time>
      </trkpt>
      <trkpt lat="49.33892" lon="1.26925">
        <ele>110</ele>
        <time>2017-06-27T14:45:52Z</time>
      </trkpt>
      <trkpt lat="49.33892" lon="1.26934">
        <ele>110</ele>
        <time>2017-06-27T14:45:52Z</time>
      </trkpt>
      <trkpt lat="49.33893" lon="1.26937">
        <ele>110</ele>
        <time>2017-06-27T14:45:52Z</time>
      </trkpt>
      <trkpt lat="49.33892" lon="1.26945">
        <ele>110</ele>
        <time>2017-06-27T14:45:52Z</time>
      </trkpt>
      <trkpt lat="49.33893" lon="1.26945">
        <ele>110</ele>
        <time>2017-06-27T14:46:11Z</time>
      </trkpt>
      <trkpt lat="49.33892" lon="1.26948">
        <ele>110</ele>
        <time>2017-06-27T14:46:11Z</time>
      </trkpt>
      <trkpt lat="49.3389" lon="1.26954">
        <ele>110</ele>
        <time>2017-06-27T14:46:11Z</time>
      </trkpt>
      <trkpt lat="49.33888" lon="1.26959">
        <ele>108</ele>
        <time>2017-06-27T14:46:11Z</time>
      </trkpt>
      <trkpt lat="49.3389" lon="1.26962">
        <ele>108</ele>
        <time>2017-06-27T14:46:25Z</time>
      </trkpt>
      <trkpt lat="49.33888" lon="1.26971">
        <ele>108</ele>
        <time>2017-06-27T14:46:25Z</time>
      </trkpt>
      <trkpt lat="49.33889" lon="1.26979">
        <ele>108</ele>
        <time>2017-06-27T14:46:26Z</time>
      </trkpt>
      <trkpt lat="49.33889" lon="1.26987">
        <ele>108</ele>
        <time>2017-06-27T14:46:26Z</time>
      </trkpt>
      <trkpt lat="49.33887" lon="1.26994">
        <ele>108</ele>
        <time>2017-06-27T14:46:42Z</time>
      </trkpt>
      <trkpt lat="49.33888" lon="1.27">
        <ele>108</ele>
        <time>2017-06-27T14:46:42Z</time>
      </trkpt>
      <trkpt lat="49.33888" lon="1.27006">
        <ele>108</ele>
        <time>2017-06-27T14:46:42Z</time>
      </trkpt>
      <trkpt lat="49.3389" lon="1.27014">
        <ele>108</ele>
        <time>2017-06-27T14:46:42Z</time>
      </trkpt>
      <trkpt lat="49.3389" lon="1.27021">
        <ele>108</ele>
        <time>2017-06-27T14:46:57Z</time>
      </trkpt>
      <trkpt lat="49.33889" lon="1.27029">
        <ele>108</ele>
        <time>2017-06-27T14:46:57Z</time>
      </trkpt>
      <trkpt lat="49.33889" lon="1.27036">
        <ele>108</ele>
        <time>2017-06-27T14:46:57Z</time>
      </trkpt>
      <trkpt lat="49.33891" lon="1.27041">
        <ele>108</ele>
        <time>2017-06-27T14:46:57Z</time>
      </trkpt>
      <trkpt lat="49.33891" lon="1.27051">
        <ele>104</ele>
        <time>2017-06-27T14:47:13Z</time>
      </trkpt>
      <trkpt lat="49.33891" lon="1.27057">
        <ele>104</ele>
        <time>2017-06-27T14:47:13Z</time>
      </trkpt>
      <trkpt lat="49.33891" lon="1.27063">
        <ele>104</ele>
        <time>2017-06-27T14:47:13Z</time>
      </trkpt>
      <trkpt lat="49.33892" lon="1.27069">
        <ele>104</ele>
        <time>2017-06-27T14:47:13Z</time>
      </trkpt>
      <trkpt lat="49.33895" lon="1.27073">
        <ele>104</ele>
        <time>2017-06-27T14:47:30Z</time>
      </trkpt>
      <trkpt lat="49.33894" lon="1.2708">
        <ele>104</ele>
        <time>2017-06-27T14:47:30Z</time>
      </trkpt>
      <trkpt lat="49.33893" lon="1.27089">
        <ele>104</ele>
        <time>2017-06-27T14:47:30Z</time>
      </trkpt>
      <trkpt lat="49.33892" lon="1.27095">
        <ele>104</ele>
        <time>2017-06-27T14:47:30Z</time>
      </trkpt>
      <trkpt lat="49.33892" lon="1.27099">
        <ele>104</ele>
        <time>2017-06-27T14:47:44Z</time>
      </trkpt>
      <trkpt lat="49.33891" lon="1.27106">
        <ele>104</ele>
        <time>2017-06-27T14:47:44Z</time>
      </trkpt>
      <trkpt lat="49.33891" lon="1.27111">
        <ele>104</ele>
        <time>2017-06-27T14:47:44Z</time>
      </trkpt>
      <trkpt lat="49.3389" lon="1.27118">
        <ele>104</ele>
        <time>2017-06-27T14:47:44Z</time>
      </trkpt>
      <trkpt lat="49.33889" lon="1.27123">
        <ele>104</ele>
        <time>2017-06-27T14:48:03Z</time>
      </trkpt>
      <trkpt lat="49.33888" lon="1.2713">
        <ele>101</ele>
        <time>2017-06-27T14:48:03Z</time>
      </trkpt>
      <trkpt lat="49.33887" lon="1.27133">
        <ele>101</ele>
        <time>2017-06-27T14:48:03Z</time>
      </trkpt>
      <trkpt lat="49.33886" lon="1.2714">
        <ele>101</ele>
        <time>2017-06-27T14:48:03Z</time>
      </trkpt>
      <trkpt lat="49.33885" lon="1.27145">
        <ele>101</ele>
        <time>2017-06-27T14:48:18Z</time>
      </trkpt>
      <trkpt lat="49.33884" lon="1.27147">
        <ele>101</ele>
        <time>2017-06-27T14:48:18Z</time>
      </trkpt>
      <trkpt lat="49.33883" lon="1.27153">
        <ele>101</ele>
        <time>2017-06-27T14:48:18Z</time>
      </trkpt>
      <trkpt lat="49.33881" lon="1.27158">
        <ele>101</ele>
        <time>2017-06-27T14:48:18Z</time>
      </trkpt>
      <trkpt lat="49.3388" lon="1.27161">
        <ele>101</ele>
        <time>2017-06-27T14:48:35Z</time>
      </trkpt>
      <trkpt lat="49.33879" lon="1.27169">
        <ele>101</ele>
        <time>2017-06-27T14:48:35Z</time>
      </trkpt>
      <trkpt lat="49.33876" lon="1.27176">
        <ele>101</ele>
        <time>2017-06-27T14:48:35Z</time>
      </trkpt>
      <trkpt lat="49.33875" lon="1.27181">
        <ele>63</ele>
        <time>2017-06-27T14:48:35Z</time>
      </trkpt>
      <trkpt lat="49.33874" lon="1.27186">
        <ele>63</ele>
        <time>2017-06-27T14:48:49Z</time>
      </trkpt>
      <trkpt lat="49.33873" lon="1.27191">
        <ele>63</ele>
        <time>2017-06-27T14:48:49Z</time>
      </trkpt>
      <trkpt lat="49.33873" lon="1.27193">
        <ele>63</ele>
        <time>2017-06-27T14:48:49Z</time>
      </trkpt>
      <trkpt lat="49.33871" lon="1.27201">
        <ele>63</ele>
        <time>2017-06-27T14:48:49Z</time>
      </trkpt>
      <trkpt lat="49.33869" lon="1.27213">
        <ele>59</ele>
        <time>2017-06-27T14:54:10Z</time>
      </trkpt>
      <trkpt lat="49.33869" lon="1.27213">
        <ele>59</ele>
        <time>2017-06-27T14:54:10Z</time>
      </trkpt>
      <trkpt lat="49.33869" lon="1.27216">
        <ele>59</ele>
        <time>2017-06-27T14:54:10Z</time>
      </trkpt>
      <trkpt lat="49.33869" lon="1.27221">
        <ele>59</ele>
        <time>2017-06-27T14:54:10Z</time>
      </trkpt>
      <trkpt lat="49.3387" lon="1.27221">
        <ele>59</ele>
        <time>2017-06-27T14:54:10Z</time>
      </trkpt>
      <trkpt lat="49.33873" lon="1.27225">
        <ele>59</ele>
        <time>2017-06-27T14:54:40Z</time>
      </trkpt>
      <trkpt lat="49.33873" lon="1.27227">
        <ele>59</ele>
        <time>2017-06-27T14:54:40Z</time>
      </trkpt>
      <trkpt lat="49.33873" lon="1.2723">
        <ele>59</ele>
        <time>2017-06-27T14:54:40Z</time>
      </trkpt>
      <trkpt lat="49.33875" lon="1.27232">
        <ele>59</ele>
        <time>2017-06-27T14:54:40Z</time>
      </trkpt>
      <trkpt lat="49.33873" lon="1.27239">
        <ele>59</ele>
        <time>2017-06-27T14:54:40Z</time>
      </trkpt>
      <trkpt lat="49.33871" lon="1.27244">
        <ele>59</ele>
        <time>2017-06-27T14:54:59Z</time>
      </trkpt>
      <trkpt lat="49.33874" lon="1.27254">
        <ele>59</ele>
        <time>2017-06-27T14:54:59Z</time>
      </trkpt>
      <trkpt lat="49.33875" lon="1.27258">
        <ele>59</ele>
        <time>2017-06-27T14:54:59Z</time>
      </trkpt>
      <trkpt lat="49.33882" lon="1.27264">
        <ele>96</ele>
        <time>2017-06-27T14:54:59Z</time>
      </trkpt>
      <trkpt lat="49.33885" lon="1.27266">
        <ele>96</ele>
        <time>2017-06-27T14:55:15Z</time>
      </trkpt>
      <trkpt lat="49.33886" lon="1.27275">
        <ele>96</ele>
        <time>2017-06-27T14:55:15Z</time>
      </trkpt>
      <trkpt lat="49.33886" lon="1.2728">
        <ele>96</ele>
        <time>2017-06-27T14:55:15Z</time>
      </trkpt>
      <trkpt lat="49.33889" lon="1.27291">
        <ele>96</ele>
        <time>2017-06-27T14:55:15Z</time>
      </trkpt>
      <trkpt lat="49.3389" lon="1.27297">
        <ele>90</ele>
        <time>2017-06-27T14:55:31Z</time>
      </trkpt>
      <trkpt lat="49.3389" lon="1.27305">
        <ele>90</ele>
        <time>2017-06-27T14:55:31Z</time>
      </trkpt>
      <trkpt lat="49.33893" lon="1.27309">
        <ele>90</ele>
        <time>2017-06-27T14:55:31Z</time>
      </trkpt>
      <trkpt lat="49.33895" lon="1.27317">
        <ele>90</ele>
        <time>2017-06-27T14:55:31Z</time>
      </trkpt>
      <trkpt lat="49.33895" lon="1.27321">
        <ele>90</ele>
        <time>2017-06-27T14:55:46Z</time>
      </trkpt>
      <trkpt lat="49.33898" lon="1.27326">
        <ele>90</ele>
        <time>2017-06-27T14:55:46Z</time>
      </trkpt>
      <trkpt lat="49.33899" lon="1.2733">
        <ele>90</ele>
        <time>2017-06-27T14:55:46Z</time>
      </trkpt>
      <trkpt lat="49.339" lon="1.27337">
        <ele>90</ele>
        <time>2017-06-27T14:55:46Z</time>
      </trkpt>
      <trkpt lat="49.33901" lon="1.27349">
        <ele>90</ele>
        <time>2017-06-27T14:56:13Z</time>
      </trkpt>
      <trkpt lat="49.33899" lon="1.27353">
        <ele>90</ele>
        <time>2017-06-27T14:56:13Z</time>
      </trkpt>
      <trkpt lat="49.33898" lon="1.27354">
        <ele>90</ele>
        <time>2017-06-27T14:56:13Z</time>
      </trkpt>
      <trkpt lat="49.33898" lon="1.27356">
        <ele>90</ele>
        <time>2017-06-27T14:56:13Z</time>
      </trkpt>
      <trkpt lat="49.33898" lon="1.27357">
        <ele>90</ele>
        <time>2017-06-27T14:56:13Z</time>
      </trkpt>
      <trkpt lat="49.33898" lon="1.27359">
        <ele>90</ele>
        <time>2017-06-27T14:56:38Z</time>
      </trkpt>
      <trkpt lat="49.33898" lon="1.27359">
        <ele>90</ele>
        <time>2017-06-27T14:56:38Z</time>
      </trkpt>
      <trkpt lat="49.33898" lon="1.27359">
        <ele>90</ele>
        <time>2017-06-27T14:56:38Z</time>
      </trkpt>
      <trkpt lat="49.33898" lon="1.27359">
        <ele>90</ele>
        <time>2017-06-27T14:56:38Z</time>
      </trkpt>
      <trkpt lat="49.33888" lon="1.27376">
        <ele>84</ele>
        <time>2017-06-27T14:56:38Z</time>
      </trkpt>
      <trkpt lat="49.33886" lon="1.27391">
        <ele>84</ele>
        <time>2017-06-27T14:56:52Z</time>
      </trkpt>
      <trkpt lat="49.33887" lon="1.27402">
        <ele>84</ele>
        <time>2017-06-27T14:56:52Z</time>
      </trkpt>
      <trkpt lat="49.33886" lon="1.27407">
        <ele>84</ele>
        <time>2017-06-27T14:56:52Z</time>
      </trkpt>
      <trkpt lat="49.33884" lon="1.27415">
        <ele>84</ele>
        <time>2017-06-27T14:56:52Z</time>
      </trkpt>
      <trkpt lat="49.33885" lon="1.27422">
        <ele>84</ele>
        <time>2017-06-27T14:57:13Z</time>
      </trkpt>
      <trkpt lat="49.33885" lon="1.27426">
        <ele>84</ele>
        <time>2017-06-27T14:57:13Z</time>
      </trkpt>
      <trkpt lat="49.33884" lon="1.27427">
        <ele>84</ele>
        <time>2017-06-27T14:57:13Z</time>
      </trkpt>
      <trkpt lat="49.33881" lon="1.27431">
        <ele>84</ele>
        <time>2017-06-27T14:57:13Z</time>
      </trkpt>
      <trkpt lat="49.3388" lon="1.27433">
        <ele>84</ele>
        <time>2017-06-27T14:57:13Z</time>
      </trkpt>
      <trkpt lat="49.33877" lon="1.27438">
        <ele>84</ele>
        <time>2017-06-27T14:57:28Z</time>
      </trkpt>
      <trkpt lat="49.33874" lon="1.27442">
        <ele>45</ele>
        <time>2017-06-27T14:57:28Z</time>
      </trkpt>
      <trkpt lat="49.33874" lon="1.27448">
        <ele>45</ele>
        <time>2017-06-27T14:57:28Z</time>
      </trkpt>
      <trkpt lat="49.33871" lon="1.27449">
        <ele>45</ele>
        <time>2017-06-27T14:57:28Z</time>
      </trkpt>
      <trkpt lat="49.33872" lon="1.27452">
        <ele>45</ele>
        <time>2017-06-27T14:57:50Z</time>
      </trkpt>
      <trkpt lat="49.33871" lon="1.27458">
        <ele>45</ele>
        <time>2017-06-27T14:57:50Z</time>
      </trkpt>
      <trkpt lat="49.33871" lon="1.27463">
        <ele>41</ele>
        <time>2017-06-27T14:57:50Z</time>
      </trkpt>
      <trkpt lat="49.33868" lon="1.27463">
        <ele>41</ele>
        <time>2017-06-27T14:57:50Z</time>
      </trkpt>
      <trkpt lat="49.33866" lon="1.27472">
        <ele>41</ele>
        <time>2017-06-27T14:57:50Z</time>
      </trkpt>
      <trkpt lat="49.33871" lon="1.27482">
        <ele>41</ele>
        <time>2017-06-27T14:58:22Z</time>
      </trkpt>
      <trkpt lat="49.33867" lon="1.27486">
        <ele>41</ele>
        <time>2017-06-27T14:58:22Z</time>
      </trkpt>
      <trkpt lat="49.33869" lon="1.27488">
        <ele>41</ele>
        <time>2017-06-27T14:58:22Z</time>
      </trkpt>
      <trkpt lat="49.33865" lon="1.27492">
        <ele>41</ele>
        <time>2017-06-27T14:58:22Z</time>
      </trkpt>
      <trkpt lat="49.33864" lon="1.27494">
        <ele>41</ele>
        <time>2017-06-27T14:58:22Z</time>
      </trkpt>
      <trkpt lat="49.33857" lon="1.27512">
        <ele>41</ele>
        <time>2017-06-27T14:58:51Z</time>
      </trkpt>
      <trkpt lat="49.33857" lon="1.27513">
        <ele>41</ele>
        <time>2017-06-27T14:58:51Z</time>
      </trkpt>
      <trkpt lat="49.33856" lon="1.27512">
        <ele>41</ele>
        <time>2017-06-27T14:58:51Z</time>
      </trkpt>
      <trkpt lat="49.33856" lon="1.27513">
        <ele>41</ele>
        <time>2017-06-27T14:58:51Z</time>
      </trkpt>
      <trkpt lat="49.33852" lon="1.27518">
        <ele>41</ele>
        <time>2017-06-27T14:58:51Z</time>
      </trkpt>
      <trkpt lat="49.33852" lon="1.27524">
        <ele>41</ele>
        <time>2017-06-27T15:00:09Z</time>
      </trkpt>
      <trkpt lat="49.33852" lon="1.27525">
        <ele>41</ele>
        <time>2017-06-27T15:00:09Z</time>
      </trkpt>
      <trkpt lat="49.33852" lon="1.27525">
        <ele>41</ele>
        <time>2017-06-27T15:00:09Z</time>
      </trkpt>
      <trkpt lat="49.33848" lon="1.27529">
        <ele>41</ele>
        <time>2017-06-27T15:00:09Z</time>
      </trkpt>
      <trkpt lat="49.33848" lon="1.2754">
        <ele>41</ele>
        <time>2017-06-27T15:00:09Z</time>
      </trkpt>
      <trkpt lat="49.33849" lon="1.27546">
        <ele>36</ele>
        <time>2017-06-27T15:00:24Z</time>
      </trkpt>
      <trkpt lat="49.33851" lon="1.27549">
        <ele>36</ele>
        <time>2017-06-27T15:00:24Z</time>
      </trkpt>
      <trkpt lat="49.33853" lon="1.27554">
        <ele>36</ele>
        <time>2017-06-27T15:00:24Z</time>
      </trkpt>
      <trkpt lat="49.33853" lon="1.27562">
        <ele>36</ele>
        <time>2017-06-27T15:00:24Z</time>
      </trkpt>
      <trkpt lat="49.33853" lon="1.27569">
        <ele>36</ele>
        <time>2017-06-27T15:00:40Z</time>
      </trkpt>
      <trkpt lat="49.33854" lon="1.27574">
        <ele>36</ele>
        <time>2017-06-27T15:00:40Z</time>
      </trkpt>
      <trkpt lat="49.33853" lon="1.27582">
        <ele>36</ele>
        <time>2017-06-27T15:00:40Z</time>
      </trkpt>
      <trkpt lat="49.33855" lon="1.27588">
        <ele>36</ele>
        <time>2017-06-27T15:00:40Z</time>
      </trkpt>
      <trkpt lat="49.33856" lon="1.27595">
        <ele>36</ele>
        <time>2017-06-27T15:00:58Z</time>
      </trkpt>
      <trkpt lat="49.33857" lon="1.27602">
        <ele>36</ele>
        <time>2017-06-27T15:00:58Z</time>
      </trkpt>
      <trkpt lat="49.33857" lon="1.27609">
        <ele>36</ele>
        <time>2017-06-27T15:00:58Z</time>
      </trkpt>
      <trkpt lat="49.33857" lon="1.2761">
        <ele>36</ele>
        <time>2017-06-27T15:00:58Z</time>
      </trkpt>
      <trkpt lat="49.33856" lon="1.27615">
        <ele>36</ele>
        <time>2017-06-27T15:02:00Z</time>
      </trkpt>
      <trkpt lat="49.33856" lon="1.27615">
        <ele>36</ele>
        <time>2017-06-27T15:02:00Z</time>
      </trkpt>
      <trkpt lat="49.33853" lon="1.27622">
        <ele>36</ele>
        <time>2017-06-27T15:02:00Z</time>
      </trkpt>
      <trkpt lat="49.33851" lon="1.27624">
        <ele>36</ele>
        <time>2017-06-27T15:02:00Z</time>
      </trkpt>
      <trkpt lat="49.33849" lon="1.27627">
        <ele>31</ele>
        <time>2017-06-27T15:02:00Z</time>
      </trkpt>
      <trkpt lat="49.33845" lon="1.27634">
        <ele>31</ele>
        <time>2017-06-27T15:02:30Z</time>
      </trkpt>
      <trkpt lat="49.33844" lon="1.27634">
        <ele>31</ele>
        <time>2017-06-27T15:02:30Z</time>
      </trkpt>
      <trkpt lat="49.33843" lon="1.27635">
        <ele>31</ele>
        <time>2017-06-27T15:02:30Z</time>
      </trkpt>
      <trkpt lat="49.33842" lon="1.27635">
        <ele>31</ele>
        <time>2017-06-27T15:02:30Z</time>
      </trkpt>
      <trkpt lat="49.33842" lon="1.27642">
        <ele>31</ele>
        <time>2017-06-27T15:02:30Z</time>
      </trkpt>
      <trkpt lat="49.33841" lon="1.27651">
        <ele>31</ele>
        <time>2017-06-27T15:02:45Z</time>
      </trkpt>
      <trkpt lat="49.33843" lon="1.2766">
        <ele>31</ele>
        <time>2017-06-27T15:02:45Z</time>
      </trkpt>
      <trkpt lat="49.33844" lon="1.27665">
        <ele>31</ele>
        <time>2017-06-27T15:02:45Z</time>
      </trkpt>
      <trkpt lat="49.33846" lon="1.27671">
        <ele>31</ele>
        <time>2017-06-27T15:02:45Z</time>
      </trkpt>
      <trkpt lat="49.33847" lon="1.27679">
        <ele>31</ele>
        <time>2017-06-27T15:03:02Z</time>
      </trkpt>
      <trkpt lat="49.33848" lon="1.27687">
        <ele>31</ele>
        <time>2017-06-27T15:03:02Z</time>
      </trkpt>
      <trkpt lat="49.3385" lon="1.27691">
        <ele>31</ele>
        <time>2017-06-27T15:03:02Z</time>
      </trkpt>
      <trkpt lat="49.3385" lon="1.27698">
        <ele>31</ele>
        <time>2017-06-27T15:03:02Z</time>
      </trkpt>
      <trkpt lat="49.33847" lon="1.27719">
        <ele>29</ele>
        <time>2017-06-27T15:03:56Z</time>
      </trkpt>
      <trkpt lat="49.33846" lon="1.27725">
        <ele>29</ele>
        <time>2017-06-27T15:03:56Z</time>
      </trkpt>
      <trkpt lat="49.33847" lon="1.27726">
        <ele>29</ele>
        <time>2017-06-27T15:03:56Z</time>
      </trkpt>
      <trkpt lat="49.33847" lon="1.27727">
        <ele>29</ele>
        <time>2017-06-27T15:03:56Z</time>
      </trkpt>
      <trkpt lat="49.33852" lon="1.27733">
        <ele>29</ele>
        <time>2017-06-27T15:03:56Z</time>
      </trkpt>
      <trkpt lat="49.33857" lon="1.2773">
        <ele>29</ele>
        <time>2017-06-27T15:04:34Z</time>
      </trkpt>
      <trkpt lat="49.33858" lon="1.27738">
        <ele>29</ele>
        <time>2017-06-27T15:04:34Z</time>
      </trkpt>
      <trkpt lat="49.33859" lon="1.27746">
        <ele>29</ele>
        <time>2017-06-27T15:04:34Z</time>
      </trkpt>
      <trkpt lat="49.3386" lon="1.27754">
        <ele>29</ele>
        <time>2017-06-27T15:04:34Z</time>
      </trkpt>
      <trkpt lat="49.33862" lon="1.27761">
        <ele>29</ele>
        <time>2017-06-27T15:04:34Z</time>
      </trkpt>
      <trkpt lat="49.33863" lon="1.27766">
        <ele>29</ele>
        <time>2017-06-27T15:04:48Z</time>
      </trkpt>
      <trkpt lat="49.33865" lon="1.27779">
        <ele>29</ele>
        <time>2017-06-27T15:04:48Z</time>
      </trkpt>
      <trkpt lat="49.33865" lon="1.27787">
        <ele>29</ele>
        <time>2017-06-27T15:04:48Z</time>
      </trkpt>
      <trkpt lat="49.33867" lon="1.27794">
        <ele>25</ele>
        <time>2017-06-27T15:04:48Z</time>
      </trkpt>
      <trkpt lat="49.3387" lon="1.278">
        <ele>25</ele>
        <time>2017-06-27T15:05:06Z</time>
      </trkpt>
      <trkpt lat="49.33867" lon="1.27807">
        <ele>25</ele>
        <time>2017-06-27T15:05:06Z</time>
      </trkpt>
      <trkpt lat="49.33868" lon="1.27814">
        <ele>25</ele>
        <time>2017-06-27T15:05:06Z</time>
      </trkpt>
      <trkpt lat="49.33863" lon="1.27814">
        <ele>25</ele>
        <time>2017-06-27T15:05:06Z</time>
      </trkpt>
      <trkpt lat="49.3386" lon="1.27813">
        <ele>25</ele>
        <time>2017-06-27T15:05:22Z</time>
      </trkpt>
      <trkpt lat="49.33856" lon="1.27814">
        <ele>25</ele>
        <time>2017-06-27T15:05:22Z</time>
      </trkpt>
      <trkpt lat="49.33854" lon="1.27814">
        <ele>25</ele>
        <time>2017-06-27T15:05:22Z</time>
      </trkpt>
      <trkpt lat="49.33851" lon="1.27818">
        <ele>25</ele>
        <time>2017-06-27T15:05:22Z</time>
      </trkpt>
      <trkpt lat="49.33847" lon="1.27819">
        <ele>25</ele>
        <time>2017-06-27T15:05:38Z</time>
      </trkpt>
      <trkpt lat="49.33843" lon="1.27822">
        <ele>25</ele>
        <time>2017-06-27T15:05:38Z</time>
      </trkpt>
      <trkpt lat="49.3384" lon="1.27824">
        <ele>25</ele>
        <time>2017-06-27T15:05:38Z</time>
      </trkpt>
      <trkpt lat="49.33836" lon="1.27823">
        <ele>25</ele>
        <time>2017-06-27T15:05:38Z</time>
      </trkpt>
      <trkpt lat="49.33832" lon="1.27827">
        <ele>25</ele>
        <time>2017-06-27T15:05:54Z</time>
      </trkpt>
      <trkpt lat="49.33829" lon="1.2783">
        <ele>25</ele>
        <time>2017-06-27T15:05:54Z</time>
      </trkpt>
      <trkpt lat="49.33824" lon="1.27832">
        <ele>25</ele>
        <time>2017-06-27T15:05:54Z</time>
      </trkpt>
      <trkpt lat="49.33819" lon="1.27834">
        <ele>25</ele>
        <time>2017-06-27T15:05:54Z</time>
      </trkpt>
      <trkpt lat="49.33816" lon="1.27837">
        <ele>25</ele>
        <time>2017-06-27T15:06:10Z</time>
      </trkpt>
      <trkpt lat="49.33809" lon="1.27841">
        <ele>25</ele>
        <time>2017-06-27T15:06:10Z</time>
      </trkpt>
      <trkpt lat="49.33804" lon="1.27844">
        <ele>25</ele>
        <time>2017-06-27T15:06:10Z</time>
      </trkpt>
      <trkpt lat="49.33801" lon="1.27846">
        <ele>25</ele>
        <time>2017-06-27T15:06:10Z</time>
      </trkpt>
      <trkpt lat="49.33797" lon="1.27849">
        <ele>25</ele>
        <time>2017-06-27T15:06:26Z</time>
      </trkpt>
      <trkpt lat="49.33793" lon="1.2785">
        <ele>25</ele>
        <time>2017-06-27T15:06:26Z</time>
      </trkpt>
      <trkpt lat="49.3379" lon="1.2785">
        <ele>20</ele>
        <time>2017-06-27T15:06:26Z</time>
      </trkpt>
      <trkpt lat="49.33786" lon="1.27851">
        <ele>20</ele>
        <time>2017-06-27T15:06:26Z</time>
      </trkpt>
      <trkpt lat="49.33784" lon="1.27851">
        <ele>20</ele>
        <time>2017-06-27T15:06:42Z</time>
      </trkpt>
      <trkpt lat="49.33782" lon="1.27856">
        <ele>20</ele>
        <time>2017-06-27T15:06:42Z</time>
      </trkpt>
      <trkpt lat="49.33782" lon="1.27858">
        <ele>20</ele>
        <time>2017-06-27T15:06:42Z</time>
      </trkpt>
      <trkpt lat="49.33784" lon="1.2787">
        <ele>20</ele>
        <time>2017-06-27T15:06:42Z</time>
      </trkpt>
      <trkpt lat="49.33786" lon="1.27875">
        <ele>24</ele>
        <time>2017-06-27T15:06:56Z</time>
      </trkpt>
      <trkpt lat="49.33788" lon="1.27884">
        <ele>24</ele>
        <time>2017-06-27T15:06:56Z</time>
      </trkpt>
      <trkpt lat="49.33792" lon="1.27891">
        <ele>25</ele>
        <time>2017-06-27T15:06:56Z</time>
      </trkpt>
      <trkpt lat="49.33795" lon="1.27898">
        <ele>25</ele>
        <time>2017-06-27T15:06:56Z</time>
      </trkpt>
      <trkpt lat="49.33796" lon="1.27906">
        <ele>25</ele>
        <time>2017-06-27T15:07:13Z</time>
      </trkpt>
      <trkpt lat="49.33796" lon="1.27911">
        <ele>25</ele>
        <time>2017-06-27T15:07:13Z</time>
      </trkpt>
      <trkpt lat="49.338" lon="1.27918">
        <ele>25</ele>
        <time>2017-06-27T15:07:13Z</time>
      </trkpt>
      <trkpt lat="49.33803" lon="1.27924">
        <ele>25</ele>
        <time>2017-06-27T15:07:13Z</time>
      </trkpt>
      <trkpt lat="49.33804" lon="1.2793">
        <ele>25</ele>
        <time>2017-06-27T15:07:31Z</time>
      </trkpt>
      <trkpt lat="49.33808" lon="1.27938">
        <ele>25</ele>
        <time>2017-06-27T15:07:31Z</time>
      </trkpt>
      <trkpt lat="49.33807" lon="1.27946">
        <ele>25</ele>
        <time>2017-06-27T15:07:31Z</time>
      </trkpt>
      <trkpt lat="49.3381" lon="1.27954">
        <ele>25</ele>
        <time>2017-06-27T15:07:31Z</time>
      </trkpt>
      <trkpt lat="49.33811" lon="1.27957">
        <ele>25</ele>
        <time>2017-06-27T15:07:45Z</time>
      </trkpt>
      <trkpt lat="49.33813" lon="1.27968">
        <ele>25</ele>
        <time>2017-06-27T15:07:45Z</time>
      </trkpt>
      <trkpt lat="49.33816" lon="1.27973">
        <ele>25</ele>
        <time>2017-06-27T15:07:45Z</time>
      </trkpt>
      <trkpt lat="49.33818" lon="1.27977">
        <ele>25</ele>
        <time>2017-06-27T15:07:45Z</time>
      </trkpt>
      <trkpt lat="49.33821" lon="1.27985">
        <ele>25</ele>
        <time>2017-06-27T15:08:00Z</time>
      </trkpt>
      <trkpt lat="49.33822" lon="1.27992">
        <ele>25</ele>
        <time>2017-06-27T15:08:00Z</time>
      </trkpt>
      <trkpt lat="49.3382" lon="1.28001">
        <ele>25</ele>
        <time>2017-06-27T15:08:00Z</time>
      </trkpt>
      <trkpt lat="49.33819" lon="1.28009">
        <ele>25</ele>
        <time>2017-06-27T15:08:00Z</time>
      </trkpt>
      <trkpt lat="49.33824" lon="1.28012">
        <ele>25</ele>
        <time>2017-06-27T15:08:16Z</time>
      </trkpt>
      <trkpt lat="49.33828" lon="1.28018">
        <ele>25</ele>
        <time>2017-06-27T15:08:16Z</time>
      </trkpt>
      <trkpt lat="49.33831" lon="1.28023">
        <ele>25</ele>
        <time>2017-06-27T15:08:16Z</time>
      </trkpt>
      <trkpt lat="49.33836" lon="1.28027">
        <ele>25</ele>
        <time>2017-06-27T15:08:16Z</time>
      </trkpt>
      <trkpt lat="49.33834" lon="1.28033">
        <ele>25</ele>
        <time>2017-06-27T15:08:33Z</time>
      </trkpt>
      <trkpt lat="49.33835" lon="1.28043">
        <ele>25</ele>
        <time>2017-06-27T15:08:34Z</time>
      </trkpt>
      <trkpt lat="49.33834" lon="1.28049">
        <ele>25</ele>
        <time>2017-06-27T15:08:34Z</time>
      </trkpt>
      <trkpt lat="49.33835" lon="1.28056">
        <ele>25</ele>
        <time>2017-06-27T15:08:34Z</time>
      </trkpt>
      <trkpt lat="49.33836" lon="1.28065">
        <ele>25</ele>
        <time>2017-06-27T15:08:49Z</time>
      </trkpt>
      <trkpt lat="49.33837" lon="1.28069">
        <ele>25</ele>
        <time>2017-06-27T15:08:49Z</time>
      </trkpt>
      <trkpt lat="49.33841" lon="1.2808">
        <ele>25</ele>
        <time>2017-06-27T15:08:49Z</time>
      </trkpt>
      <trkpt lat="49.33841" lon="1.28084">
        <ele>25</ele>
        <time>2017-06-27T15:08:49Z</time>
      </trkpt>
      <trkpt lat="49.33843" lon="1.28093">
        <ele>25</ele>
        <time>2017-06-27T15:09:06Z</time>
      </trkpt>
      <trkpt lat="49.33846" lon="1.28096">
        <ele>25</ele>
        <time>2017-06-27T15:09:06Z</time>
      </trkpt>
      <trkpt lat="49.33847" lon="1.281">
        <ele>25</ele>
        <time>2017-06-27T15:09:06Z</time>
      </trkpt>
      <trkpt lat="49.33849" lon="1.28107">
        <ele>25</ele>
        <time>2017-06-27T15:09:06Z</time>
      </trkpt>
      <trkpt lat="49.33852" lon="1.28112">
        <ele>25</ele>
        <time>2017-06-27T15:09:20Z</time>
      </trkpt>
      <trkpt lat="49.3385" lon="1.28122">
        <ele>25</ele>
        <time>2017-06-27T15:09:20Z</time>
      </trkpt>
      <trkpt lat="49.33849" lon="1.28125">
        <ele>25</ele>
        <time>2017-06-27T15:09:20Z</time>
      </trkpt>
      <trkpt lat="49.33848" lon="1.28129">
        <ele>23</ele>
        <time>2017-06-27T15:09:20Z</time>
      </trkpt>
      <trkpt lat="49.33847" lon="1.28135">
        <ele>23</ele>
        <time>2017-06-27T15:09:40Z</time>
      </trkpt>
      <trkpt lat="49.33846" lon="1.28135">
        <ele>23</ele>
        <time>2017-06-27T15:09:40Z</time>
      </trkpt>
      <trkpt lat="49.33848" lon="1.2814">
        <ele>23</ele>
        <time>2017-06-27T15:09:40Z</time>
      </trkpt>
      <trkpt lat="49.33852" lon="1.28142">
        <ele>23</ele>
        <time>2017-06-27T15:09:40Z</time>
      </trkpt>
      <trkpt lat="49.33853" lon="1.28151">
        <ele>23</ele>
        <time>2017-06-27T15:09:40Z</time>
      </trkpt>
      <trkpt lat="49.33854" lon="1.28157">
        <ele>23</ele>
        <time>2017-06-27T15:09:58Z</time>
      </trkpt>
      <trkpt lat="49.33856" lon="1.28161">
        <ele>23</ele>
        <time>2017-06-27T15:09:58Z</time>
      </trkpt>
      <trkpt lat="49.33856" lon="1.28165">
        <ele>23</ele>
        <time>2017-06-27T15:09:58Z</time>
      </trkpt>
      <trkpt lat="49.33859" lon="1.28172">
        <ele>23</ele>
        <time>2017-06-27T15:09:58Z</time>
      </trkpt>
      <trkpt lat="49.33862" lon="1.28177">
        <ele>23</ele>
        <time>2017-06-27T15:10:15Z</time>
      </trkpt>
      <trkpt lat="49.33865" lon="1.28184">
        <ele>23</ele>
        <time>2017-06-27T15:10:15Z</time>
      </trkpt>
      <trkpt lat="49.33867" lon="1.28194">
        <ele>23</ele>
        <time>2017-06-27T15:10:15Z</time>
      </trkpt>
      <trkpt lat="49.33871" lon="1.28199">
        <ele>23</ele>
        <time>2017-06-27T15:10:15Z</time>
      </trkpt>
      <trkpt lat="49.33874" lon="1.28203">
        <ele>23</ele>
        <time>2017-06-27T15:10:29Z</time>
      </trkpt>
      <trkpt lat="49.33878" lon="1.2821">
        <ele>37</ele>
        <time>2017-06-27T15:10:29Z</time>
      </trkpt>
      <trkpt lat="49.33879" lon="1.28215">
        <ele>37</ele>
        <time>2017-06-27T15:10:29Z</time>
      </trkpt>
      <trkpt lat="49.33882" lon="1.28219">
        <ele>37</ele>
        <time>2017-06-27T15:10:29Z</time>
      </trkpt>
      <trkpt lat="49.33885" lon="1.28223">
        <ele>37</ele>
        <time>2017-06-27T15:10:44Z</time>
      </trkpt>
      <trkpt lat="49.33887" lon="1.2823">
        <ele>37</ele>
        <time>2017-06-27T15:10:44Z</time>
      </trkpt>
      <trkpt lat="49.33888" lon="1.28241">
        <ele>37</ele>
        <time>2017-06-27T15:10:44Z</time>
      </trkpt>
      <trkpt lat="49.3389" lon="1.2825">
        <ele>37</ele>
        <time>2017-06-27T15:10:44Z</time>
      </trkpt>
      <trkpt lat="49.33895" lon="1.28259">
        <ele>37</ele>
        <time>2017-06-27T15:11:00Z</time>
      </trkpt>
      <trkpt lat="49.33897" lon="1.28266">
        <ele>37</ele>
        <time>2017-06-27T15:11:00Z</time>
      </trkpt>
      <trkpt lat="49.33901" lon="1.28273">
        <ele>37</ele>
        <time>2017-06-27T15:11:00Z</time>
      </trkpt>
      <trkpt lat="49.33903" lon="1.28282">
        <ele>37</ele>
        <time>2017-06-27T15:11:00Z</time>
      </trkpt>
      <trkpt lat="49.33903" lon="1.28288">
        <ele>37</ele>
        <time>2017-06-27T15:11:22Z</time>
      </trkpt>
      <trkpt lat="49.33903" lon="1.28296">
        <ele>30</ele>
        <time>2017-06-27T15:11:22Z</time>
      </trkpt>
      <trkpt lat="49.33907" lon="1.28298">
        <ele>30</ele>
        <time>2017-06-27T15:11:22Z</time>
      </trkpt>
      <trkpt lat="49.33907" lon="1.283">
        <ele>30</ele>
        <time>2017-06-27T15:11:22Z</time>
      </trkpt>
      <trkpt lat="49.3391" lon="1.28307">
        <ele>30</ele>
        <time>2017-06-27T15:11:22Z</time>
      </trkpt>
      <trkpt lat="49.33913" lon="1.28314">
        <ele>30</ele>
        <time>2017-06-27T15:11:37Z</time>
      </trkpt>
      <trkpt lat="49.33916" lon="1.28323">
        <ele>30</ele>
        <time>2017-06-27T15:11:37Z</time>
      </trkpt>
      <trkpt lat="49.33917" lon="1.28329">
        <ele>30</ele>
        <time>2017-06-27T15:11:37Z</time>
      </trkpt>
      <trkpt lat="49.33919" lon="1.28336">
        <ele>30</ele>
        <time>2017-06-27T15:11:37Z</time>
      </trkpt>
      <trkpt lat="49.33921" lon="1.28344">
        <ele>30</ele>
        <time>2017-06-27T15:11:53Z</time>
      </trkpt>
      <trkpt lat="49.33922" lon="1.28346">
        <ele>30</ele>
        <time>2017-06-27T15:11:53Z</time>
      </trkpt>
      <trkpt lat="49.33925" lon="1.2836">
        <ele>30</ele>
        <time>2017-06-27T15:11:53Z</time>
      </trkpt>
      <trkpt lat="49.33927" lon="1.28367">
        <ele>30</ele>
        <time>2017-06-27T15:11:53Z</time>
      </trkpt>
      <trkpt lat="49.3393" lon="1.28377">
        <ele>26</ele>
        <time>2017-06-27T15:12:10Z</time>
      </trkpt>
      <trkpt lat="49.3393" lon="1.28383">
        <ele>26</ele>
        <time>2017-06-27T15:12:10Z</time>
      </trkpt>
      <trkpt lat="49.33932" lon="1.28389">
        <ele>26</ele>
        <time>2017-06-27T15:12:10Z</time>
      </trkpt>
      <trkpt lat="49.33934" lon="1.28401">
        <ele>26</ele>
        <time>2017-06-27T15:12:10Z</time>
      </trkpt>
      <trkpt lat="49.33937" lon="1.28406">
        <ele>26</ele>
        <time>2017-06-27T15:12:25Z</time>
      </trkpt>
      <trkpt lat="49.33937" lon="1.28413">
        <ele>26</ele>
        <time>2017-06-27T15:12:25Z</time>
      </trkpt>
      <trkpt lat="49.33942" lon="1.28424">
        <ele>26</ele>
        <time>2017-06-27T15:12:25Z</time>
      </trkpt>
      <trkpt lat="49.33941" lon="1.2843">
        <ele>26</ele>
        <time>2017-06-27T15:12:25Z</time>
      </trkpt>
      <trkpt lat="49.33944" lon="1.28438">
        <ele>26</ele>
        <time>2017-06-27T15:12:42Z</time>
      </trkpt>
      <trkpt lat="49.33946" lon="1.28446">
        <ele>26</ele>
        <time>2017-06-27T15:12:42Z</time>
      </trkpt>
      <trkpt lat="49.33949" lon="1.28453">
        <ele>26</ele>
        <time>2017-06-27T15:12:42Z</time>
      </trkpt>
      <trkpt lat="49.33951" lon="1.28458">
        <ele>26</ele>
        <time>2017-06-27T15:12:42Z</time>
      </trkpt>
      <trkpt lat="49.33956" lon="1.28465">
        <ele>23</ele>
        <time>2017-06-27T15:12:58Z</time>
      </trkpt>
      <trkpt lat="49.33956" lon="1.28472">
        <ele>23</ele>
        <time>2017-06-27T15:12:58Z</time>
      </trkpt>
      <trkpt lat="49.33959" lon="1.2848">
        <ele>40</ele>
        <time>2017-06-27T15:12:58Z</time>
      </trkpt>
      <trkpt lat="49.3396" lon="1.28489">
        <ele>40</ele>
        <time>2017-06-27T15:12:58Z</time>
      </trkpt>
      <trkpt lat="49.33962" lon="1.28495">
        <ele>40</ele>
        <time>2017-06-27T15:13:14Z</time>
      </trkpt>
      <trkpt lat="49.33963" lon="1.28503">
        <ele>40</ele>
        <time>2017-06-27T15:13:14Z</time>
      </trkpt>
      <trkpt lat="49.33965" lon="1.28511">
        <ele>40</ele>
        <time>2017-06-27T15:13:14Z</time>
      </trkpt>
      <trkpt lat="49.33969" lon="1.28519">
        <ele>40</ele>
        <time>2017-06-27T15:13:14Z</time>
      </trkpt>
      <trkpt lat="49.3397" lon="1.28526">
        <ele>40</ele>
        <time>2017-06-27T15:13:30Z</time>
      </trkpt>
      <trkpt lat="49.33973" lon="1.28534">
        <ele>40</ele>
        <time>2017-06-27T15:13:30Z</time>
      </trkpt>
      <trkpt lat="49.33975" lon="1.28541">
        <ele>40</ele>
        <time>2017-06-27T15:13:30Z</time>
      </trkpt>
      <trkpt lat="49.33978" lon="1.28547">
        <ele>37</ele>
        <time>2017-06-27T15:13:30Z</time>
      </trkpt>
      <trkpt lat="49.33979" lon="1.28555">
        <ele>37</ele>
        <time>2017-06-27T15:13:45Z</time>
      </trkpt>
      <trkpt lat="49.33982" lon="1.28562">
        <ele>37</ele>
        <time>2017-06-27T15:13:45Z</time>
      </trkpt>
      <trkpt lat="49.33985" lon="1.28565">
        <ele>37</ele>
        <time>2017-06-27T15:13:45Z</time>
      </trkpt>
      <trkpt lat="49.33986" lon="1.28572">
        <ele>37</ele>
        <time>2017-06-27T15:13:45Z</time>
      </trkpt>
      <trkpt lat="49.33988" lon="1.2858">
        <ele>37</ele>
        <time>2017-06-27T15:14:00Z</time>
      </trkpt>
      <trkpt lat="49.33989" lon="1.28588">
        <ele>37</ele>
        <time>2017-06-27T15:14:00Z</time>
      </trkpt>
      <trkpt lat="49.33994" lon="1.28594">
        <ele>37</ele>
        <time>2017-06-27T15:14:00Z</time>
      </trkpt>
      <trkpt lat="49.33994" lon="1.28599">
        <ele>37</ele>
        <time>2017-06-27T15:14:00Z</time>
      </trkpt>
      <trkpt lat="49.33996" lon="1.28605">
        <ele>37</ele>
        <time>2017-06-27T15:14:18Z</time>
      </trkpt>
      <trkpt lat="49.33999" lon="1.28612">
        <ele>37</ele>
        <time>2017-06-27T15:14:18Z</time>
      </trkpt>
      <trkpt lat="49.34" lon="1.28623">
        <ele>37</ele>
        <time>2017-06-27T15:14:18Z</time>
      </trkpt>
      <trkpt lat="49.34005" lon="1.2863">
        <ele>30</ele>
        <time>2017-06-27T15:14:18Z</time>
      </trkpt>
      <trkpt lat="49.34009" lon="1.28638">
        <ele>30</ele>
        <time>2017-06-27T15:14:34Z</time>
      </trkpt>
      <trkpt lat="49.34011" lon="1.28645">
        <ele>30</ele>
        <time>2017-06-27T15:14:34Z</time>
      </trkpt>
      <trkpt lat="49.34013" lon="1.28653">
        <ele>30</ele>
        <time>2017-06-27T15:14:34Z</time>
      </trkpt>
      <trkpt lat="49.34015" lon="1.28661">
        <ele>30</ele>
        <time>2017-06-27T15:14:34Z</time>
      </trkpt>
      <trkpt lat="49.34016" lon="1.28667">
        <ele>30</ele>
        <time>2017-06-27T15:14:49Z</time>
      </trkpt>
      <trkpt lat="49.34018" lon="1.28674">
        <ele>30</ele>
        <time>2017-06-27T15:14:49Z</time>
      </trkpt>
      <trkpt lat="49.34021" lon="1.28682">
        <ele>30</ele>
        <time>2017-06-27T15:14:49Z</time>
      </trkpt>
      <trkpt lat="49.34022" lon="1.28688">
        <ele>30</ele>
        <time>2017-06-27T15:14:49Z</time>
      </trkpt>
      <trkpt lat="49.34026" lon="1.28699">
        <ele>30</ele>
        <time>2017-06-27T15:15:05Z</time>
      </trkpt>
      <trkpt lat="49.34026" lon="1.28705">
        <ele>30</ele>
        <time>2017-06-27T15:15:05Z</time>
      </trkpt>
      <trkpt lat="49.34027" lon="1.28711">
        <ele>22</ele>
        <time>2017-06-27T15:15:05Z</time>
      </trkpt>
      <trkpt lat="49.34031" lon="1.2872">
        <ele>22</ele>
        <time>2017-06-27T15:15:05Z</time>
      </trkpt>
      <trkpt lat="49.34034" lon="1.28729">
        <ele>22</ele>
        <time>2017-06-27T15:15:21Z</time>
      </trkpt>
      <trkpt lat="49.34034" lon="1.28738">
        <ele>22</ele>
        <time>2017-06-27T15:15:21Z</time>
      </trkpt>
      <trkpt lat="49.34035" lon="1.28743">
        <ele>22</ele>
        <time>2017-06-27T15:15:21Z</time>
      </trkpt>
      <trkpt lat="49.34036" lon="1.28747">
        <ele>22</ele>
        <time>2017-06-27T15:15:21Z</time>
      </trkpt>
      <trkpt lat="49.3404" lon="1.28758">
        <ele>22</ele>
        <time>2017-06-27T15:15:38Z</time>
      </trkpt>
      <trkpt lat="49.34042" lon="1.28764">
        <ele>47</ele>
        <time>2017-06-27T15:15:38Z</time>
      </trkpt>
      <trkpt lat="49.34045" lon="1.28773">
        <ele>47</ele>
        <time>2017-06-27T15:15:38Z</time>
      </trkpt>
      <trkpt lat="49.34048" lon="1.28778">
        <ele>47</ele>
        <time>2017-06-27T15:15:38Z</time>
      </trkpt>
      <trkpt lat="49.34049" lon="1.28784">
        <ele>47</ele>
        <time>2017-06-27T15:15:53Z</time>
      </trkpt>
      <trkpt lat="49.3405" lon="1.28792">
        <ele>42</ele>
        <time>2017-06-27T15:15:53Z</time>
      </trkpt>
      <trkpt lat="49.34053" lon="1.28796">
        <ele>42</ele>
        <time>2017-06-27T15:15:53Z</time>
      </trkpt>
      <trkpt lat="49.34054" lon="1.28802">
        <ele>42</ele>
        <time>2017-06-27T15:15:53Z</time>
      </trkpt>
      <trkpt lat="49.34058" lon="1.28814">
        <ele>42</ele>
        <time>2017-06-27T15:16:09Z</time>
      </trkpt>
      <trkpt lat="49.34062" lon="1.28823">
        <ele>42</ele>
        <time>2017-06-27T15:16:09Z</time>
      </trkpt>
      <trkpt lat="49.34064" lon="1.28831">
        <ele>42</ele>
        <time>2017-06-27T15:16:09Z</time>
      </trkpt>
      <trkpt lat="49.34065" lon="1.28839">
        <ele>42</ele>
        <time>2017-06-27T15:16:09Z</time>
      </trkpt>
      <trkpt lat="49.34066" lon="1.2885">
        <ele>42</ele>
        <time>2017-06-27T15:16:26Z</time>
      </trkpt>
      <trkpt lat="49.34068" lon="1.28855">
        <ele>42</ele>
        <time>2017-06-27T15:16:26Z</time>
      </trkpt>
      <trkpt lat="49.3407" lon="1.28862">
        <ele>42</ele>
        <time>2017-06-27T15:16:26Z</time>
      </trkpt>
      <trkpt lat="49.34072" lon="1.28871">
        <ele>42</ele>
        <time>2017-06-27T15:16:26Z</time>
      </trkpt>
      <trkpt lat="49.34073" lon="1.28878">
        <ele>34</ele>
        <time>2017-06-27T15:16:42Z</time>
      </trkpt>
      <trkpt lat="49.34077" lon="1.28885">
        <ele>34</ele>
        <time>2017-06-27T15:16:42Z</time>
      </trkpt>
      <trkpt lat="49.34076" lon="1.28893">
        <ele>34</ele>
        <time>2017-06-27T15:16:42Z</time>
      </trkpt>
      <trkpt lat="49.34078" lon="1.289">
        <ele>34</ele>
        <time>2017-06-27T15:16:42Z</time>
      </trkpt>
      <trkpt lat="49.34078" lon="1.28909">
        <ele>34</ele>
        <time>2017-06-27T15:16:57Z</time>
      </trkpt>
      <trkpt lat="49.34079" lon="1.28913">
        <ele>34</ele>
        <time>2017-06-27T15:16:57Z</time>
      </trkpt>
      <trkpt lat="49.34082" lon="1.28922">
        <ele>34</ele>
        <time>2017-06-27T15:16:57Z</time>
      </trkpt>
      <trkpt lat="49.34082" lon="1.28935">
        <ele>34</ele>
        <time>2017-06-27T15:16:57Z</time>
      </trkpt>
      <trkpt lat="49.34084" lon="1.28942">
        <ele>34</ele>
        <time>2017-06-27T15:17:13Z</time>
      </trkpt>
      <trkpt lat="49.34086" lon="1.28948">
        <ele>34</ele>
        <time>2017-06-27T15:17:13Z</time>
      </trkpt>
      <trkpt lat="49.34089" lon="1.28954">
        <ele>34</ele>
        <time>2017-06-27T15:17:13Z</time>
      </trkpt>
      <trkpt lat="49.34092" lon="1.28966">
        <ele>27</ele>
        <time>2017-06-27T15:17:13Z</time>
      </trkpt>
      <trkpt lat="49.34095" lon="1.28968">
        <ele>27</ele>
        <time>2017-06-27T15:17:29Z</time>
      </trkpt>
      <trkpt lat="49.34098" lon="1.28974">
        <ele>27</ele>
        <time>2017-06-27T15:17:29Z</time>
      </trkpt>
      <trkpt lat="49.34099" lon="1.28983">
        <ele>27</ele>
        <time>2017-06-27T15:17:29Z</time>
      </trkpt>
      <trkpt lat="49.34101" lon="1.28991">
        <ele>27</ele>
        <time>2017-06-27T15:17:29Z</time>
      </trkpt>
      <trkpt lat="49.34103" lon="1.29003">
        <ele>27</ele>
        <time>2017-06-27T15:17:44Z</time>
      </trkpt>
      <trkpt lat="49.34104" lon="1.29008">
        <ele>27</ele>
        <time>2017-06-27T15:17:44Z</time>
      </trkpt>
      <trkpt lat="49.34105" lon="1.29017">
        <ele>27</ele>
        <time>2017-06-27T15:17:44Z</time>
      </trkpt>
      <trkpt lat="49.34105" lon="1.29025">
        <ele>27</ele>
        <time>2017-06-27T15:17:44Z</time>
      </trkpt>
      <trkpt lat="49.34106" lon="1.29034">
        <ele>27</ele>
        <time>2017-06-27T15:18:02Z</time>
      </trkpt>
      <trkpt lat="49.34109" lon="1.29041">
        <ele>27</ele>
        <time>2017-06-27T15:18:02Z</time>
      </trkpt>
      <trkpt lat="49.34112" lon="1.2905">
        <ele>21</ele>
        <time>2017-06-27T15:18:02Z</time>
      </trkpt>
      <trkpt lat="49.34114" lon="1.29059">
        <ele>21</ele>
        <time>2017-06-27T15:18:02Z</time>
      </trkpt>
      <trkpt lat="49.34118" lon="1.29067">
        <ele>21</ele>
        <time>2017-06-27T15:18:17Z</time>
      </trkpt>
      <trkpt lat="49.34117" lon="1.29072">
        <ele>21</ele>
        <time>2017-06-27T15:18:17Z</time>
      </trkpt>
      <trkpt lat="49.34122" lon="1.2908">
        <ele>21</ele>
        <time>2017-06-27T15:18:17Z</time>
      </trkpt>
      <trkpt lat="49.34127" lon="1.29089">
        <ele>44</ele>
        <time>2017-06-27T15:18:17Z</time>
      </trkpt>
      <trkpt lat="49.34128" lon="1.29093">
        <ele>44</ele>
        <time>2017-06-27T15:18:35Z</time>
      </trkpt>
      <trkpt lat="49.34131" lon="1.29103">
        <ele>44</ele>
        <time>2017-06-27T15:18:35Z</time>
      </trkpt>
      <trkpt lat="49.34131" lon="1.2911">
        <ele>44</ele>
        <time>2017-06-27T15:18:35Z</time>
      </trkpt>
      <trkpt lat="49.34134" lon="1.29118">
        <ele>44</ele>
        <time>2017-06-27T15:18:35Z</time>
      </trkpt>
      <trkpt lat="49.34135" lon="1.29121">
        <ele>44</ele>
        <time>2017-06-27T15:18:49Z</time>
      </trkpt>
      <trkpt lat="49.34136" lon="1.29129">
        <ele>35</ele>
        <time>2017-06-27T15:18:49Z</time>
      </trkpt>
      <trkpt lat="49.3414" lon="1.29142">
        <ele>35</ele>
        <time>2017-06-27T15:18:49Z</time>
      </trkpt>
      <trkpt lat="49.34141" lon="1.29148">
        <ele>35</ele>
        <time>2017-06-27T15:18:49Z</time>
      </trkpt>
      <trkpt lat="49.34142" lon="1.29154">
        <ele>35</ele>
        <time>2017-06-27T15:19:04Z</time>
      </trkpt>
      <trkpt lat="49.34144" lon="1.29163">
        <ele>35</ele>
        <time>2017-06-27T15:19:04Z</time>
      </trkpt>
      <trkpt lat="49.34146" lon="1.2917">
        <ele>35</ele>
        <time>2017-06-27T15:19:04Z</time>
      </trkpt>
      <trkpt lat="49.34151" lon="1.29178">
        <ele>35</ele>
        <time>2017-06-27T15:19:04Z</time>
      </trkpt>
      <trkpt lat="49.34151" lon="1.29186">
        <ele>35</ele>
        <time>2017-06-27T15:19:21Z</time>
      </trkpt>
      <trkpt lat="49.34151" lon="1.29191">
        <ele>35</ele>
        <time>2017-06-27T15:19:21Z</time>
      </trkpt>
      <trkpt lat="49.34153" lon="1.29196">
        <ele>35</ele>
        <time>2017-06-27T15:19:21Z</time>
      </trkpt>
      <trkpt lat="49.34156" lon="1.29204">
        <ele>35</ele>
        <time>2017-06-27T15:19:21Z</time>
      </trkpt>
      <trkpt lat="49.34156" lon="1.29209">
        <ele>28</ele>
        <time>2017-06-27T15:19:37Z</time>
      </trkpt>
      <trkpt lat="49.34158" lon="1.29217">
        <ele>28</ele>
        <time>2017-06-27T15:19:37Z</time>
      </trkpt>
      <trkpt lat="49.34161" lon="1.29227">
        <ele>28</ele>
        <time>2017-06-27T15:19:37Z</time>
      </trkpt>
      <trkpt lat="49.34161" lon="1.29234">
        <ele>28</ele>
        <time>2017-06-27T15:19:37Z</time>
      </trkpt>
      <trkpt lat="49.34166" lon="1.29245">
        <ele>28</ele>
        <time>2017-06-27T15:19:55Z</time>
      </trkpt>
      <trkpt lat="49.34169" lon="1.29252">
        <ele>28</ele>
        <time>2017-06-27T15:19:55Z</time>
      </trkpt>
      <trkpt lat="49.3417" lon="1.29255">
        <ele>28</ele>
        <time>2017-06-27T15:19:55Z</time>
      </trkpt>
      <trkpt lat="49.34173" lon="1.29265">
        <ele>28</ele>
        <time>2017-06-27T15:19:55Z</time>
      </trkpt>
      <trkpt lat="49.34174" lon="1.29271">
        <ele>28</ele>
        <time>2017-06-27T15:20:08Z</time>
      </trkpt>
      <trkpt lat="49.34177" lon="1.29278">
        <ele>28</ele>
        <time>2017-06-27T15:20:08Z</time>
      </trkpt>
      <trkpt lat="49.34181" lon="1.29284">
        <ele>28</ele>
        <time>2017-06-27T15:20:08Z</time>
      </trkpt>
      <trkpt lat="49.34184" lon="1.29291">
        <ele>28</ele>
        <time>2017-06-27T15:20:08Z</time>
      </trkpt>
      <trkpt lat="49.34186" lon="1.29295">
        <ele>22</ele>
        <time>2017-06-27T15:20:27Z</time>
      </trkpt>
      <trkpt lat="49.3419" lon="1.29305">
        <ele>22</ele>
        <time>2017-06-27T15:20:27Z</time>
      </trkpt>
      <trkpt lat="49.34191" lon="1.29309">
        <ele>22</ele>
        <time>2017-06-27T15:20:27Z</time>
      </trkpt>
      <trkpt lat="49.34198" lon="1.29323">
        <ele>22</ele>
        <time>2017-06-27T15:20:27Z</time>
      </trkpt>
      <trkpt lat="49.34202" lon="1.29328">
        <ele>22</ele>
        <time>2017-06-27T15:20:42Z</time>
      </trkpt>
      <trkpt lat="49.34205" lon="1.29335">
        <ele>22</ele>
        <time>2017-06-27T15:20:42Z</time>
      </trkpt>
      <trkpt lat="49.34209" lon="1.29342">
        <ele>41</ele>
        <time>2017-06-27T15:20:42Z</time>
      </trkpt>
      <trkpt lat="49.34215" lon="1.29349">
        <ele>41</ele>
        <time>2017-06-27T15:20:42Z</time>
      </trkpt>
      <trkpt lat="49.34216" lon="1.29355">
        <ele>41</ele>
        <time>2017-06-27T15:20:58Z</time>
      </trkpt>
      <trkpt lat="49.34218" lon="1.2936">
        <ele>41</ele>
        <time>2017-06-27T15:20:58Z</time>
      </trkpt>
      <trkpt lat="49.34224" lon="1.29366">
        <ele>41</ele>
        <time>2017-06-27T15:20:58Z</time>
      </trkpt>
      <trkpt lat="49.34224" lon="1.2937">
        <ele>41</ele>
        <time>2017-06-27T15:20:58Z</time>
      </trkpt>
      <trkpt lat="49.34227" lon="1.29375">
        <ele>31</ele>
        <time>2017-06-27T15:21:15Z</time>
      </trkpt>
      <trkpt lat="49.34229" lon="1.2938">
        <ele>31</ele>
        <time>2017-06-27T15:21:15Z</time>
      </trkpt>
      <trkpt lat="49.3423" lon="1.29387">
        <ele>31</ele>
        <time>2017-06-27T15:21:15Z</time>
      </trkpt>
      <trkpt lat="49.34234" lon="1.29397">
        <ele>31</ele>
        <time>2017-06-27T15:21:15Z</time>
      </trkpt>
      <trkpt lat="49.34237" lon="1.29405">
        <ele>31</ele>
        <time>2017-06-27T15:21:29Z</time>
      </trkpt>
      <trkpt lat="49.34243" lon="1.29412">
        <ele>31</ele>
        <time>2017-06-27T15:21:29Z</time>
      </trkpt>
      <trkpt lat="49.34243" lon="1.29416">
        <ele>31</ele>
        <time>2017-06-27T15:21:29Z</time>
      </trkpt>
      <trkpt lat="49.34247" lon="1.2942">
        <ele>31</ele>
        <time>2017-06-27T15:21:29Z</time>
      </trkpt>
      <trkpt lat="49.3425" lon="1.29424">
        <ele>31</ele>
        <time>2017-06-27T15:21:45Z</time>
      </trkpt>
      <trkpt lat="49.34253" lon="1.29434">
        <ele>31</ele>
        <time>2017-06-27T15:21:45Z</time>
      </trkpt>
      <trkpt lat="49.34256" lon="1.29444">
        <ele>31</ele>
        <time>2017-06-27T15:21:45Z</time>
      </trkpt>
      <trkpt lat="49.34257" lon="1.29447">
        <ele>31</ele>
        <time>2017-06-27T15:21:45Z</time>
      </trkpt>
      <trkpt lat="49.34262" lon="1.29451">
        <ele>31</ele>
        <time>2017-06-27T15:22:02Z</time>
      </trkpt>
      <trkpt lat="49.3426" lon="1.29454">
        <ele>31</ele>
        <time>2017-06-27T15:22:02Z</time>
      </trkpt>
      <trkpt lat="49.34262" lon="1.29459">
        <ele>22</ele>
        <time>2017-06-27T15:22:02Z</time>
      </trkpt>
      <trkpt lat="49.3427" lon="1.29466">
        <ele>22</ele>
        <time>2017-06-27T15:22:02Z</time>
      </trkpt>
      <trkpt lat="49.34275" lon="1.29475">
        <ele>22</ele>
        <time>2017-06-27T15:22:32Z</time>
      </trkpt>
      <trkpt lat="49.34276" lon="1.29476">
        <ele>22</ele>
        <time>2017-06-27T15:22:32Z</time>
      </trkpt>
      <trkpt lat="49.34278" lon="1.2948">
        <ele>22</ele>
        <time>2017-06-27T15:22:32Z</time>
      </trkpt>
      <trkpt lat="49.34278" lon="1.29486">
        <ele>22</ele>
        <time>2017-06-27T15:22:32Z</time>
      </trkpt>
      <trkpt lat="49.34283" lon="1.29493">
        <ele>22</ele>
        <time>2017-06-27T15:22:32Z</time>
      </trkpt>
      <trkpt lat="49.34289" lon="1.295">
        <ele>22</ele>
        <time>2017-06-27T15:22:49Z</time>
      </trkpt>
      <trkpt lat="49.34292" lon="1.29503">
        <ele>37</ele>
        <time>2017-06-27T15:22:49Z</time>
      </trkpt>
      <trkpt lat="49.34297" lon="1.29509">
        <ele>37</ele>
        <time>2017-06-27T15:22:49Z</time>
      </trkpt>
      <trkpt lat="49.34297" lon="1.29513">
        <ele>37</ele>
        <time>2017-06-27T15:22:49Z</time>
      </trkpt>
      <trkpt lat="49.34304" lon="1.29515">
        <ele>37</ele>
        <time>2017-06-27T15:24:05Z</time>
      </trkpt>
      <trkpt lat="49.34305" lon="1.29514">
        <ele>37</ele>
        <time>2017-06-27T15:24:05Z</time>
      </trkpt>
      <trkpt lat="49.34307" lon="1.29518">
        <ele>37</ele>
        <time>2017-06-27T15:24:05Z</time>
      </trkpt>
      <trkpt lat="49.34307" lon="1.2952">
        <ele>37</ele>
        <time>2017-06-27T15:24:05Z</time>
      </trkpt>
      <trkpt lat="49.34308" lon="1.2952">
        <ele>37</ele>
        <time>2017-06-27T15:24:05Z</time>
      </trkpt>
      <trkpt lat="49.34309" lon="1.29523">
        <ele>37</ele>
        <time>2017-06-27T15:24:20Z</time>
      </trkpt>
      <trkpt lat="49.34312" lon="1.29528">
        <ele>37</ele>
        <time>2017-06-27T15:24:20Z</time>
      </trkpt>
      <trkpt lat="49.34315" lon="1.29531">
        <ele>37</ele>
        <time>2017-06-27T15:24:20Z</time>
      </trkpt>
      <trkpt lat="49.34319" lon="1.29537">
        <ele>37</ele>
        <time>2017-06-27T15:24:20Z</time>
      </trkpt>
      <trkpt lat="49.34322" lon="1.29541">
        <ele>37</ele>
        <time>2017-06-27T15:24:38Z</time>
      </trkpt>
      <trkpt lat="49.34328" lon="1.29548">
        <ele>26</ele>
        <time>2017-06-27T15:24:38Z</time>
      </trkpt>
      <trkpt lat="49.34331" lon="1.29554">
        <ele>26</ele>
        <time>2017-06-27T15:24:39Z</time>
      </trkpt>
      <trkpt lat="49.34335" lon="1.29559">
        <ele>26</ele>
        <time>2017-06-27T15:24:39Z</time>
      </trkpt>
      <trkpt lat="49.34338" lon="1.29565">
        <ele>26</ele>
        <time>2017-06-27T15:25:00Z</time>
      </trkpt>
      <trkpt lat="49.34338" lon="1.29565">
        <ele>26</ele>
        <time>2017-06-27T15:25:00Z</time>
      </trkpt>
      <trkpt lat="49.34341" lon="1.29565">
        <ele>26</ele>
        <time>2017-06-27T15:25:00Z</time>
      </trkpt>
      <trkpt lat="49.34343" lon="1.29567">
        <ele>26</ele>
        <time>2017-06-27T15:25:00Z</time>
      </trkpt>
      <trkpt lat="49.34347" lon="1.29572">
        <ele>26</ele>
        <time>2017-06-27T15:25:00Z</time>
      </trkpt>
      <trkpt lat="49.34347" lon="1.29575">
        <ele>26</ele>
        <time>2017-06-27T15:25:16Z</time>
      </trkpt>
      <trkpt lat="49.34352" lon="1.29579">
        <ele>26</ele>
        <time>2017-06-27T15:25:16Z</time>
      </trkpt>
      <trkpt lat="49.34358" lon="1.29585">
        <ele>26</ele>
        <time>2017-06-27T15:25:16Z</time>
      </trkpt>
      <trkpt lat="49.3436" lon="1.29589">
        <ele>26</ele>
        <time>2017-06-27T15:25:16Z</time>
      </trkpt>
      <trkpt lat="49.34362" lon="1.29593">
        <ele>26</ele>
        <time>2017-06-27T15:25:32Z</time>
      </trkpt>
      <trkpt lat="49.34363" lon="1.29601">
        <ele>26</ele>
        <time>2017-06-27T15:25:32Z</time>
      </trkpt>
      <trkpt lat="49.34366" lon="1.29605">
        <ele>26</ele>
        <time>2017-06-27T15:25:32Z</time>
      </trkpt>
      <trkpt lat="49.34374" lon="1.29608">
        <ele>26</ele>
        <time>2017-06-27T15:25:32Z</time>
      </trkpt>
      <trkpt lat="49.34378" lon="1.2961">
        <ele>43</ele>
        <time>2017-06-27T15:25:48Z</time>
      </trkpt>
      <trkpt lat="49.34379" lon="1.29613">
        <ele>43</ele>
        <time>2017-06-27T15:25:48Z</time>
      </trkpt>
      <trkpt lat="49.34381" lon="1.29616">
        <ele>43</ele>
        <time>2017-06-27T15:25:48Z</time>
      </trkpt>
      <trkpt lat="49.34391" lon="1.29627">
        <ele>30</ele>
        <time>2017-06-27T15:25:48Z</time>
      </trkpt>
      <trkpt lat="49.34398" lon="1.29626">
        <ele>30</ele>
        <time>2017-06-27T15:26:54Z</time>
      </trkpt>
      <trkpt lat="49.34398" lon="1.29626">
        <ele>30</ele>
        <time>2017-06-27T15:26:54Z</time>
      </trkpt>
      <trkpt lat="49.34398" lon="1.29626">
        <ele>30</ele>
        <time>2017-06-27T15:26:54Z</time>
      </trkpt>
      <trkpt lat="49.34398" lon="1.29626">
        <ele>30</ele>
        <time>2017-06-27T15:26:54Z</time>
      </trkpt>
      <trkpt lat="49.34404" lon="1.2963">
        <ele>30</ele>
        <time>2017-06-27T15:26:54Z</time>
      </trkpt>
      <trkpt lat="49.34407" lon="1.29634">
        <ele>30</ele>
        <time>2017-06-27T15:27:09Z</time>
      </trkpt>
      <trkpt lat="49.34413" lon="1.29635">
        <ele>30</ele>
        <time>2017-06-27T15:27:09Z</time>
      </trkpt>
      <trkpt lat="49.34417" lon="1.29644">
        <ele>30</ele>
        <time>2017-06-27T15:27:09Z</time>
      </trkpt>
      <trkpt lat="49.34421" lon="1.29647">
        <ele>30</ele>
        <time>2017-06-27T15:27:09Z</time>
      </trkpt>
      <trkpt lat="49.34427" lon="1.29654">
        <ele>30</ele>
        <time>2017-06-27T15:27:25Z</time>
      </trkpt>
      <trkpt lat="49.3443" lon="1.29657">
        <ele>30</ele>
        <time>2017-06-27T15:27:25Z</time>
      </trkpt>
      <trkpt lat="49.34434" lon="1.29661">
        <ele>30</ele>
        <time>2017-06-27T15:27:25Z</time>
      </trkpt>
      <trkpt lat="49.34438" lon="1.29662">
        <ele>30</ele>
        <time>2017-06-27T15:27:25Z</time>
      </trkpt>
      <trkpt lat="49.34442" lon="1.29662">
        <ele>30</ele>
        <time>2017-06-27T15:27:42Z</time>
      </trkpt>
      <trkpt lat="49.34446" lon="1.29665">
        <ele>30</ele>
        <time>2017-06-27T15:27:42Z</time>
      </trkpt>
      <trkpt lat="49.3445" lon="1.29667">
        <ele>30</ele>
        <time>2017-06-27T15:27:42Z</time>
      </trkpt>
      <trkpt lat="49.34458" lon="1.29675">
        <ele>30</ele>
        <time>2017-06-27T15:27:42Z</time>
      </trkpt>
      <trkpt lat="49.34459" lon="1.2968">
        <ele>49</ele>
        <time>2017-06-27T15:27:58Z</time>
      </trkpt>
      <trkpt lat="49.34464" lon="1.29684">
        <ele>49</ele>
        <time>2017-06-27T15:27:58Z</time>
      </trkpt>
      <trkpt lat="49.34469" lon="1.29689">
        <ele>49</ele>
        <time>2017-06-27T15:27:58Z</time>
      </trkpt>
      <trkpt lat="49.3447" lon="1.29698">
        <ele>49</ele>
        <time>2017-06-27T15:27:58Z</time>
      </trkpt>
      <trkpt lat="49.34469" lon="1.297">
        <ele>49</ele>
        <time>2017-06-27T15:28:12Z</time>
      </trkpt>
      <trkpt lat="49.34472" lon="1.29706">
        <ele>49</ele>
        <time>2017-06-27T15:28:12Z</time>
      </trkpt>
      <trkpt lat="49.34477" lon="1.2971">
        <ele>32</ele>
        <time>2017-06-27T15:28:12Z</time>
      </trkpt>
      <trkpt lat="49.34481" lon="1.29714">
        <ele>32</ele>
        <time>2017-06-27T15:28:12Z</time>
      </trkpt>
      <trkpt lat="49.34488" lon="1.29717">
        <ele>32</ele>
        <time>2017-06-27T15:28:30Z</time>
      </trkpt>
      <trkpt lat="49.34496" lon="1.29724">
        <ele>32</ele>
        <time>2017-06-27T15:28:30Z</time>
      </trkpt>
      <trkpt lat="49.34498" lon="1.29728">
        <ele>32</ele>
        <time>2017-06-27T15:28:30Z</time>
      </trkpt>
      <trkpt lat="49.34502" lon="1.29735">
        <ele>32</ele>
        <time>2017-06-27T15:28:31Z</time>
      </trkpt>
      <trkpt lat="49.34505" lon="1.29737">
        <ele>32</ele>
        <time>2017-06-27T15:28:48Z</time>
      </trkpt>
      <trkpt lat="49.34506" lon="1.29741">
        <ele>32</ele>
        <time>2017-06-27T15:28:48Z</time>
      </trkpt>
      <trkpt lat="49.34507" lon="1.29744">
        <ele>32</ele>
        <time>2017-06-27T15:28:48Z</time>
      </trkpt>
      <trkpt lat="49.34508" lon="1.29748">
        <ele>32</ele>
        <time>2017-06-27T15:28:48Z</time>
      </trkpt>
      <trkpt lat="49.3451" lon="1.29751">
        <ele>32</ele>
        <time>2017-06-27T15:28:48Z</time>
      </trkpt>
      <trkpt lat="49.34513" lon="1.29756">
        <ele>32</ele>
        <time>2017-06-27T15:29:04Z</time>
      </trkpt>
      <trkpt lat="49.34516" lon="1.29753">
        <ele>32</ele>
        <time>2017-06-27T15:29:04Z</time>
      </trkpt>
      <trkpt lat="49.3452" lon="1.2976">
        <ele>32</ele>
        <time>2017-06-27T15:29:04Z</time>
      </trkpt>
      <trkpt lat="49.34523" lon="1.29764">
        <ele>32</ele>
        <time>2017-06-27T15:29:04Z</time>
      </trkpt>
      <trkpt lat="49.34527" lon="1.29769">
        <ele>32</ele>
        <time>2017-06-27T15:29:20Z</time>
      </trkpt>
      <trkpt lat="49.34531" lon="1.29769">
        <ele>32</ele>
        <time>2017-06-27T15:29:20Z</time>
      </trkpt>
      <trkpt lat="49.34537" lon="1.29775">
        <ele>32</ele>
        <time>2017-06-27T15:29:20Z</time>
      </trkpt>
      <trkpt lat="49.34539" lon="1.29777">
        <ele>32</ele>
        <time>2017-06-27T15:29:20Z</time>
      </trkpt>
      <trkpt lat="49.34542" lon="1.29782">
        <ele>54</ele>
        <time>2017-06-27T15:29:36Z</time>
      </trkpt>
      <trkpt lat="49.34549" lon="1.29788">
        <ele>54</ele>
        <time>2017-06-27T15:29:36Z</time>
      </trkpt>
      <trkpt lat="49.34551" lon="1.29795">
        <ele>32</ele>
        <time>2017-06-27T15:29:36Z</time>
      </trkpt>
      <trkpt lat="49.34555" lon="1.29795">
        <ele>32</ele>
        <time>2017-06-27T15:29:36Z</time>
      </trkpt>
      <trkpt lat="49.34567" lon="1.29802">
        <ele>32</ele>
        <time>2017-06-27T15:30:04Z</time>
      </trkpt>
      <trkpt lat="49.34568" lon="1.29805">
        <ele>32</ele>
        <time>2017-06-27T15:30:04Z</time>
      </trkpt>
      <trkpt lat="49.3457" lon="1.29805">
        <ele>32</ele>
        <time>2017-06-27T15:30:04Z</time>
      </trkpt>
      <trkpt lat="49.34571" lon="1.29805">
        <ele>32</ele>
        <time>2017-06-27T15:30:04Z</time>
      </trkpt>
      <trkpt lat="49.34571" lon="1.29806">
        <ele>32</ele>
        <time>2017-06-27T15:30:05Z</time>
      </trkpt>
      <trkpt lat="49.34578" lon="1.29818">
        <ele>32</ele>
        <time>2017-06-27T15:30:22Z</time>
      </trkpt>
      <trkpt lat="49.34589" lon="1.29824">
        <ele>32</ele>
        <time>2017-06-27T15:30:22Z</time>
      </trkpt>
      <trkpt lat="49.34595" lon="1.29829">
        <ele>32</ele>
        <time>2017-06-27T15:30:22Z</time>
      </trkpt>
      <trkpt lat="49.34598" lon="1.29836">
        <ele>32</ele>
        <time>2017-06-27T15:30:22Z</time>
      </trkpt>
      <trkpt lat="49.34599" lon="1.29839">
        <ele>32</ele>
        <time>2017-06-27T15:30:38Z</time>
      </trkpt>
      <trkpt lat="49.34604" lon="1.29843">
        <ele>32</ele>
        <time>2017-06-27T15:30:38Z</time>
      </trkpt>
      <trkpt lat="49.34605" lon="1.29848">
        <ele>32</ele>
        <time>2017-06-27T15:30:38Z</time>
      </trkpt>
      <trkpt lat="49.34611" lon="1.2985">
        <ele>32</ele>
        <time>2017-06-27T15:30:38Z</time>
      </trkpt>
      <trkpt lat="49.34615" lon="1.29854">
        <ele>32</ele>
        <time>2017-06-27T15:30:54Z</time>
      </trkpt>
      <trkpt lat="49.34616" lon="1.2986">
        <ele>32</ele>
        <time>2017-06-27T15:30:54Z</time>
      </trkpt>
      <trkpt lat="49.34621" lon="1.29863">
        <ele>32</ele>
        <time>2017-06-27T15:30:55Z</time>
      </trkpt>
      <trkpt lat="49.34622" lon="1.29869">
        <ele>32</ele>
        <time>2017-06-27T15:30:55Z</time>
      </trkpt>
      <trkpt lat="49.34626" lon="1.29872">
        <ele>55</ele>
        <time>2017-06-27T15:31:08Z</time>
      </trkpt>
      <trkpt lat="49.3463" lon="1.29881">
        <ele>37</ele>
        <time>2017-06-27T15:31:08Z</time>
      </trkpt>
      <trkpt lat="49.34631" lon="1.29889">
        <ele>37</ele>
        <time>2017-06-27T15:31:08Z</time>
      </trkpt>
      <trkpt lat="49.3464" lon="1.2989">
        <ele>37</ele>
        <time>2017-06-27T15:31:08Z</time>
      </trkpt>
      <trkpt lat="49.34645" lon="1.29894">
        <ele>37</ele>
        <time>2017-06-27T15:31:25Z</time>
      </trkpt>
      <trkpt lat="49.3465" lon="1.29898">
        <ele>37</ele>
        <time>2017-06-27T15:31:25Z</time>
      </trkpt>
      <trkpt lat="49.34658" lon="1.29899">
        <ele>37</ele>
        <time>2017-06-27T15:31:25Z</time>
      </trkpt>
      <trkpt lat="49.34659" lon="1.29905">
        <ele>37</ele>
        <time>2017-06-27T15:31:25Z</time>
      </trkpt>
      <trkpt lat="49.34663" lon="1.29908">
        <ele>37</ele>
        <time>2017-06-27T15:31:41Z</time>
      </trkpt>
      <trkpt lat="49.34668" lon="1.29914">
        <ele>37</ele>
        <time>2017-06-27T15:31:41Z</time>
      </trkpt>
      <trkpt lat="49.34672" lon="1.29917">
        <ele>37</ele>
        <time>2017-06-27T15:31:41Z</time>
      </trkpt>
      <trkpt lat="49.34675" lon="1.29921">
        <ele>37</ele>
        <time>2017-06-27T15:31:41Z</time>
      </trkpt>
      <trkpt lat="49.34677" lon="1.29926">
        <ele>37</ele>
        <time>2017-06-27T15:31:57Z</time>
      </trkpt>
      <trkpt lat="49.34684" lon="1.29934">
        <ele>37</ele>
        <time>2017-06-27T15:31:57Z</time>
      </trkpt>
      <trkpt lat="49.34688" lon="1.2994">
        <ele>37</ele>
        <time>2017-06-27T15:31:57Z</time>
      </trkpt>
      <trkpt lat="49.3469" lon="1.29947">
        <ele>37</ele>
        <time>2017-06-27T15:31:57Z</time>
      </trkpt>
      <trkpt lat="49.34694" lon="1.29953">
        <ele>37</ele>
        <time>2017-06-27T15:32:12Z</time>
      </trkpt>
      <trkpt lat="49.34697" lon="1.29963">
        <ele>24</ele>
        <time>2017-06-27T15:32:12Z</time>
      </trkpt>
      <trkpt lat="49.347" lon="1.2997">
        <ele>24</ele>
        <time>2017-06-27T15:32:12Z</time>
      </trkpt>
      <trkpt lat="49.34702" lon="1.29975">
        <ele>24</ele>
        <time>2017-06-27T15:32:12Z</time>
      </trkpt>
      <trkpt lat="49.34703" lon="1.29983">
        <ele>24</ele>
        <time>2017-06-27T15:32:33Z</time>
      </trkpt>
      <trkpt lat="49.34704" lon="1.29989">
        <ele>24</ele>
        <time>2017-06-27T15:32:33Z</time>
      </trkpt>
      <trkpt lat="49.34704" lon="1.29989">
        <ele>24</ele>
        <time>2017-06-27T15:32:34Z</time>
      </trkpt>
      <trkpt lat="49.34705" lon="1.29991">
        <ele>24</ele>
        <time>2017-06-27T15:32:34Z</time>
      </trkpt>
      <trkpt lat="49.34711" lon="1.30005">
        <ele>46</ele>
        <time>2017-06-27T15:32:34Z</time>
      </trkpt>
      <trkpt lat="49.34715" lon="1.30009">
        <ele>46</ele>
        <time>2017-06-27T15:32:50Z</time>
      </trkpt>
      <trkpt lat="49.34716" lon="1.30013">
        <ele>46</ele>
        <time>2017-06-27T15:32:50Z</time>
      </trkpt>
      <trkpt lat="49.34719" lon="1.30019">
        <ele>46</ele>
        <time>2017-06-27T15:32:50Z</time>
      </trkpt>
      <trkpt lat="49.34724" lon="1.30027">
        <ele>46</ele>
        <time>2017-06-27T15:32:50Z</time>
      </trkpt>
      <trkpt lat="49.34726" lon="1.30035">
        <ele>46</ele>
        <time>2017-06-27T15:33:13Z</time>
      </trkpt>
      <trkpt lat="49.34728" lon="1.30036">
        <ele>46</ele>
        <time>2017-06-27T15:33:13Z</time>
      </trkpt>
      <trkpt lat="49.3473" lon="1.30038">
        <ele>46</ele>
        <time>2017-06-27T15:33:13Z</time>
      </trkpt>
      <trkpt lat="49.34732" lon="1.30044">
        <ele>32</ele>
        <time>2017-06-27T15:33:13Z</time>
      </trkpt>
      <trkpt lat="49.34734" lon="1.30048">
        <ele>32</ele>
        <time>2017-06-27T15:33:13Z</time>
      </trkpt>
      <trkpt lat="49.34734" lon="1.30053">
        <ele>32</ele>
        <time>2017-06-27T15:34:52Z</time>
      </trkpt>
      <trkpt lat="49.34737" lon="1.30054">
        <ele>32</ele>
        <time>2017-06-27T15:34:52Z</time>
      </trkpt>
      <trkpt lat="49.34738" lon="1.30055">
        <ele>32</ele>
        <time>2017-06-27T15:34:52Z</time>
      </trkpt>
      <trkpt lat="49.34741" lon="1.30059">
        <ele>32</ele>
        <time>2017-06-27T15:34:52Z</time>
      </trkpt>
      <trkpt lat="49.3474" lon="1.30065">
        <ele>32</ele>
        <time>2017-06-27T15:34:52Z</time>
      </trkpt>
      <trkpt lat="49.34744" lon="1.30068">
        <ele>32</ele>
        <time>2017-06-27T15:35:33Z</time>
      </trkpt>
      <trkpt lat="49.34744" lon="1.3007">
        <ele>32</ele>
        <time>2017-06-27T15:35:33Z</time>
      </trkpt>
      <trkpt lat="49.34745" lon="1.30071">
        <ele>32</ele>
        <time>2017-06-27T15:35:33Z</time>
      </trkpt>
      <trkpt lat="49.3475" lon="1.3008">
        <ele>32</ele>
        <time>2017-06-27T15:35:33Z</time>
      </trkpt>
      <trkpt lat="49.34758" lon="1.30089">
        <ele>32</ele>
        <time>2017-06-27T15:35:33Z</time>
      </trkpt>
      <trkpt lat="49.34762" lon="1.30098">
        <ele>32</ele>
        <time>2017-06-27T15:35:49Z</time>
      </trkpt>
      <trkpt lat="49.34762" lon="1.30105">
        <ele>32</ele>
        <time>2017-06-27T15:35:49Z</time>
      </trkpt>
      <trkpt lat="49.34761" lon="1.30108">
        <ele>32</ele>
        <time>2017-06-27T15:35:49Z</time>
      </trkpt>
      <trkpt lat="49.34765" lon="1.30116">
        <ele>32</ele>
        <time>2017-06-27T15:35:49Z</time>
      </trkpt>
      <trkpt lat="49.34766" lon="1.30121">
        <ele>32</ele>
        <time>2017-06-27T15:36:05Z</time>
      </trkpt>
      <trkpt lat="49.34768" lon="1.30126">
        <ele>27</ele>
        <time>2017-06-27T15:36:05Z</time>
      </trkpt>
      <trkpt lat="49.3477" lon="1.30133">
        <ele>27</ele>
        <time>2017-06-27T15:36:05Z</time>
      </trkpt>
      <trkpt lat="49.34774" lon="1.3014">
        <ele>27</ele>
        <time>2017-06-27T15:36:05Z</time>
      </trkpt>
      <trkpt lat="49.34777" lon="1.3015">
        <ele>27</ele>
        <time>2017-06-27T15:36:20Z</time>
      </trkpt>
      <trkpt lat="49.34778" lon="1.30154">
        <ele>27</ele>
        <time>2017-06-27T15:36:20Z</time>
      </trkpt>
      <trkpt lat="49.34781" lon="1.30161">
        <ele>27</ele>
        <time>2017-06-27T15:36:20Z</time>
      </trkpt>
      <trkpt lat="49.34782" lon="1.30167">
        <ele>27</ele>
        <time>2017-06-27T15:36:20Z</time>
      </trkpt>
      <trkpt lat="49.34788" lon="1.30175">
        <ele>27</ele>
        <time>2017-06-27T15:36:38Z</time>
      </trkpt>
      <trkpt lat="49.34792" lon="1.3018">
        <ele>50</ele>
        <time>2017-06-27T15:36:38Z</time>
      </trkpt>
      <trkpt lat="49.34794" lon="1.30186">
        <ele>50</ele>
        <time>2017-06-27T15:36:38Z</time>
      </trkpt>
      <trkpt lat="49.34798" lon="1.30191">
        <ele>50</ele>
        <time>2017-06-27T15:36:38Z</time>
      </trkpt>
      <trkpt lat="49.34798" lon="1.30194">
        <ele>50</ele>
        <time>2017-06-27T15:36:52Z</time>
      </trkpt>
      <trkpt lat="49.34799" lon="1.30202">
        <ele>50</ele>
        <time>2017-06-27T15:36:52Z</time>
      </trkpt>
      <trkpt lat="49.34802" lon="1.30207">
        <ele>50</ele>
        <time>2017-06-27T15:36:52Z</time>
      </trkpt>
      <trkpt lat="49.34802" lon="1.3021">
        <ele>40</ele>
        <time>2017-06-27T15:36:52Z</time>
      </trkpt>
      <trkpt lat="49.34799" lon="1.30207">
        <ele>50</ele>
        <time>2017-06-27T15:37:09Z</time>
      </trkpt>
      <trkpt lat="49.348" lon="1.30208">
        <ele>50</ele>
        <time>2017-06-27T15:37:09Z</time>
      </trkpt>
      <trkpt lat="49.34804" lon="1.30217">
        <ele>40</ele>
        <time>2017-06-27T15:37:09Z</time>
      </trkpt>
      <trkpt lat="49.34805" lon="1.30222">
        <ele>40</ele>
        <time>2017-06-27T15:37:09Z</time>
      </trkpt>
      <trkpt lat="49.34809" lon="1.30238">
        <ele>40</ele>
        <time>2017-06-27T15:37:57Z</time>
      </trkpt>
      <trkpt lat="49.3481" lon="1.30239">
        <ele>40</ele>
        <time>2017-06-27T15:37:57Z</time>
      </trkpt>
      <trkpt lat="49.34813" lon="1.30244">
        <ele>40</ele>
        <time>2017-06-27T15:37:57Z</time>
      </trkpt>
      <trkpt lat="49.34818" lon="1.30249">
        <ele>40</ele>
        <time>2017-06-27T15:37:57Z</time>
      </trkpt>
      <trkpt lat="49.34821" lon="1.30254">
        <ele>40</ele>
        <time>2017-06-27T15:37:57Z</time>
      </trkpt>
      <trkpt lat="49.34825" lon="1.3026">
        <ele>40</ele>
        <time>2017-06-27T15:38:12Z</time>
      </trkpt>
      <trkpt lat="49.34827" lon="1.30266">
        <ele>40</ele>
        <time>2017-06-27T15:38:12Z</time>
      </trkpt>
      <trkpt lat="49.34829" lon="1.30271">
        <ele>40</ele>
        <time>2017-06-27T15:38:12Z</time>
      </trkpt>
      <trkpt lat="49.34831" lon="1.30277">
        <ele>40</ele>
        <time>2017-06-27T15:38:12Z</time>
      </trkpt>
      <trkpt lat="49.34834" lon="1.30285">
        <ele>40</ele>
        <time>2017-06-27T15:38:29Z</time>
      </trkpt>
      <trkpt lat="49.34837" lon="1.30293">
        <ele>32</ele>
        <time>2017-06-27T15:38:29Z</time>
      </trkpt>
      <trkpt lat="49.3484" lon="1.30302">
        <ele>32</ele>
        <time>2017-06-27T15:38:29Z</time>
      </trkpt>
      <trkpt lat="49.34841" lon="1.30308">
        <ele>32</ele>
        <time>2017-06-27T15:38:29Z</time>
      </trkpt>
      <trkpt lat="49.34845" lon="1.30317">
        <ele>32</ele>
        <time>2017-06-27T15:38:45Z</time>
      </trkpt>
      <trkpt lat="49.34847" lon="1.30321">
        <ele>32</ele>
        <time>2017-06-27T15:38:46Z</time>
      </trkpt>
      <trkpt lat="49.34848" lon="1.30327">
        <ele>32</ele>
        <time>2017-06-27T15:38:46Z</time>
      </trkpt>
      <trkpt lat="49.34852" lon="1.30336">
        <ele>32</ele>
        <time>2017-06-27T15:38:46Z</time>
      </trkpt>
      <trkpt lat="49.34854" lon="1.30344">
        <ele>32</ele>
        <time>2017-06-27T15:39:01Z</time>
      </trkpt>
      <trkpt lat="49.34856" lon="1.30346">
        <ele>32</ele>
        <time>2017-06-27T15:39:01Z</time>
      </trkpt>
      <trkpt lat="49.34858" lon="1.30354">
        <ele>32</ele>
        <time>2017-06-27T15:39:01Z</time>
      </trkpt>
      <trkpt lat="49.3486" lon="1.30356">
        <ele>32</ele>
        <time>2017-06-27T15:39:01Z</time>
      </trkpt>
      <trkpt lat="49.34862" lon="1.30361">
        <ele>32</ele>
        <time>2017-06-27T15:39:17Z</time>
      </trkpt>
      <trkpt lat="49.34865" lon="1.30368">
        <ele>32</ele>
        <time>2017-06-27T15:39:17Z</time>
      </trkpt>
      <trkpt lat="49.34864" lon="1.30372">
        <ele>32</ele>
        <time>2017-06-27T15:39:17Z</time>
      </trkpt>
      <trkpt lat="49.34864" lon="1.3038">
        <ele>25</ele>
        <time>2017-06-27T15:39:17Z</time>
      </trkpt>
      <trkpt lat="49.34868" lon="1.30385">
        <ele>25</ele>
        <time>2017-06-27T15:39:33Z</time>
      </trkpt>
      <trkpt lat="49.34873" lon="1.30391">
        <ele>25</ele>
        <time>2017-06-27T15:39:33Z</time>
      </trkpt>
      <trkpt lat="49.34873" lon="1.30394">
        <ele>25</ele>
        <time>2017-06-27T15:39:33Z</time>
      </trkpt>
      <trkpt lat="49.34876" lon="1.30403">
        <ele>49</ele>
        <time>2017-06-27T15:39:33Z</time>
      </trkpt>
      <trkpt lat="49.3488" lon="1.30409">
        <ele>49</ele>
        <time>2017-06-27T15:39:49Z</time>
      </trkpt>
      <trkpt lat="49.34883" lon="1.30411">
        <ele>49</ele>
        <time>2017-06-27T15:39:49Z</time>
      </trkpt>
      <trkpt lat="49.34884" lon="1.30421">
        <ele>49</ele>
        <time>2017-06-27T15:39:49Z</time>
      </trkpt>
      <trkpt lat="49.34886" lon="1.30428">
        <ele>49</ele>
        <time>2017-06-27T15:39:50Z</time>
      </trkpt>
      <trkpt lat="49.34892" lon="1.30437">
        <ele>49</ele>
        <time>2017-06-27T15:40:06Z</time>
      </trkpt>
      <trkpt lat="49.34891" lon="1.3044">
        <ele>49</ele>
        <time>2017-06-27T15:40:06Z</time>
      </trkpt>
      <trkpt lat="49.34891" lon="1.30444">
        <ele>49</ele>
        <time>2017-06-27T15:40:06Z</time>
      </trkpt>
      <trkpt lat="49.34896" lon="1.30454">
        <ele>49</ele>
        <time>2017-06-27T15:40:06Z</time>
      </trkpt>
      <trkpt lat="49.34896" lon="1.30462">
        <ele>37</ele>
        <time>2017-06-27T15:40:21Z</time>
      </trkpt>
      <trkpt lat="49.34899" lon="1.30469">
        <ele>37</ele>
        <time>2017-06-27T15:40:21Z</time>
      </trkpt>
      <trkpt lat="49.349" lon="1.30478">
        <ele>37</ele>
        <time>2017-06-27T15:40:21Z</time>
      </trkpt>
      <trkpt lat="49.34905" lon="1.30485">
        <ele>37</ele>
        <time>2017-06-27T15:40:21Z</time>
      </trkpt>
      <trkpt lat="49.34908" lon="1.30489">
        <ele>37</ele>
        <time>2017-06-27T15:40:38Z</time>
      </trkpt>
      <trkpt lat="49.34912" lon="1.30493">
        <ele>37</ele>
        <time>2017-06-27T15:40:38Z</time>
      </trkpt>
      <trkpt lat="49.34912" lon="1.30498">
        <ele>37</ele>
        <time>2017-06-27T15:40:38Z</time>
      </trkpt>
      <trkpt lat="49.34913" lon="1.30503">
        <ele>37</ele>
        <time>2017-06-27T15:40:38Z</time>
      </trkpt>
      <trkpt lat="49.34916" lon="1.3051">
        <ele>37</ele>
        <time>2017-06-27T15:40:53Z</time>
      </trkpt>
      <trkpt lat="49.34919" lon="1.30517">
        <ele>37</ele>
        <time>2017-06-27T15:40:53Z</time>
      </trkpt>
      <trkpt lat="49.34921" lon="1.30521">
        <ele>37</ele>
        <time>2017-06-27T15:40:53Z</time>
      </trkpt>
      <trkpt lat="49.34923" lon="1.30526">
        <ele>37</ele>
        <time>2017-06-27T15:40:53Z</time>
      </trkpt>
      <trkpt lat="49.34927" lon="1.30531">
        <ele>37</ele>
        <time>2017-06-27T15:41:09Z</time>
      </trkpt>
      <trkpt lat="49.34929" lon="1.30539">
        <ele>37</ele>
        <time>2017-06-27T15:41:09Z</time>
      </trkpt>
      <trkpt lat="49.34932" lon="1.30547">
        <ele>31</ele>
        <time>2017-06-27T15:41:09Z</time>
      </trkpt>
      <trkpt lat="49.34936" lon="1.30552">
        <ele>31</ele>
        <time>2017-06-27T15:41:09Z</time>
      </trkpt>
      <trkpt lat="49.34939" lon="1.30557">
        <ele>31</ele>
        <time>2017-06-27T15:41:26Z</time>
      </trkpt>
      <trkpt lat="49.34939" lon="1.30568">
        <ele>31</ele>
        <time>2017-06-27T15:41:26Z</time>
      </trkpt>
      <trkpt lat="49.34939" lon="1.30573">
        <ele>31</ele>
        <time>2017-06-27T15:41:26Z</time>
      </trkpt>
      <trkpt lat="49.3494" lon="1.30583">
        <ele>31</ele>
        <time>2017-06-27T15:41:26Z</time>
      </trkpt>
      <trkpt lat="49.34942" lon="1.30587">
        <ele>31</ele>
        <time>2017-06-27T15:41:40Z</time>
      </trkpt>
      <trkpt lat="49.34945" lon="1.30596">
        <ele>31</ele>
        <time>2017-06-27T15:41:40Z</time>
      </trkpt>
      <trkpt lat="49.34946" lon="1.30605">
        <ele>31</ele>
        <time>2017-06-27T15:41:40Z</time>
      </trkpt>
      <trkpt lat="49.34949" lon="1.30611">
        <ele>31</ele>
        <time>2017-06-27T15:41:40Z</time>
      </trkpt>
      <trkpt lat="49.34952" lon="1.3062">
        <ele>31</ele>
        <time>2017-06-27T15:41:57Z</time>
      </trkpt>
      <trkpt lat="49.34954" lon="1.30626">
        <ele>29</ele>
        <time>2017-06-27T15:41:57Z</time>
      </trkpt>
      <trkpt lat="49.34955" lon="1.30632">
        <ele>29</ele>
        <time>2017-06-27T15:41:57Z</time>
      </trkpt>
      <trkpt lat="49.34957" lon="1.30639">
        <ele>29</ele>
        <time>2017-06-27T15:41:57Z</time>
      </trkpt>
      <trkpt lat="49.34959" lon="1.30646">
        <ele>48</ele>
        <time>2017-06-27T15:42:12Z</time>
      </trkpt>
      <trkpt lat="49.34961" lon="1.30648">
        <ele>48</ele>
        <time>2017-06-27T15:42:12Z</time>
      </trkpt>
      <trkpt lat="49.34967" lon="1.30652">
        <ele>48</ele>
        <time>2017-06-27T15:42:12Z</time>
      </trkpt>
      <trkpt lat="49.34966" lon="1.30659">
        <ele>48</ele>
        <time>2017-06-27T15:42:12Z</time>
      </trkpt>
      <trkpt lat="49.34967" lon="1.30667">
        <ele>48</ele>
        <time>2017-06-27T15:42:30Z</time>
      </trkpt>
      <trkpt lat="49.34968" lon="1.30673">
        <ele>48</ele>
        <time>2017-06-27T15:42:30Z</time>
      </trkpt>
      <trkpt lat="49.34972" lon="1.30682">
        <ele>48</ele>
        <time>2017-06-27T15:42:30Z</time>
      </trkpt>
      <trkpt lat="49.34976" lon="1.3069">
        <ele>48</ele>
        <time>2017-06-27T15:42:30Z</time>
      </trkpt>
      <trkpt lat="49.34977" lon="1.30697">
        <ele>48</ele>
        <time>2017-06-27T15:42:45Z</time>
      </trkpt>
      <trkpt lat="49.34972" lon="1.30707">
        <ele>48</ele>
        <time>2017-06-27T15:42:45Z</time>
      </trkpt>
      <trkpt lat="49.34969" lon="1.30713">
        <ele>39</ele>
        <time>2017-06-27T15:42:45Z</time>
      </trkpt>
      <trkpt lat="49.34966" lon="1.30718">
        <ele>39</ele>
        <time>2017-06-27T15:42:45Z</time>
      </trkpt>
      <trkpt lat="49.34965" lon="1.30717">
        <ele>39</ele>
        <time>2017-06-27T15:43:05Z</time>
      </trkpt>
      <trkpt lat="49.34965" lon="1.3072">
        <ele>39</ele>
        <time>2017-06-27T15:43:05Z</time>
      </trkpt>
      <trkpt lat="49.34962" lon="1.3072">
        <ele>39</ele>
        <time>2017-06-27T15:43:05Z</time>
      </trkpt>
      <trkpt lat="49.34958" lon="1.30723">
        <ele>25</ele>
        <time>2017-06-27T15:43:05Z</time>
      </trkpt>
      <trkpt lat="49.34953" lon="1.3072">
        <ele>25</ele>
        <time>2017-06-27T15:43:05Z</time>
      </trkpt>
      <trkpt lat="49.34951" lon="1.30725">
        <ele>25</ele>
        <time>2017-06-27T15:43:29Z</time>
      </trkpt>
      <trkpt lat="49.34952" lon="1.30726">
        <ele>25</ele>
        <time>2017-06-27T15:43:29Z</time>
      </trkpt>
      <trkpt lat="49.34956" lon="1.30724">
        <ele>25</ele>
        <time>2017-06-27T15:43:29Z</time>
      </trkpt>
      <trkpt lat="49.34961" lon="1.30719">
        <ele>39</ele>
        <time>2017-06-27T15:43:29Z</time>
      </trkpt>
      <trkpt lat="49.34964" lon="1.30714">
        <ele>39</ele>
        <time>2017-06-27T15:43:29Z</time>
      </trkpt>
      <trkpt lat="49.34968" lon="1.30711">
        <ele>39</ele>
        <time>2017-06-27T15:43:45Z</time>
      </trkpt>
      <trkpt lat="49.34973" lon="1.30711">
        <ele>39</ele>
        <time>2017-06-27T15:43:45Z</time>
      </trkpt>
      <trkpt lat="49.34977" lon="1.3071">
        <ele>39</ele>
        <time>2017-06-27T15:43:45Z</time>
      </trkpt>
      <trkpt lat="49.3498" lon="1.30712">
        <ele>39</ele>
        <time>2017-06-27T15:43:45Z</time>
      </trkpt>
      <trkpt lat="49.34982" lon="1.30713">
        <ele>39</ele>
        <time>2017-06-27T15:45:54Z</time>
      </trkpt>
      <trkpt lat="49.34982" lon="1.30706">
        <ele>48</ele>
        <time>2017-06-27T15:45:54Z</time>
      </trkpt>
      <trkpt lat="49.34987" lon="1.30705">
        <ele>48</ele>
        <time>2017-06-27T15:45:54Z</time>
      </trkpt>
      <trkpt lat="49.3499" lon="1.30704">
        <ele>48</ele>
        <time>2017-06-27T15:45:54Z</time>
      </trkpt>
      <trkpt lat="49.34991" lon="1.307">
        <ele>48</ele>
        <time>2017-06-27T15:45:54Z</time>
      </trkpt>
      <trkpt lat="49.34995" lon="1.30704">
        <ele>48</ele>
        <time>2017-06-27T15:46:20Z</time>
      </trkpt>
      <trkpt lat="49.34995" lon="1.30704">
        <ele>48</ele>
        <time>2017-06-27T15:46:20Z</time>
      </trkpt>
      <trkpt lat="49.34996" lon="1.30705">
        <ele>48</ele>
        <time>2017-06-27T15:46:20Z</time>
      </trkpt>
      <trkpt lat="49.34991" lon="1.30708">
        <ele>39</ele>
        <time>2017-06-27T15:46:20Z</time>
      </trkpt>
      <trkpt lat="49.34989" lon="1.30715">
        <ele>39</ele>
        <time>2017-06-27T15:46:20Z</time>
      </trkpt>
      <trkpt lat="49.34989" lon="1.3073">
        <ele>39</ele>
        <time>2017-06-27T15:50:29Z</time>
      </trkpt>
      <trkpt lat="49.34989" lon="1.3073">
        <ele>39</ele>
        <time>2017-06-27T15:50:30Z</time>
      </trkpt>
      <trkpt lat="49.34989" lon="1.3073">
        <ele>39</ele>
        <time>2017-06-27T15:50:30Z</time>
      </trkpt>
      <trkpt lat="49.34989" lon="1.30731">
        <ele>39</ele>
        <time>2017-06-27T15:50:30Z</time>
      </trkpt>
      <trkpt lat="49.34994" lon="1.30741">
        <ele>39</ele>
        <time>2017-06-27T15:50:30Z</time>
      </trkpt>
      <trkpt lat="49.35005" lon="1.30753">
        <ele>39</ele>
        <time>2017-06-27T15:50:45Z</time>
      </trkpt>
      <trkpt lat="49.35012" lon="1.30757">
        <ele>39</ele>
        <time>2017-06-27T15:50:46Z</time>
      </trkpt>
      <trkpt lat="49.35018" lon="1.30763">
        <ele>39</ele>
        <time>2017-06-27T15:50:46Z</time>
      </trkpt>
      <trkpt lat="49.3502" lon="1.30767">
        <ele>39</ele>
        <time>2017-06-27T15:50:46Z</time>
      </trkpt>
      <trkpt lat="49.35024" lon="1.30778">
        <ele>39</ele>
        <time>2017-06-27T15:51:01Z</time>
      </trkpt>
      <trkpt lat="49.35026" lon="1.30781">
        <ele>39</ele>
        <time>2017-06-27T15:51:01Z</time>
      </trkpt>
      <trkpt lat="49.3503" lon="1.30781">
        <ele>39</ele>
        <time>2017-06-27T15:51:01Z</time>
      </trkpt>
      <trkpt lat="49.35034" lon="1.30793">
        <ele>32</ele>
        <time>2017-06-27T15:51:01Z</time>
      </trkpt>
      <trkpt lat="49.35037" lon="1.30795">
        <ele>32</ele>
        <time>2017-06-27T15:51:17Z</time>
      </trkpt>
      <trkpt lat="49.3504" lon="1.30802">
        <ele>32</ele>
        <time>2017-06-27T15:51:17Z</time>
      </trkpt>
      <trkpt lat="49.35041" lon="1.30808">
        <ele>32</ele>
        <time>2017-06-27T15:51:18Z</time>
      </trkpt>
      <trkpt lat="49.35044" lon="1.30813">
        <ele>55</ele>
        <time>2017-06-27T15:51:18Z</time>
      </trkpt>
      <trkpt lat="49.35051" lon="1.30821">
        <ele>55</ele>
        <time>2017-06-27T15:51:33Z</time>
      </trkpt>
      <trkpt lat="49.35055" lon="1.30825">
        <ele>55</ele>
        <time>2017-06-27T15:51:34Z</time>
      </trkpt>
      <trkpt lat="49.35057" lon="1.30832">
        <ele>55</ele>
        <time>2017-06-27T15:51:34Z</time>
      </trkpt>
      <trkpt lat="49.35061" lon="1.30843">
        <ele>55</ele>
        <time>2017-06-27T15:51:34Z</time>
      </trkpt>
      <trkpt lat="49.35067" lon="1.30851">
        <ele>55</ele>
        <time>2017-06-27T15:51:49Z</time>
      </trkpt>
      <trkpt lat="49.35067" lon="1.3086">
        <ele>55</ele>
        <time>2017-06-27T15:51:49Z</time>
      </trkpt>
      <trkpt lat="49.35071" lon="1.30872">
        <ele>55</ele>
        <time>2017-06-27T15:51:49Z</time>
      </trkpt>
      <trkpt lat="49.3507" lon="1.30878">
        <ele>48</ele>
        <time>2017-06-27T15:51:49Z</time>
      </trkpt>
      <trkpt lat="49.35082" lon="1.30884">
        <ele>48</ele>
        <time>2017-06-27T15:52:09Z</time>
      </trkpt>
      <trkpt lat="49.35082" lon="1.30886">
        <ele>48</ele>
        <time>2017-06-27T15:52:09Z</time>
      </trkpt>
      <trkpt lat="49.35083" lon="1.30892">
        <ele>48</ele>
        <time>2017-06-27T15:52:09Z</time>
      </trkpt>
      <trkpt lat="49.35084" lon="1.30897">
        <ele>48</ele>
        <time>2017-06-27T15:52:09Z</time>
      </trkpt>
      <trkpt lat="49.35083" lon="1.30909">
        <ele>48</ele>
        <time>2017-06-27T15:52:09Z</time>
      </trkpt>
      <trkpt lat="49.35081" lon="1.30922">
        <ele>48</ele>
        <time>2017-06-27T15:52:25Z</time>
      </trkpt>
      <trkpt lat="49.35084" lon="1.30926">
        <ele>48</ele>
        <time>2017-06-27T15:52:25Z</time>
      </trkpt>
      <trkpt lat="49.35086" lon="1.30939">
        <ele>48</ele>
        <time>2017-06-27T15:52:25Z</time>
      </trkpt>
      <trkpt lat="49.35085" lon="1.30949">
        <ele>48</ele>
        <time>2017-06-27T15:52:25Z</time>
      </trkpt>
      <trkpt lat="49.35085" lon="1.3096">
        <ele>51</ele>
        <time>2017-06-27T15:52:42Z</time>
      </trkpt>
      <trkpt lat="49.35085" lon="1.30969">
        <ele>51</ele>
        <time>2017-06-27T15:52:42Z</time>
      </trkpt>
      <trkpt lat="49.35087" lon="1.30972">
        <ele>51</ele>
        <time>2017-06-27T15:52:42Z</time>
      </trkpt>
      <trkpt lat="49.35087" lon="1.30983">
        <ele>51</ele>
        <time>2017-06-27T15:52:42Z</time>
      </trkpt>
      <trkpt lat="49.35086" lon="1.30983">
        <ele>51</ele>
        <time>2017-06-27T15:52:58Z</time>
      </trkpt>
      <trkpt lat="49.35086" lon="1.30994">
        <ele>51</ele>
        <time>2017-06-27T15:52:58Z</time>
      </trkpt>
      <trkpt lat="49.35088" lon="1.30998">
        <ele>51</ele>
        <time>2017-06-27T15:52:58Z</time>
      </trkpt>
      <trkpt lat="49.35087" lon="1.31007">
        <ele>51</ele>
        <time>2017-06-27T15:52:58Z</time>
      </trkpt>
      <trkpt lat="49.35087" lon="1.31012">
        <ele>51</ele>
        <time>2017-06-27T15:53:13Z</time>
      </trkpt>
      <trkpt lat="49.35086" lon="1.3102">
        <ele>51</ele>
        <time>2017-06-27T15:53:13Z</time>
      </trkpt>
      <trkpt lat="49.35085" lon="1.31028">
        <ele>51</ele>
        <time>2017-06-27T15:53:14Z</time>
      </trkpt>
      <trkpt lat="49.35084" lon="1.31035">
        <ele>51</ele>
        <time>2017-06-27T15:53:14Z</time>
      </trkpt>
      <trkpt lat="49.35083" lon="1.31043">
        <ele>52</ele>
        <time>2017-06-27T15:53:30Z</time>
      </trkpt>
      <trkpt lat="49.35082" lon="1.31052">
        <ele>52</ele>
        <time>2017-06-27T15:53:30Z</time>
      </trkpt>
      <trkpt lat="49.3508" lon="1.31062">
        <ele>52</ele>
        <time>2017-06-27T15:53:30Z</time>
      </trkpt>
      <trkpt lat="49.35081" lon="1.31071">
        <ele>52</ele>
        <time>2017-06-27T15:53:30Z</time>
      </trkpt>
      <trkpt lat="49.35084" lon="1.31078">
        <ele>52</ele>
        <time>2017-06-27T15:53:45Z</time>
      </trkpt>
      <trkpt lat="49.35092" lon="1.31085">
        <ele>52</ele>
        <time>2017-06-27T15:53:45Z</time>
      </trkpt>
      <trkpt lat="49.35094" lon="1.31096">
        <ele>52</ele>
        <time>2017-06-27T15:53:45Z</time>
      </trkpt>
      <trkpt lat="49.35097" lon="1.31101">
        <ele>52</ele>
        <time>2017-06-27T15:53:45Z</time>
      </trkpt>
      <trkpt lat="49.35098" lon="1.31111">
        <ele>52</ele>
        <time>2017-06-27T15:54:01Z</time>
      </trkpt>
      <trkpt lat="49.35096" lon="1.31122">
        <ele>52</ele>
        <time>2017-06-27T15:54:01Z</time>
      </trkpt>
      <trkpt lat="49.35097" lon="1.3113">
        <ele>50</ele>
        <time>2017-06-27T15:54:01Z</time>
      </trkpt>
      <trkpt lat="49.351" lon="1.31137">
        <ele>50</ele>
        <time>2017-06-27T15:54:01Z</time>
      </trkpt>
      <trkpt lat="49.35099" lon="1.31143">
        <ele>50</ele>
        <time>2017-06-27T15:54:17Z</time>
      </trkpt>
      <trkpt lat="49.35101" lon="1.31151">
        <ele>50</ele>
        <time>2017-06-27T15:54:17Z</time>
      </trkpt>
      <trkpt lat="49.35101" lon="1.31157">
        <ele>50</ele>
        <time>2017-06-27T15:54:17Z</time>
      </trkpt>
      <trkpt lat="49.35104" lon="1.31165">
        <ele>50</ele>
        <time>2017-06-27T15:54:17Z</time>
      </trkpt>
      <trkpt lat="49.35106" lon="1.31172">
        <ele>50</ele>
        <time>2017-06-27T15:54:34Z</time>
      </trkpt>
      <trkpt lat="49.35106" lon="1.31178">
        <ele>50</ele>
        <time>2017-06-27T15:54:35Z</time>
      </trkpt>
      <trkpt lat="49.35108" lon="1.3119">
        <ele>50</ele>
        <time>2017-06-27T15:54:35Z</time>
      </trkpt>
      <trkpt lat="49.3511" lon="1.31201">
        <ele>50</ele>
        <time>2017-06-27T15:54:35Z</time>
      </trkpt>
      <trkpt lat="49.35112" lon="1.31209">
        <ele>47</ele>
        <time>2017-06-27T15:54:48Z</time>
      </trkpt>
      <trkpt lat="49.35112" lon="1.3122">
        <ele>47</ele>
        <time>2017-06-27T15:54:48Z</time>
      </trkpt>
      <trkpt lat="49.35114" lon="1.31226">
        <ele>47</ele>
        <time>2017-06-27T15:54:48Z</time>
      </trkpt>
      <trkpt lat="49.35116" lon="1.31232">
        <ele>47</ele>
        <time>2017-06-27T15:54:48Z</time>
      </trkpt>
      <trkpt lat="49.35117" lon="1.31241">
        <ele>47</ele>
        <time>2017-06-27T15:55:05Z</time>
      </trkpt>
      <trkpt lat="49.35123" lon="1.31248">
        <ele>47</ele>
        <time>2017-06-27T15:55:05Z</time>
      </trkpt>
      <trkpt lat="49.35129" lon="1.31249">
        <ele>74</ele>
        <time>2017-06-27T15:55:05Z</time>
      </trkpt>
      <trkpt lat="49.35129" lon="1.31258">
        <ele>74</ele>
        <time>2017-06-27T15:55:05Z</time>
      </trkpt>
      <trkpt lat="49.35129" lon="1.31269">
        <ele>74</ele>
        <time>2017-06-27T15:55:20Z</time>
      </trkpt>
      <trkpt lat="49.3513" lon="1.31276">
        <ele>74</ele>
        <time>2017-06-27T15:55:20Z</time>
      </trkpt>
      <trkpt lat="49.35132" lon="1.31285">
        <ele>74</ele>
        <time>2017-06-27T15:55:20Z</time>
      </trkpt>
      <trkpt lat="49.35132" lon="1.31291">
        <ele>74</ele>
        <time>2017-06-27T15:55:20Z</time>
      </trkpt>
      <trkpt lat="49.35132" lon="1.31299">
        <ele>70</ele>
        <time>2017-06-27T15:55:37Z</time>
      </trkpt>
      <trkpt lat="49.35134" lon="1.31309">
        <ele>70</ele>
        <time>2017-06-27T15:55:37Z</time>
      </trkpt>
      <trkpt lat="49.35136" lon="1.31314">
        <ele>70</ele>
        <time>2017-06-27T15:55:37Z</time>
      </trkpt>
      <trkpt lat="49.35136" lon="1.31323">
        <ele>70</ele>
        <time>2017-06-27T15:55:37Z</time>
      </trkpt>
      <trkpt lat="49.35138" lon="1.31332">
        <ele>70</ele>
        <time>2017-06-27T15:55:54Z</time>
      </trkpt>
      <trkpt lat="49.35142" lon="1.31336">
        <ele>70</ele>
        <time>2017-06-27T15:55:54Z</time>
      </trkpt>
      <trkpt lat="49.35141" lon="1.31343">
        <ele>70</ele>
        <time>2017-06-27T15:55:54Z</time>
      </trkpt>
      <trkpt lat="49.35145" lon="1.31353">
        <ele>70</ele>
        <time>2017-06-27T15:55:54Z</time>
      </trkpt>
      <trkpt lat="49.35146" lon="1.31358">
        <ele>70</ele>
        <time>2017-06-27T15:56:11Z</time>
      </trkpt>
      <trkpt lat="49.3515" lon="1.31367">
        <ele>70</ele>
        <time>2017-06-27T15:56:11Z</time>
      </trkpt>
      <trkpt lat="49.35154" lon="1.31373">
        <ele>70</ele>
        <time>2017-06-27T15:56:11Z</time>
      </trkpt>
      <trkpt lat="49.35159" lon="1.31376">
        <ele>71</ele>
        <time>2017-06-27T15:56:11Z</time>
      </trkpt>
      <trkpt lat="49.35161" lon="1.31382">
        <ele>71</ele>
        <time>2017-06-27T15:56:26Z</time>
      </trkpt>
      <trkpt lat="49.35163" lon="1.31387">
        <ele>71</ele>
        <time>2017-06-27T15:56:26Z</time>
      </trkpt>
      <trkpt lat="49.35164" lon="1.31393">
        <ele>71</ele>
        <time>2017-06-27T15:56:26Z</time>
      </trkpt>
      <trkpt lat="49.3517" lon="1.31397">
        <ele>71</ele>
        <time>2017-06-27T15:56:26Z</time>
      </trkpt>
      <trkpt lat="49.35176" lon="1.31398">
        <ele>71</ele>
        <time>2017-06-27T15:56:41Z</time>
      </trkpt>
      <trkpt lat="49.35183" lon="1.31399">
        <ele>71</ele>
        <time>2017-06-27T15:56:41Z</time>
      </trkpt>
      <trkpt lat="49.35188" lon="1.31399">
        <ele>71</ele>
        <time>2017-06-27T15:56:41Z</time>
      </trkpt>
      <trkpt lat="49.35194" lon="1.31398">
        <ele>71</ele>
        <time>2017-06-27T15:56:41Z</time>
      </trkpt>
      <trkpt lat="49.35201" lon="1.31398">
        <ele>71</ele>
        <time>2017-06-27T15:56:58Z</time>
      </trkpt>
      <trkpt lat="49.35208" lon="1.31397">
        <ele>71</ele>
        <time>2017-06-27T15:56:58Z</time>
      </trkpt>
      <trkpt lat="49.35213" lon="1.31393">
        <ele>74</ele>
        <time>2017-06-27T15:56:58Z</time>
      </trkpt>
      <trkpt lat="49.35217" lon="1.31389">
        <ele>74</ele>
        <time>2017-06-27T15:56:58Z</time>
      </trkpt>
      <trkpt lat="49.35223" lon="1.31383">
        <ele>74</ele>
        <time>2017-06-27T15:57:13Z</time>
      </trkpt>
      <trkpt lat="49.35227" lon="1.31375">
        <ele>74</ele>
        <time>2017-06-27T15:57:13Z</time>
      </trkpt>
      <trkpt lat="49.3523" lon="1.31368">
        <ele>76</ele>
        <time>2017-06-27T15:57:13Z</time>
      </trkpt>
      <trkpt lat="49.35232" lon="1.31361">
        <ele>76</ele>
        <time>2017-06-27T15:57:13Z</time>
      </trkpt>
      <trkpt lat="49.35236" lon="1.31359">
        <ele>76</ele>
        <time>2017-06-27T15:57:57Z</time>
      </trkpt>
      <trkpt lat="49.35236" lon="1.31361">
        <ele>76</ele>
        <time>2017-06-27T15:57:57Z</time>
      </trkpt>
      <trkpt lat="49.35235" lon="1.31362">
        <ele>76</ele>
        <time>2017-06-27T15:57:57Z</time>
      </trkpt>
      <trkpt lat="49.35234" lon="1.31364">
        <ele>76</ele>
        <time>2017-06-27T15:57:57Z</time>
      </trkpt>
      <trkpt lat="49.35234" lon="1.31366">
        <ele>76</ele>
        <time>2017-06-27T15:57:57Z</time>
      </trkpt>
      <trkpt lat="49.35239" lon="1.31358">
        <ele>76</ele>
        <time>2017-06-27T16:02:29Z</time>
      </trkpt>
      <trkpt lat="49.35239" lon="1.31358">
        <ele>76</ele>
        <time>2017-06-27T16:02:29Z</time>
      </trkpt>
      <trkpt lat="49.35239" lon="1.31357">
        <ele>76</ele>
        <time>2017-06-27T16:02:29Z</time>
      </trkpt>
      <trkpt lat="49.3524" lon="1.31356">
        <ele>76</ele>
        <time>2017-06-27T16:02:29Z</time>
      </trkpt>
      <trkpt lat="49.35242" lon="1.31356">
        <ele>76</ele>
        <time>2017-06-27T16:02:29Z</time>
      </trkpt>
      <trkpt lat="49.35243" lon="1.31355">
        <ele>76</ele>
        <time>2017-06-27T16:03:44Z</time>
      </trkpt>
      <trkpt lat="49.35244" lon="1.31354">
        <ele>76</ele>
        <time>2017-06-27T16:03:44Z</time>
      </trkpt>
      <trkpt lat="49.35245" lon="1.31351">
        <ele>76</ele>
        <time>2017-06-27T16:03:44Z</time>
      </trkpt>
      <trkpt lat="49.35245" lon="1.31343">
        <ele>76</ele>
        <time>2017-06-27T16:03:44Z</time>
      </trkpt>
      <trkpt lat="49.35241" lon="1.31338">
        <ele>76</ele>
        <time>2017-06-27T16:03:44Z</time>
      </trkpt>
      <trkpt lat="49.35241" lon="1.31332">
        <ele>76</ele>
        <time>2017-06-27T16:04:02Z</time>
      </trkpt>
      <trkpt lat="49.35246" lon="1.31328">
        <ele>76</ele>
        <time>2017-06-27T16:04:03Z</time>
      </trkpt>
      <trkpt lat="49.3525" lon="1.31323">
        <ele>76</ele>
        <time>2017-06-27T16:04:03Z</time>
      </trkpt>
      <trkpt lat="49.35252" lon="1.31315">
        <ele>76</ele>
        <time>2017-06-27T16:04:03Z</time>
      </trkpt>
      <trkpt lat="49.35253" lon="1.31311">
        <ele>76</ele>
        <time>2017-06-27T16:04:16Z</time>
      </trkpt>
      <trkpt lat="49.35256" lon="1.3131">
        <ele>76</ele>
        <time>2017-06-27T16:04:17Z</time>
      </trkpt>
      <trkpt lat="49.35256" lon="1.31304">
        <ele>76</ele>
        <time>2017-06-27T16:04:17Z</time>
      </trkpt>
      <trkpt lat="49.35259" lon="1.31296">
        <ele>76</ele>
        <time>2017-06-27T16:04:17Z</time>
      </trkpt>
      <trkpt lat="49.3526" lon="1.31289">
        <ele>81</ele>
        <time>2017-06-27T16:04:32Z</time>
      </trkpt>
      <trkpt lat="49.35261" lon="1.3128">
        <ele>81</ele>
        <time>2017-06-27T16:04:32Z</time>
      </trkpt>
      <trkpt lat="49.35261" lon="1.31268">
        <ele>81</ele>
        <time>2017-06-27T16:04:32Z</time>
      </trkpt>
      <trkpt lat="49.35267" lon="1.31264">
        <ele>81</ele>
        <time>2017-06-27T16:04:32Z</time>
      </trkpt>
      <trkpt lat="49.35273" lon="1.31262">
        <ele>81</ele>
        <time>2017-06-27T16:04:49Z</time>
      </trkpt>
      <trkpt lat="49.35278" lon="1.31257">
        <ele>81</ele>
        <time>2017-06-27T16:04:49Z</time>
      </trkpt>
      <trkpt lat="49.35277" lon="1.31246">
        <ele>81</ele>
        <time>2017-06-27T16:04:49Z</time>
      </trkpt>
      <trkpt lat="49.3528" lon="1.31246">
        <ele>81</ele>
        <time>2017-06-27T16:04:49Z</time>
      </trkpt>
      <trkpt lat="49.35285" lon="1.31242">
        <ele>81</ele>
        <time>2017-06-27T16:05:05Z</time>
      </trkpt>
      <trkpt lat="49.35287" lon="1.31241">
        <ele>81</ele>
        <time>2017-06-27T16:05:06Z</time>
      </trkpt>
      <trkpt lat="49.35295" lon="1.3124">
        <ele>66</ele>
        <time>2017-06-27T16:05:06Z</time>
      </trkpt>
      <trkpt lat="49.35299" lon="1.31244">
        <ele>66</ele>
        <time>2017-06-27T16:05:06Z</time>
      </trkpt>
      <trkpt lat="49.35303" lon="1.31251">
        <ele>66</ele>
        <time>2017-06-27T16:05:21Z</time>
      </trkpt>
      <trkpt lat="49.35306" lon="1.31255">
        <ele>66</ele>
        <time>2017-06-27T16:05:22Z</time>
      </trkpt>
      <trkpt lat="49.35308" lon="1.31263">
        <ele>66</ele>
        <time>2017-06-27T16:05:22Z</time>
      </trkpt>
      <trkpt lat="49.3531" lon="1.31271">
        <ele>66</ele>
        <time>2017-06-27T16:05:22Z</time>
      </trkpt>
      <trkpt lat="49.35311" lon="1.31275">
        <ele>66</ele>
        <time>2017-06-27T16:05:38Z</time>
      </trkpt>
      <trkpt lat="49.35314" lon="1.31283">
        <ele>66</ele>
        <time>2017-06-27T16:05:38Z</time>
      </trkpt>
      <trkpt lat="49.35314" lon="1.31289">
        <ele>66</ele>
        <time>2017-06-27T16:05:38Z</time>
      </trkpt>
      <trkpt lat="49.35317" lon="1.31295">
        <ele>65</ele>
        <time>2017-06-27T16:05:38Z</time>
      </trkpt>
      <trkpt lat="49.35318" lon="1.31302">
        <ele>65</ele>
        <time>2017-06-27T16:05:53Z</time>
      </trkpt>
      <trkpt lat="49.35321" lon="1.31306">
        <ele>65</ele>
        <time>2017-06-27T16:05:54Z</time>
      </trkpt>
      <trkpt lat="49.3532" lon="1.31317">
        <ele>65</ele>
        <time>2017-06-27T16:05:54Z</time>
      </trkpt>
      <trkpt lat="49.35321" lon="1.31323">
        <ele>65</ele>
        <time>2017-06-27T16:05:54Z</time>
      </trkpt>
      <trkpt lat="49.3532" lon="1.31331">
        <ele>65</ele>
        <time>2017-06-27T16:06:09Z</time>
      </trkpt>
      <trkpt lat="49.3532" lon="1.31341">
        <ele>65</ele>
        <time>2017-06-27T16:06:09Z</time>
      </trkpt>
      <trkpt lat="49.3532" lon="1.31345">
        <ele>65</ele>
        <time>2017-06-27T16:06:09Z</time>
      </trkpt>
      <trkpt lat="49.35322" lon="1.31352">
        <ele>65</ele>
        <time>2017-06-27T16:06:10Z</time>
      </trkpt>
      <trkpt lat="49.35323" lon="1.31359">
        <ele>65</ele>
        <time>2017-06-27T16:06:25Z</time>
      </trkpt>
      <trkpt lat="49.35324" lon="1.31369">
        <ele>65</ele>
        <time>2017-06-27T16:06:25Z</time>
      </trkpt>
      <trkpt lat="49.35325" lon="1.31372">
        <ele>65</ele>
        <time>2017-06-27T16:06:25Z</time>
      </trkpt>
      <trkpt lat="49.35326" lon="1.31381">
        <ele>63</ele>
        <time>2017-06-27T16:06:25Z</time>
      </trkpt>
      <trkpt lat="49.35326" lon="1.31391">
        <ele>63</ele>
        <time>2017-06-27T16:06:41Z</time>
      </trkpt>
      <trkpt lat="49.35325" lon="1.31396">
        <ele>63</ele>
        <time>2017-06-27T16:06:42Z</time>
      </trkpt>
      <trkpt lat="49.35323" lon="1.31405">
        <ele>63</ele>
        <time>2017-06-27T16:06:42Z</time>
      </trkpt>
      <trkpt lat="49.35323" lon="1.3141">
        <ele>63</ele>
        <time>2017-06-27T16:06:42Z</time>
      </trkpt>
      <trkpt lat="49.35324" lon="1.31418">
        <ele>63</ele>
        <time>2017-06-27T16:06:58Z</time>
      </trkpt>
      <trkpt lat="49.35322" lon="1.31425">
        <ele>63</ele>
        <time>2017-06-27T16:06:58Z</time>
      </trkpt>
      <trkpt lat="49.35322" lon="1.31433">
        <ele>63</ele>
        <time>2017-06-27T16:06:58Z</time>
      </trkpt>
      <trkpt lat="49.35323" lon="1.31438">
        <ele>63</ele>
        <time>2017-06-27T16:06:58Z</time>
      </trkpt>
      <trkpt lat="49.35322" lon="1.31447">
        <ele>63</ele>
        <time>2017-06-27T16:07:13Z</time>
      </trkpt>
      <trkpt lat="49.35323" lon="1.31456">
        <ele>63</ele>
        <time>2017-06-27T16:07:14Z</time>
      </trkpt>
      <trkpt lat="49.35325" lon="1.31462">
        <ele>62</ele>
        <time>2017-06-27T16:07:14Z</time>
      </trkpt>
      <trkpt lat="49.35324" lon="1.31467">
        <ele>62</ele>
        <time>2017-06-27T16:07:14Z</time>
      </trkpt>
      <trkpt lat="49.35324" lon="1.31472">
        <ele>62</ele>
        <time>2017-06-27T16:07:28Z</time>
      </trkpt>
      <trkpt lat="49.35325" lon="1.3148">
        <ele>62</ele>
        <time>2017-06-27T16:07:28Z</time>
      </trkpt>
      <trkpt lat="49.35327" lon="1.31484">
        <ele>62</ele>
        <time>2017-06-27T16:07:28Z</time>
      </trkpt>
      <trkpt lat="49.3533" lon="1.31488">
        <ele>62</ele>
        <time>2017-06-27T16:07:28Z</time>
      </trkpt>
      <trkpt lat="49.35331" lon="1.31494">
        <ele>62</ele>
        <time>2017-06-27T16:07:44Z</time>
      </trkpt>
      <trkpt lat="49.35331" lon="1.31503">
        <ele>62</ele>
        <time>2017-06-27T16:07:44Z</time>
      </trkpt>
      <trkpt lat="49.35331" lon="1.31509">
        <ele>62</ele>
        <time>2017-06-27T16:07:44Z</time>
      </trkpt>
      <trkpt lat="49.35333" lon="1.31514">
        <ele>62</ele>
        <time>2017-06-27T16:07:44Z</time>
      </trkpt>
      <trkpt lat="49.35335" lon="1.31524">
        <ele>62</ele>
        <time>2017-06-27T16:08:02Z</time>
      </trkpt>
      <trkpt lat="49.35335" lon="1.31531">
        <ele>62</ele>
        <time>2017-06-27T16:08:02Z</time>
      </trkpt>
      <trkpt lat="49.35336" lon="1.31535">
        <ele>62</ele>
        <time>2017-06-27T16:08:02Z</time>
      </trkpt>
      <trkpt lat="49.35336" lon="1.31542">
        <ele>60</ele>
        <time>2017-06-27T16:08:02Z</time>
      </trkpt>
      <trkpt lat="49.35338" lon="1.31549">
        <ele>60</ele>
        <time>2017-06-27T16:08:18Z</time>
      </trkpt>
      <trkpt lat="49.35336" lon="1.31559">
        <ele>60</ele>
        <time>2017-06-27T16:08:18Z</time>
      </trkpt>
      <trkpt lat="49.35338" lon="1.31565">
        <ele>60</ele>
        <time>2017-06-27T16:08:19Z</time>
      </trkpt>
      <trkpt lat="49.35337" lon="1.31574">
        <ele>60</ele>
        <time>2017-06-27T16:08:19Z</time>
      </trkpt>
      <trkpt lat="49.35338" lon="1.31576">
        <ele>60</ele>
        <time>2017-06-27T16:08:32Z</time>
      </trkpt>
      <trkpt lat="49.3534" lon="1.31585">
        <ele>60</ele>
        <time>2017-06-27T16:08:32Z</time>
      </trkpt>
      <trkpt lat="49.3534" lon="1.31592">
        <ele>60</ele>
        <time>2017-06-27T16:08:32Z</time>
      </trkpt>
      <trkpt lat="49.35342" lon="1.31596">
        <ele>60</ele>
        <time>2017-06-27T16:08:32Z</time>
      </trkpt>
      <trkpt lat="49.35342" lon="1.31603">
        <ele>60</ele>
        <time>2017-06-27T16:08:48Z</time>
      </trkpt>
      <trkpt lat="49.35342" lon="1.31609">
        <ele>60</ele>
        <time>2017-06-27T16:08:48Z</time>
      </trkpt>
      <trkpt lat="49.35342" lon="1.31617">
        <ele>60</ele>
        <time>2017-06-27T16:08:48Z</time>
      </trkpt>
      <trkpt lat="49.35345" lon="1.31622">
        <ele>60</ele>
        <time>2017-06-27T16:08:48Z</time>
      </trkpt>
      <trkpt lat="49.35344" lon="1.31633">
        <ele>60</ele>
        <time>2017-06-27T16:09:05Z</time>
      </trkpt>
      <trkpt lat="49.3535" lon="1.3164">
        <ele>60</ele>
        <time>2017-06-27T16:09:06Z</time>
      </trkpt>
      <trkpt lat="49.35348" lon="1.3165">
        <ele>60</ele>
        <time>2017-06-27T16:09:06Z</time>
      </trkpt>
      <trkpt lat="49.35349" lon="1.31657">
        <ele>60</ele>
        <time>2017-06-27T16:09:06Z</time>
      </trkpt>
      <trkpt lat="49.35351" lon="1.31659">
        <ele>60</ele>
        <time>2017-06-27T16:09:23Z</time>
      </trkpt>
      <trkpt lat="49.35349" lon="1.31671">
        <ele>60</ele>
        <time>2017-06-27T16:09:23Z</time>
      </trkpt>
      <trkpt lat="49.3535" lon="1.31677">
        <ele>60</ele>
        <time>2017-06-27T16:09:23Z</time>
      </trkpt>
      <trkpt lat="49.35351" lon="1.31684">
        <ele>60</ele>
        <time>2017-06-27T16:09:23Z</time>
      </trkpt>
      <trkpt lat="49.35353" lon="1.3169">
        <ele>60</ele>
        <time>2017-06-27T16:09:36Z</time>
      </trkpt>
      <trkpt lat="49.35354" lon="1.31697">
        <ele>60</ele>
        <time>2017-06-27T16:09:36Z</time>
      </trkpt>
      <trkpt lat="49.35357" lon="1.31704">
        <ele>60</ele>
        <time>2017-06-27T16:09:36Z</time>
      </trkpt>
      <trkpt lat="49.35359" lon="1.31709">
        <ele>59</ele>
        <time>2017-06-27T16:09:37Z</time>
      </trkpt>
      <trkpt lat="49.3536" lon="1.31721">
        <ele>59</ele>
        <time>2017-06-27T16:09:53Z</time>
      </trkpt>
      <trkpt lat="49.35359" lon="1.31725">
        <ele>59</ele>
        <time>2017-06-27T16:09:54Z</time>
      </trkpt>
      <trkpt lat="49.35359" lon="1.3173">
        <ele>59</ele>
        <time>2017-06-27T16:09:54Z</time>
      </trkpt>
      <trkpt lat="49.3536" lon="1.31736">
        <ele>59</ele>
        <time>2017-06-27T16:09:54Z</time>
      </trkpt>
      <trkpt lat="49.3536" lon="1.31743">
        <ele>59</ele>
        <time>2017-06-27T16:10:09Z</time>
      </trkpt>
      <trkpt lat="49.35361" lon="1.31753">
        <ele>59</ele>
        <time>2017-06-27T16:10:10Z</time>
      </trkpt>
      <trkpt lat="49.3536" lon="1.31759">
        <ele>59</ele>
        <time>2017-06-27T16:10:10Z</time>
      </trkpt>
      <trkpt lat="49.35359" lon="1.31765">
        <ele>59</ele>
        <time>2017-06-27T16:10:10Z</time>
      </trkpt>
      <trkpt lat="49.35363" lon="1.31768">
        <ele>59</ele>
        <time>2017-06-27T16:10:25Z</time>
      </trkpt>
      <trkpt lat="49.35365" lon="1.31772">
        <ele>59</ele>
        <time>2017-06-27T16:10:26Z</time>
      </trkpt>
      <trkpt lat="49.35371" lon="1.31773">
        <ele>59</ele>
        <time>2017-06-27T16:10:26Z</time>
      </trkpt>
      <trkpt lat="49.35373" lon="1.31767">
        <ele>59</ele>
        <time>2017-06-27T16:10:26Z</time>
      </trkpt>
      <trkpt lat="49.35376" lon="1.3176">
        <ele>50</ele>
        <time>2017-06-27T16:10:41Z</time>
      </trkpt>
      <trkpt lat="49.35379" lon="1.31754">
        <ele>50</ele>
        <time>2017-06-27T16:10:41Z</time>
      </trkpt>
      <trkpt lat="49.35379" lon="1.31749">
        <ele>50</ele>
        <time>2017-06-27T16:10:41Z</time>
      </trkpt>
      <trkpt lat="49.35377" lon="1.31741">
        <ele>50</ele>
        <time>2017-06-27T16:10:41Z</time>
      </trkpt>
      <trkpt lat="49.35379" lon="1.31739">
        <ele>50</ele>
        <time>2017-06-27T16:10:57Z</time>
      </trkpt>
      <trkpt lat="49.35378" lon="1.31726">
        <ele>50</ele>
        <time>2017-06-27T16:10:57Z</time>
      </trkpt>
      <trkpt lat="49.35371" lon="1.31717">
        <ele>59</ele>
        <time>2017-06-27T16:10:57Z</time>
      </trkpt>
      <trkpt lat="49.35374" lon="1.31709">
        <ele>59</ele>
        <time>2017-06-27T16:10:57Z</time>
      </trkpt>
      <trkpt lat="49.35371" lon="1.317">
        <ele>60</ele>
        <time>2017-06-27T16:11:19Z</time>
      </trkpt>
      <trkpt lat="49.35369" lon="1.31693">
        <ele>60</ele>
        <time>2017-06-27T16:11:19Z</time>
      </trkpt>
      <trkpt lat="49.35372" lon="1.31689">
        <ele>60</ele>
        <time>2017-06-27T16:11:19Z</time>
      </trkpt>
      <trkpt lat="49.35373" lon="1.31688">
        <ele>60</ele>
        <time>2017-06-27T16:11:19Z</time>
      </trkpt>
      <trkpt lat="49.35372" lon="1.3168">
        <ele>60</ele>
        <time>2017-06-27T16:11:19Z</time>
      </trkpt>
      <trkpt lat="49.35371" lon="1.31672">
        <ele>60</ele>
        <time>2017-06-27T16:11:32Z</time>
      </trkpt>
      <trkpt lat="49.3537" lon="1.31662">
        <ele>60</ele>
        <time>2017-06-27T16:11:32Z</time>
      </trkpt>
      <trkpt lat="49.35368" lon="1.31655">
        <ele>60</ele>
        <time>2017-06-27T16:11:32Z</time>
      </trkpt>
      <trkpt lat="49.35366" lon="1.31647">
        <ele>60</ele>
        <time>2017-06-27T16:11:32Z</time>
      </trkpt>
      <trkpt lat="49.35364" lon="1.31639">
        <ele>60</ele>
        <time>2017-06-27T16:11:49Z</time>
      </trkpt>
      <trkpt lat="49.35363" lon="1.31633">
        <ele>60</ele>
        <time>2017-06-27T16:11:50Z</time>
      </trkpt>
      <trkpt lat="49.35359" lon="1.31623">
        <ele>60</ele>
        <time>2017-06-27T16:11:50Z</time>
      </trkpt>
      <trkpt lat="49.35359" lon="1.31615">
        <ele>60</ele>
        <time>2017-06-27T16:11:50Z</time>
      </trkpt>
      <trkpt lat="49.35361" lon="1.3161">
        <ele>60</ele>
        <time>2017-06-27T16:12:06Z</time>
      </trkpt>
      <trkpt lat="49.35362" lon="1.31606">
        <ele>60</ele>
        <time>2017-06-27T16:12:07Z</time>
      </trkpt>
      <trkpt lat="49.35362" lon="1.31599">
        <ele>60</ele>
        <time>2017-06-27T16:12:07Z</time>
      </trkpt>
      <trkpt lat="49.35359" lon="1.31586">
        <ele>60</ele>
        <time>2017-06-27T16:12:07Z</time>
      </trkpt>
      <trkpt lat="49.35356" lon="1.3158">
        <ele>60</ele>
        <time>2017-06-27T16:12:21Z</time>
      </trkpt>
      <trkpt lat="49.35353" lon="1.31571">
        <ele>60</ele>
        <time>2017-06-27T16:12:21Z</time>
      </trkpt>
      <trkpt lat="49.35354" lon="1.31564">
        <ele>60</ele>
        <time>2017-06-27T16:12:21Z</time>
      </trkpt>
      <trkpt lat="49.35354" lon="1.31559">
        <ele>60</ele>
        <time>2017-06-27T16:12:21Z</time>
      </trkpt>
      <trkpt lat="49.35359" lon="1.31559">
        <ele>60</ele>
        <time>2017-06-27T16:13:21Z</time>
      </trkpt>
      <trkpt lat="49.35359" lon="1.31559">
        <ele>60</ele>
        <time>2017-06-27T16:13:22Z</time>
      </trkpt>
      <trkpt lat="49.35359" lon="1.31559">
        <ele>60</ele>
        <time>2017-06-27T16:13:22Z</time>
      </trkpt>
      <trkpt lat="49.35359" lon="1.31559">
        <ele>60</ele>
        <time>2017-06-27T16:13:22Z</time>
      </trkpt>
      <trkpt lat="49.35363" lon="1.31557">
        <ele>60</ele>
        <time>2017-06-27T16:13:22Z</time>
      </trkpt>
      <trkpt lat="49.35362" lon="1.31556">
        <ele>60</ele>
        <time>2017-06-27T16:17:25Z</time>
      </trkpt>
      <trkpt lat="49.35363" lon="1.31552">
        <ele>60</ele>
        <time>2017-06-27T16:17:25Z</time>
      </trkpt>
      <trkpt lat="49.35363" lon="1.31546">
        <ele>60</ele>
        <time>2017-06-27T16:17:25Z</time>
      </trkpt>
      <trkpt lat="49.35366" lon="1.31536">
        <ele>62</ele>
        <time>2017-06-27T16:17:25Z</time>
      </trkpt>
      <trkpt lat="49.35365" lon="1.31529">
        <ele>62</ele>
        <time>2017-06-27T16:17:25Z</time>
      </trkpt>
      <trkpt lat="49.35366" lon="1.31523">
        <ele>62</ele>
        <time>2017-06-27T16:17:40Z</time>
      </trkpt>
      <trkpt lat="49.3537" lon="1.31514">
        <ele>62</ele>
        <time>2017-06-27T16:17:40Z</time>
      </trkpt>
      <trkpt lat="49.35365" lon="1.31505">
        <ele>62</ele>
        <time>2017-06-27T16:17:41Z</time>
      </trkpt>
      <trkpt lat="49.35366" lon="1.31502">
        <ele>62</ele>
        <time>2017-06-27T16:17:41Z</time>
      </trkpt>
      <trkpt lat="49.35367" lon="1.3149">
        <ele>62</ele>
        <time>2017-06-27T16:17:58Z</time>
      </trkpt>
      <trkpt lat="49.35365" lon="1.31481">
        <ele>62</ele>
        <time>2017-06-27T16:17:58Z</time>
      </trkpt>
      <trkpt lat="49.35367" lon="1.31475">
        <ele>62</ele>
        <time>2017-06-27T16:17:58Z</time>
      </trkpt>
      <trkpt lat="49.35368" lon="1.3147">
        <ele>62</ele>
        <time>2017-06-27T16:17:58Z</time>
      </trkpt>
      <trkpt lat="49.35368" lon="1.31468">
        <ele>62</ele>
        <time>2017-06-27T16:18:12Z</time>
      </trkpt>
      <trkpt lat="49.35367" lon="1.31455">
        <ele>63</ele>
        <time>2017-06-27T16:18:12Z</time>
      </trkpt>
      <trkpt lat="49.35366" lon="1.31444">
        <ele>63</ele>
        <time>2017-06-27T16:18:12Z</time>
      </trkpt>
      <trkpt lat="49.35368" lon="1.31438">
        <ele>63</ele>
        <time>2017-06-27T16:18:12Z</time>
      </trkpt>
      <trkpt lat="49.35369" lon="1.31429">
        <ele>63</ele>
        <time>2017-06-27T16:18:29Z</time>
      </trkpt>
      <trkpt lat="49.3537" lon="1.31421">
        <ele>63</ele>
        <time>2017-06-27T16:18:29Z</time>
      </trkpt>
      <trkpt lat="49.35374" lon="1.31414">
        <ele>63</ele>
        <time>2017-06-27T16:18:29Z</time>
      </trkpt>
      <trkpt lat="49.35372" lon="1.31404">
        <ele>63</ele>
        <time>2017-06-27T16:18:29Z</time>
      </trkpt>
      <trkpt lat="49.35372" lon="1.31396">
        <ele>63</ele>
        <time>2017-06-27T16:18:45Z</time>
      </trkpt>
      <trkpt lat="49.35371" lon="1.31387">
        <ele>63</ele>
        <time>2017-06-27T16:18:45Z</time>
      </trkpt>
      <trkpt lat="49.35371" lon="1.31381">
        <ele>63</ele>
        <time>2017-06-27T16:18:45Z</time>
      </trkpt>
      <trkpt lat="49.35371" lon="1.31372">
        <ele>65</ele>
        <time>2017-06-27T16:18:45Z</time>
      </trkpt>
      <trkpt lat="49.35375" lon="1.31367">
        <ele>65</ele>
        <time>2017-06-27T16:19:02Z</time>
      </trkpt>
      <trkpt lat="49.35375" lon="1.31357">
        <ele>60</ele>
        <time>2017-06-27T16:19:02Z</time>
      </trkpt>
      <trkpt lat="49.35374" lon="1.31346">
        <ele>65</ele>
        <time>2017-06-27T16:19:02Z</time>
      </trkpt>
      <trkpt lat="49.35374" lon="1.31338">
        <ele>65</ele>
        <time>2017-06-27T16:19:02Z</time>
      </trkpt>
      <trkpt lat="49.35374" lon="1.31331">
        <ele>65</ele>
        <time>2017-06-27T16:19:17Z</time>
      </trkpt>
      <trkpt lat="49.35377" lon="1.31325">
        <ele>60</ele>
        <time>2017-06-27T16:19:17Z</time>
      </trkpt>
      <trkpt lat="49.35379" lon="1.31319">
        <ele>60</ele>
        <time>2017-06-27T16:19:17Z</time>
      </trkpt>
      <trkpt lat="49.35379" lon="1.31308">
        <ele>60</ele>
        <time>2017-06-27T16:19:17Z</time>
      </trkpt>
      <trkpt lat="49.35376" lon="1.31297">
        <ele>60</ele>
        <time>2017-06-27T16:19:33Z</time>
      </trkpt>
      <trkpt lat="49.35377" lon="1.31289">
        <ele>59</ele>
        <time>2017-06-27T16:19:33Z</time>
      </trkpt>
      <trkpt lat="49.35375" lon="1.3128">
        <ele>66</ele>
        <time>2017-06-27T16:19:33Z</time>
      </trkpt>
      <trkpt lat="49.35374" lon="1.3127">
        <ele>66</ele>
        <time>2017-06-27T16:19:33Z</time>
      </trkpt>
      <trkpt lat="49.35377" lon="1.3126">
        <ele>59</ele>
        <time>2017-06-27T16:19:48Z</time>
      </trkpt>
      <trkpt lat="49.35381" lon="1.31257">
        <ele>59</ele>
        <time>2017-06-27T16:19:48Z</time>
      </trkpt>
      <trkpt lat="49.35381" lon="1.31252">
        <ele>59</ele>
        <time>2017-06-27T16:19:48Z</time>
      </trkpt>
      <trkpt lat="49.35381" lon="1.31244">
        <ele>59</ele>
        <time>2017-06-27T16:19:48Z</time>
      </trkpt>
      <trkpt lat="49.35386" lon="1.31241">
        <ele>59</ele>
        <time>2017-06-27T16:20:04Z</time>
      </trkpt>
      <trkpt lat="49.35385" lon="1.31232">
        <ele>59</ele>
        <time>2017-06-27T16:20:04Z</time>
      </trkpt>
      <trkpt lat="49.35385" lon="1.31228">
        <ele>59</ele>
        <time>2017-06-27T16:20:04Z</time>
      </trkpt>
      <trkpt lat="49.35384" lon="1.31217">
        <ele>59</ele>
        <time>2017-06-27T16:20:04Z</time>
      </trkpt>
      <trkpt lat="49.35384" lon="1.31211">
        <ele>59</ele>
        <time>2017-06-27T16:20:22Z</time>
      </trkpt>
      <trkpt lat="49.35384" lon="1.31202">
        <ele>63</ele>
        <time>2017-06-27T16:20:22Z</time>
      </trkpt>
      <trkpt lat="49.35386" lon="1.31196">
        <ele>63</ele>
        <time>2017-06-27T16:20:22Z</time>
      </trkpt>
      <trkpt lat="49.3539" lon="1.31193">
        <ele>63</ele>
        <time>2017-06-27T16:20:22Z</time>
      </trkpt>
      <trkpt lat="49.35389" lon="1.31183">
        <ele>63</ele>
        <time>2017-06-27T16:20:36Z</time>
      </trkpt>
      <trkpt lat="49.35388" lon="1.3117">
        <ele>63</ele>
        <time>2017-06-27T16:20:36Z</time>
      </trkpt>
      <trkpt lat="49.35392" lon="1.31164">
        <ele>63</ele>
        <time>2017-06-27T16:20:36Z</time>
      </trkpt>
      <trkpt lat="49.35394" lon="1.31161">
        <ele>63</ele>
        <time>2017-06-27T16:20:36Z</time>
      </trkpt>
      <trkpt lat="49.35393" lon="1.31155">
        <ele>63</ele>
        <time>2017-06-27T16:20:53Z</time>
      </trkpt>
      <trkpt lat="49.35391" lon="1.31142">
        <ele>63</ele>
        <time>2017-06-27T16:20:54Z</time>
      </trkpt>
      <trkpt lat="49.35389" lon="1.31133">
        <ele>63</ele>
        <time>2017-06-27T16:20:54Z</time>
      </trkpt>
      <trkpt lat="49.35391" lon="1.31128">
        <ele>63</ele>
        <time>2017-06-27T16:20:54Z</time>
      </trkpt>
      <trkpt lat="49.35393" lon="1.3112">
        <ele>63</ele>
        <time>2017-06-27T16:21:09Z</time>
      </trkpt>
      <trkpt lat="49.35393" lon="1.31111">
        <ele>63</ele>
        <time>2017-06-27T16:21:10Z</time>
      </trkpt>
      <trkpt lat="49.35398" lon="1.31107">
        <ele>63</ele>
        <time>2017-06-27T16:21:10Z</time>
      </trkpt>
      <trkpt lat="49.354" lon="1.31099">
        <ele>63</ele>
        <time>2017-06-27T16:21:10Z</time>
      </trkpt>
      <trkpt lat="49.35401" lon="1.31094">
        <ele>63</ele>
        <time>2017-06-27T16:21:26Z</time>
      </trkpt>
      <trkpt lat="49.35401" lon="1.31085">
        <ele>63</ele>
        <time>2017-06-27T16:21:26Z</time>
      </trkpt>
      <trkpt lat="49.35399" lon="1.31073">
        <ele>63</ele>
        <time>2017-06-27T16:21:26Z</time>
      </trkpt>
      <trkpt lat="49.35401" lon="1.31068">
        <ele>63</ele>
        <time>2017-06-27T16:21:26Z</time>
      </trkpt>
      <trkpt lat="49.35399" lon="1.3106">
        <ele>63</ele>
        <time>2017-06-27T16:21:41Z</time>
      </trkpt>
      <trkpt lat="49.35401" lon="1.31052">
        <ele>63</ele>
        <time>2017-06-27T16:21:42Z</time>
      </trkpt>
      <trkpt lat="49.35401" lon="1.31048">
        <ele>63</ele>
        <time>2017-06-27T16:21:42Z</time>
      </trkpt>
      <trkpt lat="49.35404" lon="1.31044">
        <ele>63</ele>
        <time>2017-06-27T16:21:42Z</time>
      </trkpt>
      <trkpt lat="49.35403" lon="1.31031">
        <ele>62</ele>
        <time>2017-06-27T16:21:57Z</time>
      </trkpt>
      <trkpt lat="49.35402" lon="1.31023">
        <ele>62</ele>
        <time>2017-06-27T16:21:57Z</time>
      </trkpt>
      <trkpt lat="49.35401" lon="1.31016">
        <ele>62</ele>
        <time>2017-06-27T16:21:57Z</time>
      </trkpt>
      <trkpt lat="49.35403" lon="1.31009">
        <ele>62</ele>
        <time>2017-06-27T16:21:57Z</time>
      </trkpt>
      <trkpt lat="49.35404" lon="1.31002">
        <ele>62</ele>
        <time>2017-06-27T16:22:14Z</time>
      </trkpt>
      <trkpt lat="49.35401" lon="1.30996">
        <ele>62</ele>
        <time>2017-06-27T16:22:14Z</time>
      </trkpt>
      <trkpt lat="49.35395" lon="1.30985">
        <ele>62</ele>
        <time>2017-06-27T16:22:14Z</time>
      </trkpt>
      <trkpt lat="49.35393" lon="1.30971">
        <ele>62</ele>
        <time>2017-06-27T16:22:14Z</time>
      </trkpt>
      <trkpt lat="49.35396" lon="1.30969">
        <ele>62</ele>
        <time>2017-06-27T16:22:28Z</time>
      </trkpt>
      <trkpt lat="49.35392" lon="1.30962">
        <ele>62</ele>
        <time>2017-06-27T16:22:28Z</time>
      </trkpt>
      <trkpt lat="49.35389" lon="1.3095">
        <ele>68</ele>
        <time>2017-06-27T16:22:28Z</time>
      </trkpt>
      <trkpt lat="49.35388" lon="1.30944">
        <ele>68</ele>
        <time>2017-06-27T16:22:28Z</time>
      </trkpt>
      <trkpt lat="49.35391" lon="1.30941">
        <ele>68</ele>
        <time>2017-06-27T16:22:44Z</time>
      </trkpt>
      <trkpt lat="49.35391" lon="1.30936">
        <ele>68</ele>
        <time>2017-06-27T16:22:44Z</time>
      </trkpt>
      <trkpt lat="49.3539" lon="1.3093">
        <ele>68</ele>
        <time>2017-06-27T16:22:44Z</time>
      </trkpt>
      <trkpt lat="49.35392" lon="1.30925">
        <ele>68</ele>
        <time>2017-06-27T16:22:44Z</time>
      </trkpt>
      <trkpt lat="49.35387" lon="1.30915">
        <ele>68</ele>
        <time>2017-06-27T16:23:01Z</time>
      </trkpt>
      <trkpt lat="49.35388" lon="1.30911">
        <ele>68</ele>
        <time>2017-06-27T16:23:02Z</time>
      </trkpt>
      <trkpt lat="49.35383" lon="1.30903">
        <ele>68</ele>
        <time>2017-06-27T16:23:02Z</time>
      </trkpt>
      <trkpt lat="49.35376" lon="1.30892">
        <ele>68</ele>
        <time>2017-06-27T16:23:02Z</time>
      </trkpt>
      <trkpt lat="49.35376" lon="1.30888">
        <ele>68</ele>
        <time>2017-06-27T16:23:17Z</time>
      </trkpt>
      <trkpt lat="49.35378" lon="1.30884">
        <ele>68</ele>
        <time>2017-06-27T16:23:17Z</time>
      </trkpt>
      <trkpt lat="49.35376" lon="1.30878">
        <ele>68</ele>
        <time>2017-06-27T16:23:17Z</time>
      </trkpt>
      <trkpt lat="49.35374" lon="1.3087">
        <ele>68</ele>
        <time>2017-06-27T16:23:17Z</time>
      </trkpt>
      <trkpt lat="49.35373" lon="1.30864">
        <ele>68</ele>
        <time>2017-06-27T16:23:32Z</time>
      </trkpt>
      <trkpt lat="49.35371" lon="1.30859">
        <ele>68</ele>
        <time>2017-06-27T16:23:32Z</time>
      </trkpt>
      <trkpt lat="49.35367" lon="1.30849">
        <ele>68</ele>
        <time>2017-06-27T16:23:32Z</time>
      </trkpt>
      <trkpt lat="49.35366" lon="1.30847">
        <ele>68</ele>
        <time>2017-06-27T16:23:32Z</time>
      </trkpt>
      <trkpt lat="49.35363" lon="1.30838">
        <ele>68</ele>
        <time>2017-06-27T16:23:49Z</time>
      </trkpt>
      <trkpt lat="49.35363" lon="1.30835">
        <ele>68</ele>
        <time>2017-06-27T16:23:49Z</time>
      </trkpt>
      <trkpt lat="49.35359" lon="1.30825">
        <ele>68</ele>
        <time>2017-06-27T16:23:49Z</time>
      </trkpt>
      <trkpt lat="49.35355" lon="1.30816">
        <ele>68</ele>
        <time>2017-06-27T16:23:49Z</time>
      </trkpt>
      <trkpt lat="49.35357" lon="1.30814">
        <ele>68</ele>
        <time>2017-06-27T16:24:05Z</time>
      </trkpt>
      <trkpt lat="49.35354" lon="1.30805">
        <ele>68</ele>
        <time>2017-06-27T16:24:06Z</time>
      </trkpt>
      <trkpt lat="49.35356" lon="1.30801">
        <ele>68</ele>
        <time>2017-06-27T16:24:06Z</time>
      </trkpt>
      <trkpt lat="49.35353" lon="1.30791">
        <ele>68</ele>
        <time>2017-06-27T16:24:06Z</time>
      </trkpt>
      <trkpt lat="49.35354" lon="1.30788">
        <ele>68</ele>
        <time>2017-06-27T16:24:21Z</time>
      </trkpt>
      <trkpt lat="49.35349" lon="1.30776">
        <ele>68</ele>
        <time>2017-06-27T16:24:21Z</time>
      </trkpt>
      <trkpt lat="49.35349" lon="1.30769">
        <ele>68</ele>
        <time>2017-06-27T16:24:21Z</time>
      </trkpt>
      <trkpt lat="49.35348" lon="1.30762">
        <ele>68</ele>
        <time>2017-06-27T16:24:21Z</time>
      </trkpt>
      <trkpt lat="49.35347" lon="1.30756">
        <ele>68</ele>
        <time>2017-06-27T16:24:38Z</time>
      </trkpt>
      <trkpt lat="49.35343" lon="1.30744">
        <ele>68</ele>
        <time>2017-06-27T16:24:39Z</time>
      </trkpt>
      <trkpt lat="49.35339" lon="1.30733">
        <ele>68</ele>
        <time>2017-06-27T16:24:39Z</time>
      </trkpt>
      <trkpt lat="49.35336" lon="1.30723">
        <ele>68</ele>
        <time>2017-06-27T16:24:39Z</time>
      </trkpt>
      <trkpt lat="49.35337" lon="1.30719">
        <ele>68</ele>
        <time>2017-06-27T16:24:53Z</time>
      </trkpt>
      <trkpt lat="49.35336" lon="1.30711">
        <ele>68</ele>
        <time>2017-06-27T16:24:54Z</time>
      </trkpt>
      <trkpt lat="49.35336" lon="1.30702">
        <ele>68</ele>
        <time>2017-06-27T16:24:54Z</time>
      </trkpt>
      <trkpt lat="49.35336" lon="1.30694">
        <ele>68</ele>
        <time>2017-06-27T16:24:54Z</time>
      </trkpt>
      <trkpt lat="49.35333" lon="1.30683">
        <ele>68</ele>
        <time>2017-06-27T16:25:09Z</time>
      </trkpt>
      <trkpt lat="49.35335" lon="1.30677">
        <ele>68</ele>
        <time>2017-06-27T16:25:09Z</time>
      </trkpt>
      <trkpt lat="49.35334" lon="1.30668">
        <ele>68</ele>
        <time>2017-06-27T16:25:09Z</time>
      </trkpt>
      <trkpt lat="49.35337" lon="1.30664">
        <ele>68</ele>
        <time>2017-06-27T16:25:09Z</time>
      </trkpt>
      <trkpt lat="49.35338" lon="1.30657">
        <ele>68</ele>
        <time>2017-06-27T16:25:26Z</time>
      </trkpt>
      <trkpt lat="49.35339" lon="1.30648">
        <ele>68</ele>
        <time>2017-06-27T16:25:27Z</time>
      </trkpt>
      <trkpt lat="49.35341" lon="1.30643">
        <ele>68</ele>
        <time>2017-06-27T16:25:27Z</time>
      </trkpt>
      <trkpt lat="49.35345" lon="1.30636">
        <ele>68</ele>
        <time>2017-06-27T16:25:28Z</time>
      </trkpt>
      <trkpt lat="49.35343" lon="1.30627">
        <ele>68</ele>
        <time>2017-06-27T16:25:41Z</time>
      </trkpt>
      <trkpt lat="49.35345" lon="1.3062">
        <ele>68</ele>
        <time>2017-06-27T16:25:41Z</time>
      </trkpt>
      <trkpt lat="49.35346" lon="1.30611">
        <ele>68</ele>
        <time>2017-06-27T16:25:41Z</time>
      </trkpt>
      <trkpt lat="49.35348" lon="1.30608">
        <ele>68</ele>
        <time>2017-06-27T16:25:41Z</time>
      </trkpt>
      <trkpt lat="49.35348" lon="1.30601">
        <ele>68</ele>
        <time>2017-06-27T16:25:57Z</time>
      </trkpt>
      <trkpt lat="49.35349" lon="1.30593">
        <ele>68</ele>
        <time>2017-06-27T16:25:58Z</time>
      </trkpt>
      <trkpt lat="49.35349" lon="1.30588">
        <ele>68</ele>
        <time>2017-06-27T16:25:58Z</time>
      </trkpt>
      <trkpt lat="49.3535" lon="1.30577">
        <ele>68</ele>
        <time>2017-06-27T16:25:58Z</time>
      </trkpt>
      <trkpt lat="49.35352" lon="1.30573">
        <ele>68</ele>
        <time>2017-06-27T16:26:12Z</time>
      </trkpt>
      <trkpt lat="49.35349" lon="1.30558">
        <ele>68</ele>
        <time>2017-06-27T16:26:12Z</time>
      </trkpt>
      <trkpt lat="49.35351" lon="1.30551">
        <ele>68</ele>
        <time>2017-06-27T16:26:12Z</time>
      </trkpt>
      <trkpt lat="49.35358" lon="1.30551">
        <ele>68</ele>
        <time>2017-06-27T16:26:12Z</time>
      </trkpt>
      <trkpt lat="49.35361" lon="1.30543">
        <ele>68</ele>
        <time>2017-06-27T16:26:30Z</time>
      </trkpt>
      <trkpt lat="49.35362" lon="1.30538">
        <ele>69</ele>
        <time>2017-06-27T16:26:30Z</time>
      </trkpt>
      <trkpt lat="49.35364" lon="1.3053">
        <ele>69</ele>
        <time>2017-06-27T16:26:30Z</time>
      </trkpt>
      <trkpt lat="49.35367" lon="1.30524">
        <ele>69</ele>
        <time>2017-06-27T16:26:30Z</time>
      </trkpt>
      <trkpt lat="49.35366" lon="1.30515">
        <ele>69</ele>
        <time>2017-06-27T16:26:45Z</time>
      </trkpt>
      <trkpt lat="49.35368" lon="1.30506">
        <ele>69</ele>
        <time>2017-06-27T16:26:45Z</time>
      </trkpt>
      <trkpt lat="49.35369" lon="1.305">
        <ele>69</ele>
        <time>2017-06-27T16:26:45Z</time>
      </trkpt>
      <trkpt lat="49.35373" lon="1.30494">
        <ele>69</ele>
        <time>2017-06-27T16:26:45Z</time>
      </trkpt>
      <trkpt lat="49.35377" lon="1.30492">
        <ele>77</ele>
        <time>2017-06-27T16:27:00Z</time>
      </trkpt>
      <trkpt lat="49.35381" lon="1.30485">
        <ele>77</ele>
        <time>2017-06-27T16:27:00Z</time>
      </trkpt>
      <trkpt lat="49.35382" lon="1.30482">
        <ele>77</ele>
        <time>2017-06-27T16:27:00Z</time>
      </trkpt>
      <trkpt lat="49.35385" lon="1.30473">
        <ele>77</ele>
        <time>2017-06-27T16:27:00Z</time>
      </trkpt>
      <trkpt lat="49.35385" lon="1.30465">
        <ele>77</ele>
        <time>2017-06-27T16:27:17Z</time>
      </trkpt>
      <trkpt lat="49.35384" lon="1.30453">
        <ele>74</ele>
        <time>2017-06-27T16:27:17Z</time>
      </trkpt>
      <trkpt lat="49.35383" lon="1.30447">
        <ele>74</ele>
        <time>2017-06-27T16:27:17Z</time>
      </trkpt>
      <trkpt lat="49.35385" lon="1.30445">
        <ele>74</ele>
        <time>2017-06-27T16:27:17Z</time>
      </trkpt>
      <trkpt lat="49.35389" lon="1.30437">
        <ele>74</ele>
        <time>2017-06-27T16:27:33Z</time>
      </trkpt>
      <trkpt lat="49.35395" lon="1.30434">
        <ele>74</ele>
        <time>2017-06-27T16:27:34Z</time>
      </trkpt>
      <trkpt lat="49.35395" lon="1.30426">
        <ele>74</ele>
        <time>2017-06-27T16:27:34Z</time>
      </trkpt>
      <trkpt lat="49.35398" lon="1.30419">
        <ele>74</ele>
        <time>2017-06-27T16:27:34Z</time>
      </trkpt>
      <trkpt lat="49.35398" lon="1.30411">
        <ele>74</ele>
        <time>2017-06-27T16:27:48Z</time>
      </trkpt>
      <trkpt lat="49.354" lon="1.30406">
        <ele>74</ele>
        <time>2017-06-27T16:27:48Z</time>
      </trkpt>
      <trkpt lat="49.35403" lon="1.30401">
        <ele>74</ele>
        <time>2017-06-27T16:27:48Z</time>
      </trkpt>
      <trkpt lat="49.35405" lon="1.30396">
        <ele>74</ele>
        <time>2017-06-27T16:27:48Z</time>
      </trkpt>
      <trkpt lat="49.35404" lon="1.30389">
        <ele>74</ele>
        <time>2017-06-27T16:28:05Z</time>
      </trkpt>
      <trkpt lat="49.35406" lon="1.30385">
        <ele>74</ele>
        <time>2017-06-27T16:28:06Z</time>
      </trkpt>
      <trkpt lat="49.35406" lon="1.3038">
        <ele>74</ele>
        <time>2017-06-27T16:28:06Z</time>
      </trkpt>
      <trkpt lat="49.35408" lon="1.30375">
        <ele>74</ele>
        <time>2017-06-27T16:28:06Z</time>
      </trkpt>
      <trkpt lat="49.35407" lon="1.30363">
        <ele>74</ele>
        <time>2017-06-27T16:28:20Z</time>
      </trkpt>
      <trkpt lat="49.35408" lon="1.30357">
        <ele>74</ele>
        <time>2017-06-27T16:28:20Z</time>
      </trkpt>
      <trkpt lat="49.35399" lon="1.30343">
        <ele>74</ele>
        <time>2017-06-27T16:28:21Z</time>
      </trkpt>
      <trkpt lat="49.35395" lon="1.30331">
        <ele>74</ele>
        <time>2017-06-27T16:28:21Z</time>
      </trkpt>
      <trkpt lat="49.35394" lon="1.30324">
        <ele>74</ele>
        <time>2017-06-27T16:28:37Z</time>
      </trkpt>
      <trkpt lat="49.35392" lon="1.3031">
        <ele>74</ele>
        <time>2017-06-27T16:28:38Z</time>
      </trkpt>
      <trkpt lat="49.35393" lon="1.30306">
        <ele>74</ele>
        <time>2017-06-27T16:28:38Z</time>
      </trkpt>
      <trkpt lat="49.35393" lon="1.303">
        <ele>74</ele>
        <time>2017-06-27T16:28:38Z</time>
      </trkpt>
      <trkpt lat="49.35392" lon="1.30289">
        <ele>73</ele>
        <time>2017-06-27T16:28:53Z</time>
      </trkpt>
      <trkpt lat="49.35392" lon="1.30275">
        <ele>73</ele>
        <time>2017-06-27T16:28:53Z</time>
      </trkpt>
      <trkpt lat="49.35391" lon="1.30267">
        <ele>73</ele>
        <time>2017-06-27T16:28:53Z</time>
      </trkpt>
      <trkpt lat="49.35397" lon="1.30264">
        <ele>73</ele>
        <time>2017-06-27T16:28:53Z</time>
      </trkpt>
      <trkpt lat="49.35398" lon="1.30258">
        <ele>73</ele>
        <time>2017-06-27T16:29:09Z</time>
      </trkpt>
      <trkpt lat="49.35397" lon="1.30252">
        <ele>73</ele>
        <time>2017-06-27T16:29:10Z</time>
      </trkpt>
      <trkpt lat="49.35396" lon="1.30242">
        <ele>73</ele>
        <time>2017-06-27T16:29:10Z</time>
      </trkpt>
      <trkpt lat="49.354" lon="1.30236">
        <ele>73</ele>
        <time>2017-06-27T16:29:10Z</time>
      </trkpt>
      <trkpt lat="49.35399" lon="1.30224">
        <ele>73</ele>
        <time>2017-06-27T16:29:26Z</time>
      </trkpt>
      <trkpt lat="49.35398" lon="1.30212">
        <ele>73</ele>
        <time>2017-06-27T16:29:26Z</time>
      </trkpt>
      <trkpt lat="49.35399" lon="1.30202">
        <ele>71</ele>
        <time>2017-06-27T16:29:26Z</time>
      </trkpt>
      <trkpt lat="49.354" lon="1.30193">
        <ele>71</ele>
        <time>2017-06-27T16:29:26Z</time>
      </trkpt>
      <trkpt lat="49.35399" lon="1.30187">
        <ele>71</ele>
        <time>2017-06-27T16:29:41Z</time>
      </trkpt>
      <trkpt lat="49.35397" lon="1.30177">
        <ele>71</ele>
        <time>2017-06-27T16:29:42Z</time>
      </trkpt>
      <trkpt lat="49.35398" lon="1.3017">
        <ele>71</ele>
        <time>2017-06-27T16:29:42Z</time>
      </trkpt>
      <trkpt lat="49.35401" lon="1.30166">
        <ele>71</ele>
        <time>2017-06-27T16:29:42Z</time>
      </trkpt>
      <trkpt lat="49.35403" lon="1.30161">
        <ele>71</ele>
        <time>2017-06-27T16:29:58Z</time>
      </trkpt>
      <trkpt lat="49.35407" lon="1.30155">
        <ele>71</ele>
        <time>2017-06-27T16:29:58Z</time>
      </trkpt>
      <trkpt lat="49.35408" lon="1.30146">
        <ele>71</ele>
        <time>2017-06-27T16:29:58Z</time>
      </trkpt>
      <trkpt lat="49.35408" lon="1.30138">
        <ele>71</ele>
        <time>2017-06-27T16:29:58Z</time>
      </trkpt>
      <trkpt lat="49.35411" lon="1.30137">
        <ele>71</ele>
        <time>2017-06-27T16:30:14Z</time>
      </trkpt>
      <trkpt lat="49.35411" lon="1.30127">
        <ele>71</ele>
        <time>2017-06-27T16:30:14Z</time>
      </trkpt>
      <trkpt lat="49.35418" lon="1.30124">
        <ele>70</ele>
        <time>2017-06-27T16:30:14Z</time>
      </trkpt>
      <trkpt lat="49.35418" lon="1.30118">
        <ele>70</ele>
        <time>2017-06-27T16:30:14Z</time>
      </trkpt>
      <trkpt lat="49.35418" lon="1.30108">
        <ele>70</ele>
        <time>2017-06-27T16:30:29Z</time>
      </trkpt>
      <trkpt lat="49.35418" lon="1.30101">
        <ele>70</ele>
        <time>2017-06-27T16:30:29Z</time>
      </trkpt>
      <trkpt lat="49.35419" lon="1.30091">
        <ele>70</ele>
        <time>2017-06-27T16:30:29Z</time>
      </trkpt>
      <trkpt lat="49.35419" lon="1.30084">
        <ele>70</ele>
        <time>2017-06-27T16:30:29Z</time>
      </trkpt>
      <trkpt lat="49.3542" lon="1.30077">
        <ele>70</ele>
        <time>2017-06-27T16:30:45Z</time>
      </trkpt>
      <trkpt lat="49.35424" lon="1.30071">
        <ele>70</ele>
        <time>2017-06-27T16:30:45Z</time>
      </trkpt>
      <trkpt lat="49.35423" lon="1.30063">
        <ele>70</ele>
        <time>2017-06-27T16:30:45Z</time>
      </trkpt>
      <trkpt lat="49.35423" lon="1.30056">
        <ele>70</ele>
        <time>2017-06-27T16:30:45Z</time>
      </trkpt>
      <trkpt lat="49.35424" lon="1.30047">
        <ele>70</ele>
        <time>2017-06-27T16:31:01Z</time>
      </trkpt>
      <trkpt lat="49.35424" lon="1.30041">
        <ele>71</ele>
        <time>2017-06-27T16:31:01Z</time>
      </trkpt>
      <trkpt lat="49.35429" lon="1.30033">
        <ele>71</ele>
        <time>2017-06-27T16:31:01Z</time>
      </trkpt>
      <trkpt lat="49.35427" lon="1.30024">
        <ele>71</ele>
        <time>2017-06-27T16:31:01Z</time>
      </trkpt>
      <trkpt lat="49.35424" lon="1.30012">
        <ele>71</ele>
        <time>2017-06-27T16:31:18Z</time>
      </trkpt>
      <trkpt lat="49.35431" lon="1.30008">
        <ele>71</ele>
        <time>2017-06-27T16:31:18Z</time>
      </trkpt>
      <trkpt lat="49.35428" lon="1.29996">
        <ele>71</ele>
        <time>2017-06-27T16:31:18Z</time>
      </trkpt>
      <trkpt lat="49.35429" lon="1.29989">
        <ele>71</ele>
        <time>2017-06-27T16:31:18Z</time>
      </trkpt>
      <trkpt lat="49.35433" lon="1.29987">
        <ele>71</ele>
        <time>2017-06-27T16:31:33Z</time>
      </trkpt>
      <trkpt lat="49.35434" lon="1.29978">
        <ele>71</ele>
        <time>2017-06-27T16:31:34Z</time>
      </trkpt>
      <trkpt lat="49.35439" lon="1.29977">
        <ele>71</ele>
        <time>2017-06-27T16:31:34Z</time>
      </trkpt>
      <trkpt lat="49.35437" lon="1.29965">
        <ele>71</ele>
        <time>2017-06-27T16:31:34Z</time>
      </trkpt>
      <trkpt lat="49.35438" lon="1.29957">
        <ele>73</ele>
        <time>2017-06-27T16:31:48Z</time>
      </trkpt>
      <trkpt lat="49.3544" lon="1.29951">
        <ele>73</ele>
        <time>2017-06-27T16:31:48Z</time>
      </trkpt>
      <trkpt lat="49.35439" lon="1.29941">
        <ele>73</ele>
        <time>2017-06-27T16:31:48Z</time>
      </trkpt>
      <trkpt lat="49.35438" lon="1.29933">
        <ele>73</ele>
        <time>2017-06-27T16:31:48Z</time>
      </trkpt>
      <trkpt lat="49.3544" lon="1.29924">
        <ele>73</ele>
        <time>2017-06-27T16:32:05Z</time>
      </trkpt>
      <trkpt lat="49.35442" lon="1.2992">
        <ele>73</ele>
        <time>2017-06-27T16:32:05Z</time>
      </trkpt>
      <trkpt lat="49.35443" lon="1.29912">
        <ele>73</ele>
        <time>2017-06-27T16:32:05Z</time>
      </trkpt>
      <trkpt lat="49.35447" lon="1.2991">
        <ele>73</ele>
        <time>2017-06-27T16:32:05Z</time>
      </trkpt>
      <trkpt lat="49.35446" lon="1.29899">
        <ele>73</ele>
        <time>2017-06-27T16:32:21Z</time>
      </trkpt>
      <trkpt lat="49.35442" lon="1.29891">
        <ele>73</ele>
        <time>2017-06-27T16:32:21Z</time>
      </trkpt>
      <trkpt lat="49.35443" lon="1.29881">
        <ele>73</ele>
        <time>2017-06-27T16:32:21Z</time>
      </trkpt>
      <trkpt lat="49.35443" lon="1.29865">
        <ele>78</ele>
        <time>2017-06-27T16:32:21Z</time>
      </trkpt>
      <trkpt lat="49.35444" lon="1.29858">
        <ele>78</ele>
        <time>2017-06-27T16:32:38Z</time>
      </trkpt>
      <trkpt lat="49.35443" lon="1.29851">
        <ele>78</ele>
        <time>2017-06-27T16:32:39Z</time>
      </trkpt>
      <trkpt lat="49.35445" lon="1.29843">
        <ele>78</ele>
        <time>2017-06-27T16:32:39Z</time>
      </trkpt>
      <trkpt lat="49.35449" lon="1.29834">
        <ele>78</ele>
        <time>2017-06-27T16:32:39Z</time>
      </trkpt>
      <trkpt lat="49.35454" lon="1.2984">
        <ele>78</ele>
        <time>2017-06-27T16:32:57Z</time>
      </trkpt>
      <trkpt lat="49.35455" lon="1.29837">
        <ele>78</ele>
        <time>2017-06-27T16:32:57Z</time>
      </trkpt>
      <trkpt lat="49.35454" lon="1.29834">
        <ele>78</ele>
        <time>2017-06-27T16:32:57Z</time>
      </trkpt>
      <trkpt lat="49.35459" lon="1.29831">
        <ele>77</ele>
        <time>2017-06-27T16:32:58Z</time>
      </trkpt>
      <trkpt lat="49.35464" lon="1.2982">
        <ele>77</ele>
        <time>2017-06-27T16:32:58Z</time>
      </trkpt>
      <trkpt lat="49.35465" lon="1.29811">
        <ele>77</ele>
        <time>2017-06-27T16:33:14Z</time>
      </trkpt>
      <trkpt lat="49.35469" lon="1.29799">
        <ele>77</ele>
        <time>2017-06-27T16:33:15Z</time>
      </trkpt>
      <trkpt lat="49.35478" lon="1.29797">
        <ele>77</ele>
        <time>2017-06-27T16:33:15Z</time>
      </trkpt>
      <trkpt lat="49.35487" lon="1.29797">
        <ele>77</ele>
        <time>2017-06-27T16:33:15Z</time>
      </trkpt>
      <trkpt lat="49.35487" lon="1.2979">
        <ele>74</ele>
        <time>2017-06-27T16:33:30Z</time>
      </trkpt>
      <trkpt lat="49.35492" lon="1.29791">
        <ele>74</ele>
        <time>2017-06-27T16:33:30Z</time>
      </trkpt>
      <trkpt lat="49.35498" lon="1.29789">
        <ele>74</ele>
        <time>2017-06-27T16:33:31Z</time>
      </trkpt>
      <trkpt lat="49.35504" lon="1.29787">
        <ele>74</ele>
        <time>2017-06-27T16:33:31Z</time>
      </trkpt>
      <trkpt lat="49.35511" lon="1.29792">
        <ele>77</ele>
        <time>2017-06-27T16:33:45Z</time>
      </trkpt>
      <trkpt lat="49.35518" lon="1.29784">
        <ele>74</ele>
        <time>2017-06-27T16:33:45Z</time>
      </trkpt>
      <trkpt lat="49.35529" lon="1.2979">
        <ele>74</ele>
        <time>2017-06-27T16:33:45Z</time>
      </trkpt>
      <trkpt lat="49.35535" lon="1.2979">
        <ele>74</ele>
        <time>2017-06-27T16:33:45Z</time>
      </trkpt>
      <trkpt lat="49.35535" lon="1.29788">
        <ele>74</ele>
        <time>2017-06-27T16:34:01Z</time>
      </trkpt>
      <trkpt lat="49.35543" lon="1.29787">
        <ele>75</ele>
        <time>2017-06-27T16:34:01Z</time>
      </trkpt>
      <trkpt lat="49.35548" lon="1.29785">
        <ele>75</ele>
        <time>2017-06-27T16:34:01Z</time>
      </trkpt>
      <trkpt lat="49.35552" lon="1.29787">
        <ele>75</ele>
        <time>2017-06-27T16:34:01Z</time>
      </trkpt>
      <trkpt lat="49.35558" lon="1.29786">
        <ele>75</ele>
        <time>2017-06-27T16:34:17Z</time>
      </trkpt>
      <trkpt lat="49.35561" lon="1.29778">
        <ele>75</ele>
        <time>2017-06-27T16:34:18Z</time>
      </trkpt>
      <trkpt lat="49.35561" lon="1.29771">
        <ele>75</ele>
        <time>2017-06-27T16:34:18Z</time>
      </trkpt>
      <trkpt lat="49.35563" lon="1.29764">
        <ele>75</ele>
        <time>2017-06-27T16:34:18Z</time>
      </trkpt>
      <trkpt lat="49.35566" lon="1.2976">
        <ele>75</ele>
        <time>2017-06-27T16:34:34Z</time>
      </trkpt>
      <trkpt lat="49.35564" lon="1.2975">
        <ele>75</ele>
        <time>2017-06-27T16:34:35Z</time>
      </trkpt>
      <trkpt lat="49.35568" lon="1.2975">
        <ele>75</ele>
        <time>2017-06-27T16:34:35Z</time>
      </trkpt>
      <trkpt lat="49.35572" lon="1.29746">
        <ele>75</ele>
        <time>2017-06-27T16:34:35Z</time>
      </trkpt>
      <trkpt lat="49.3558" lon="1.29751">
        <ele>75</ele>
        <time>2017-06-27T16:34:48Z</time>
      </trkpt>
      <trkpt lat="49.35586" lon="1.2975">
        <ele>75</ele>
        <time>2017-06-27T16:34:48Z</time>
      </trkpt>
      <trkpt lat="49.35591" lon="1.29747">
        <ele>75</ele>
        <time>2017-06-27T16:34:48Z</time>
      </trkpt>
      <trkpt lat="49.35596" lon="1.29744">
        <ele>75</ele>
        <time>2017-06-27T16:34:48Z</time>
      </trkpt>
      <trkpt lat="49.35601" lon="1.29741">
        <ele>75</ele>
        <time>2017-06-27T16:35:06Z</time>
      </trkpt>
      <trkpt lat="49.35603" lon="1.29734">
        <ele>75</ele>
        <time>2017-06-27T16:35:06Z</time>
      </trkpt>
      <trkpt lat="49.35603" lon="1.29725">
        <ele>75</ele>
        <time>2017-06-27T16:35:06Z</time>
      </trkpt>
      <trkpt lat="49.35606" lon="1.2972">
        <ele>75</ele>
        <time>2017-06-27T16:35:06Z</time>
      </trkpt>
      <trkpt lat="49.35608" lon="1.29715">
        <ele>75</ele>
        <time>2017-06-27T16:35:22Z</time>
      </trkpt>
      <trkpt lat="49.35612" lon="1.29715">
        <ele>75</ele>
        <time>2017-06-27T16:35:22Z</time>
      </trkpt>
      <trkpt lat="49.35617" lon="1.29711">
        <ele>75</ele>
        <time>2017-06-27T16:35:22Z</time>
      </trkpt>
      <trkpt lat="49.35621" lon="1.29709">
        <ele>75</ele>
        <time>2017-06-27T16:35:22Z</time>
      </trkpt>
      <trkpt lat="49.35624" lon="1.29704">
        <ele>79</ele>
        <time>2017-06-27T16:35:38Z</time>
      </trkpt>
      <trkpt lat="49.35629" lon="1.29699">
        <ele>81</ele>
        <time>2017-06-27T16:35:38Z</time>
      </trkpt>
      <trkpt lat="49.35634" lon="1.29695">
        <ele>81</ele>
        <time>2017-06-27T16:35:38Z</time>
      </trkpt>
      <trkpt lat="49.35638" lon="1.29684">
        <ele>81</ele>
        <time>2017-06-27T16:35:39Z</time>
      </trkpt>
      <trkpt lat="49.35641" lon="1.29679">
        <ele>81</ele>
        <time>2017-06-27T16:35:54Z</time>
      </trkpt>
      <trkpt lat="49.35645" lon="1.29672">
        <ele>81</ele>
        <time>2017-06-27T16:35:54Z</time>
      </trkpt>
      <trkpt lat="49.35648" lon="1.29666">
        <ele>81</ele>
        <time>2017-06-27T16:35:54Z</time>
      </trkpt>
      <trkpt lat="49.35651" lon="1.29661">
        <ele>81</ele>
        <time>2017-06-27T16:35:54Z</time>
      </trkpt>
      <trkpt lat="49.35653" lon="1.29653">
        <ele>81</ele>
        <time>2017-06-27T16:36:09Z</time>
      </trkpt>
      <trkpt lat="49.35657" lon="1.29649">
        <ele>81</ele>
        <time>2017-06-27T16:36:09Z</time>
      </trkpt>
      <trkpt lat="49.35658" lon="1.29639">
        <ele>81</ele>
        <time>2017-06-27T16:36:09Z</time>
      </trkpt>
      <trkpt lat="49.35659" lon="1.29632">
        <ele>81</ele>
        <time>2017-06-27T16:36:09Z</time>
      </trkpt>
      <trkpt lat="49.3566" lon="1.29625">
        <ele>81</ele>
        <time>2017-06-27T16:36:26Z</time>
      </trkpt>
      <trkpt lat="49.35663" lon="1.29619">
        <ele>77</ele>
        <time>2017-06-27T16:36:26Z</time>
      </trkpt>
      <trkpt lat="49.35665" lon="1.29613">
        <ele>77</ele>
        <time>2017-06-27T16:36:26Z</time>
      </trkpt>
      <trkpt lat="49.35668" lon="1.29609">
        <ele>77</ele>
        <time>2017-06-27T16:36:26Z</time>
      </trkpt>
      <trkpt lat="49.35669" lon="1.29606">
        <ele>77</ele>
        <time>2017-06-27T16:36:40Z</time>
      </trkpt>
      <trkpt lat="49.3567" lon="1.29597">
        <ele>77</ele>
        <time>2017-06-27T16:36:41Z</time>
      </trkpt>
      <trkpt lat="49.35673" lon="1.2959">
        <ele>77</ele>
        <time>2017-06-27T16:36:41Z</time>
      </trkpt>
      <trkpt lat="49.35672" lon="1.2958">
        <ele>77</ele>
        <time>2017-06-27T16:36:42Z</time>
      </trkpt>
      <trkpt lat="49.35676" lon="1.29575">
        <ele>77</ele>
        <time>2017-06-27T16:36:58Z</time>
      </trkpt>
      <trkpt lat="49.35681" lon="1.2957">
        <ele>77</ele>
        <time>2017-06-27T16:36:58Z</time>
      </trkpt>
      <trkpt lat="49.35681" lon="1.2956">
        <ele>77</ele>
        <time>2017-06-27T16:36:58Z</time>
      </trkpt>
      <trkpt lat="49.3568" lon="1.29549">
        <ele>77</ele>
        <time>2017-06-27T16:36:58Z</time>
      </trkpt>
      <trkpt lat="49.35683" lon="1.29544">
        <ele>77</ele>
        <time>2017-06-27T16:37:13Z</time>
      </trkpt>
      <trkpt lat="49.35684" lon="1.29537">
        <ele>73</ele>
        <time>2017-06-27T16:37:13Z</time>
      </trkpt>
      <trkpt lat="49.35683" lon="1.29523">
        <ele>73</ele>
        <time>2017-06-27T16:37:13Z</time>
      </trkpt>
      <trkpt lat="49.35687" lon="1.29521">
        <ele>73</ele>
        <time>2017-06-27T16:37:13Z</time>
      </trkpt>
      <trkpt lat="49.35692" lon="1.29518">
        <ele>73</ele>
        <time>2017-06-27T16:37:29Z</time>
      </trkpt>
      <trkpt lat="49.35696" lon="1.29515">
        <ele>73</ele>
        <time>2017-06-27T16:37:30Z</time>
      </trkpt>
      <trkpt lat="49.35698" lon="1.29509">
        <ele>73</ele>
        <time>2017-06-27T16:37:30Z</time>
      </trkpt>
      <trkpt lat="49.35701" lon="1.29505">
        <ele>73</ele>
        <time>2017-06-27T16:37:30Z</time>
      </trkpt>
      <trkpt lat="49.35705" lon="1.29507">
        <ele>73</ele>
        <time>2017-06-27T16:37:49Z</time>
      </trkpt>
      <trkpt lat="49.35707" lon="1.29506">
        <ele>73</ele>
        <time>2017-06-27T16:37:49Z</time>
      </trkpt>
      <trkpt lat="49.3571" lon="1.29509">
        <ele>73</ele>
        <time>2017-06-27T16:37:49Z</time>
      </trkpt>
      <trkpt lat="49.35713" lon="1.29508">
        <ele>73</ele>
        <time>2017-06-27T16:37:49Z</time>
      </trkpt>
      <trkpt lat="49.35719" lon="1.29511">
        <ele>73</ele>
        <time>2017-06-27T16:37:49Z</time>
      </trkpt>
      <trkpt lat="49.35726" lon="1.29512">
        <ele>73</ele>
        <time>2017-06-27T16:38:05Z</time>
      </trkpt>
      <trkpt lat="49.35735" lon="1.29518">
        <ele>73</ele>
        <time>2017-06-27T16:38:05Z</time>
      </trkpt>
      <trkpt lat="49.35738" lon="1.29518">
        <ele>73</ele>
        <time>2017-06-27T16:38:05Z</time>
      </trkpt>
      <trkpt lat="49.35744" lon="1.2952">
        <ele>73</ele>
        <time>2017-06-27T16:38:05Z</time>
      </trkpt>
      <trkpt lat="49.35748" lon="1.29518">
        <ele>73</ele>
        <time>2017-06-27T16:38:22Z</time>
      </trkpt>
      <trkpt lat="49.35755" lon="1.29518">
        <ele>73</ele>
        <time>2017-06-27T16:38:22Z</time>
      </trkpt>
      <trkpt lat="49.35767" lon="1.29518">
        <ele>73</ele>
        <time>2017-06-27T16:38:22Z</time>
      </trkpt>
      <trkpt lat="49.35772" lon="1.29519">
        <ele>73</ele>
        <time>2017-06-27T16:38:22Z</time>
      </trkpt>
      <trkpt lat="49.35772" lon="1.29517">
        <ele>73</ele>
        <time>2017-06-27T16:38:36Z</time>
      </trkpt>
      <trkpt lat="49.35773" lon="1.29516">
        <ele>73</ele>
        <time>2017-06-27T16:38:36Z</time>
      </trkpt>
      <trkpt lat="49.35778" lon="1.29517">
        <ele>73</ele>
        <time>2017-06-27T16:38:36Z</time>
      </trkpt>
      <trkpt lat="49.35782" lon="1.29517">
        <ele>73</ele>
        <time>2017-06-27T16:38:36Z</time>
      </trkpt>
      <trkpt lat="49.35787" lon="1.29515">
        <ele>73</ele>
        <time>2017-06-27T16:38:52Z</time>
      </trkpt>
      <trkpt lat="49.35791" lon="1.29513">
        <ele>73</ele>
        <time>2017-06-27T16:38:53Z</time>
      </trkpt>
      <trkpt lat="49.35792" lon="1.29511">
        <ele>73</ele>
        <time>2017-06-27T16:38:53Z</time>
      </trkpt>
      <trkpt lat="49.35795" lon="1.29509">
        <ele>75</ele>
        <time>2017-06-27T16:38:54Z</time>
      </trkpt>
      <trkpt lat="49.35801" lon="1.29509">
        <ele>75</ele>
        <time>2017-06-27T16:39:09Z</time>
      </trkpt>
      <trkpt lat="49.35809" lon="1.29506">
        <ele>75</ele>
        <time>2017-06-27T16:39:10Z</time>
      </trkpt>
      <trkpt lat="49.35811" lon="1.29514">
        <ele>75</ele>
        <time>2017-06-27T16:39:10Z</time>
      </trkpt>
      <trkpt lat="49.35819" lon="1.29512">
        <ele>75</ele>
        <time>2017-06-27T16:39:10Z</time>
      </trkpt>
      <trkpt lat="49.35823" lon="1.29509">
        <ele>75</ele>
        <time>2017-06-27T16:39:24Z</time>
      </trkpt>
      <trkpt lat="49.35832" lon="1.29508">
        <ele>75</ele>
        <time>2017-06-27T16:39:24Z</time>
      </trkpt>
      <trkpt lat="49.35835" lon="1.29505">
        <ele>75</ele>
        <time>2017-06-27T16:39:24Z</time>
      </trkpt>
      <trkpt lat="49.35838" lon="1.29506">
        <ele>75</ele>
        <time>2017-06-27T16:39:24Z</time>
      </trkpt>
      <trkpt lat="49.35841" lon="1.29503">
        <ele>75</ele>
        <time>2017-06-27T16:39:41Z</time>
      </trkpt>
      <trkpt lat="49.35846" lon="1.29494">
        <ele>75</ele>
        <time>2017-06-27T16:39:41Z</time>
      </trkpt>
      <trkpt lat="49.35849" lon="1.29489">
        <ele>75</ele>
        <time>2017-06-27T16:39:41Z</time>
      </trkpt>
      <trkpt lat="49.35856" lon="1.29488">
        <ele>75</ele>
        <time>2017-06-27T16:39:41Z</time>
      </trkpt>
      <trkpt lat="49.35859" lon="1.29485">
        <ele>75</ele>
        <time>2017-06-27T16:39:57Z</time>
      </trkpt>
      <trkpt lat="49.35861" lon="1.29482">
        <ele>75</ele>
        <time>2017-06-27T16:39:57Z</time>
      </trkpt>
      <trkpt lat="49.35872" lon="1.29477">
        <ele>75</ele>
        <time>2017-06-27T16:39:57Z</time>
      </trkpt>
      <trkpt lat="49.35872" lon="1.29472">
        <ele>75</ele>
        <time>2017-06-27T16:39:57Z</time>
      </trkpt>
      <trkpt lat="49.35874" lon="1.29461">
        <ele>75</ele>
        <time>2017-06-27T16:40:14Z</time>
      </trkpt>
      <trkpt lat="49.35883" lon="1.29451">
        <ele>83</ele>
        <time>2017-06-27T16:40:15Z</time>
      </trkpt>
      <trkpt lat="49.35888" lon="1.29452">
        <ele>83</ele>
        <time>2017-06-27T16:40:15Z</time>
      </trkpt>
      <trkpt lat="49.35886" lon="1.29437">
        <ele>83</ele>
        <time>2017-06-27T16:40:15Z</time>
      </trkpt>
      <trkpt lat="49.35884" lon="1.29431">
        <ele>83</ele>
        <time>2017-06-27T16:40:29Z</time>
      </trkpt>
      <trkpt lat="49.35886" lon="1.29426">
        <ele>83</ele>
        <time>2017-06-27T16:40:29Z</time>
      </trkpt>
      <trkpt lat="49.35886" lon="1.29417">
        <ele>83</ele>
        <time>2017-06-27T16:40:29Z</time>
      </trkpt>
      <trkpt lat="49.35889" lon="1.2941">
        <ele>83</ele>
        <time>2017-06-27T16:40:29Z</time>
      </trkpt>
      <trkpt lat="49.35891" lon="1.29406">
        <ele>83</ele>
        <time>2017-06-27T16:40:46Z</time>
      </trkpt>
      <trkpt lat="49.35892" lon="1.29393">
        <ele>83</ele>
        <time>2017-06-27T16:40:46Z</time>
      </trkpt>
      <trkpt lat="49.35896" lon="1.29392">
        <ele>83</ele>
        <time>2017-06-27T16:40:46Z</time>
      </trkpt>
      <trkpt lat="49.35901" lon="1.2939">
        <ele>83</ele>
        <time>2017-06-27T16:40:46Z</time>
      </trkpt>
      <trkpt lat="49.35904" lon="1.29389">
        <ele>83</ele>
        <time>2017-06-27T16:41:01Z</time>
      </trkpt>
      <trkpt lat="49.35906" lon="1.29378">
        <ele>83</ele>
        <time>2017-06-27T16:41:01Z</time>
      </trkpt>
      <trkpt lat="49.35912" lon="1.29372">
        <ele>82</ele>
        <time>2017-06-27T16:41:01Z</time>
      </trkpt>
      <trkpt lat="49.35916" lon="1.29365">
        <ele>82</ele>
        <time>2017-06-27T16:41:01Z</time>
      </trkpt>
      <trkpt lat="49.35916" lon="1.29355">
        <ele>82</ele>
        <time>2017-06-27T16:41:16Z</time>
      </trkpt>
      <trkpt lat="49.35914" lon="1.29347">
        <ele>82</ele>
        <time>2017-06-27T16:41:17Z</time>
      </trkpt>
      <trkpt lat="49.3592" lon="1.29347">
        <ele>82</ele>
        <time>2017-06-27T16:41:17Z</time>
      </trkpt>
      <trkpt lat="49.35919" lon="1.29338">
        <ele>82</ele>
        <time>2017-06-27T16:41:17Z</time>
      </trkpt>
      <trkpt lat="49.35923" lon="1.29329">
        <ele>82</ele>
        <time>2017-06-27T16:41:33Z</time>
      </trkpt>
      <trkpt lat="49.35919" lon="1.29311">
        <ele>82</ele>
        <time>2017-06-27T16:41:33Z</time>
      </trkpt>
      <trkpt lat="49.35921" lon="1.29306">
        <ele>82</ele>
        <time>2017-06-27T16:41:34Z</time>
      </trkpt>
      <trkpt lat="49.35924" lon="1.29302">
        <ele>82</ele>
        <time>2017-06-27T16:41:34Z</time>
      </trkpt>
      <trkpt lat="49.35926" lon="1.29299">
        <ele>82</ele>
        <time>2017-06-27T16:41:48Z</time>
      </trkpt>
      <trkpt lat="49.35932" lon="1.29295">
        <ele>82</ele>
        <time>2017-06-27T16:41:48Z</time>
      </trkpt>
      <trkpt lat="49.35931" lon="1.29276">
        <ele>80</ele>
        <time>2017-06-27T16:41:48Z</time>
      </trkpt>
      <trkpt lat="49.35934" lon="1.29273">
        <ele>80</ele>
        <time>2017-06-27T16:41:48Z</time>
      </trkpt>
      <trkpt lat="49.35937" lon="1.29268">
        <ele>80</ele>
        <time>2017-06-27T16:42:06Z</time>
      </trkpt>
      <trkpt lat="49.35941" lon="1.2926">
        <ele>80</ele>
        <time>2017-06-27T16:42:06Z</time>
      </trkpt>
      <trkpt lat="49.35947" lon="1.29253">
        <ele>80</ele>
        <time>2017-06-27T16:42:06Z</time>
      </trkpt>
      <trkpt lat="49.35952" lon="1.29252">
        <ele>80</ele>
        <time>2017-06-27T16:42:06Z</time>
      </trkpt>
      <trkpt lat="49.35955" lon="1.29245">
        <ele>80</ele>
        <time>2017-06-27T16:42:21Z</time>
      </trkpt>
      <trkpt lat="49.3596" lon="1.29243">
        <ele>97</ele>
        <time>2017-06-27T16:42:21Z</time>
      </trkpt>
      <trkpt lat="49.35962" lon="1.29237">
        <ele>97</ele>
        <time>2017-06-27T16:42:21Z</time>
      </trkpt>
      <trkpt lat="49.3596" lon="1.29228">
        <ele>97</ele>
        <time>2017-06-27T16:42:22Z</time>
      </trkpt>
      <trkpt lat="49.35966" lon="1.29222">
        <ele>97</ele>
        <time>2017-06-27T16:42:37Z</time>
      </trkpt>
      <trkpt lat="49.35966" lon="1.29213">
        <ele>97</ele>
        <time>2017-06-27T16:42:37Z</time>
      </trkpt>
      <trkpt lat="49.35966" lon="1.29203">
        <ele>92</ele>
        <time>2017-06-27T16:42:37Z</time>
      </trkpt>
      <trkpt lat="49.35969" lon="1.292">
        <ele>92</ele>
        <time>2017-06-27T16:42:37Z</time>
      </trkpt>
      <trkpt lat="49.35975" lon="1.29198">
        <ele>92</ele>
        <time>2017-06-27T16:42:53Z</time>
      </trkpt>
      <trkpt lat="49.35976" lon="1.29193">
        <ele>92</ele>
        <time>2017-06-27T16:42:53Z</time>
      </trkpt>
      <trkpt lat="49.35974" lon="1.29178">
        <ele>92</ele>
        <time>2017-06-27T16:42:53Z</time>
      </trkpt>
      <trkpt lat="49.35974" lon="1.29173">
        <ele>92</ele>
        <time>2017-06-27T16:42:53Z</time>
      </trkpt>
      <trkpt lat="49.35977" lon="1.2917">
        <ele>92</ele>
        <time>2017-06-27T16:43:09Z</time>
      </trkpt>
      <trkpt lat="49.35983" lon="1.29163">
        <ele>92</ele>
        <time>2017-06-27T16:43:09Z</time>
      </trkpt>
      <trkpt lat="49.35984" lon="1.29157">
        <ele>92</ele>
        <time>2017-06-27T16:43:09Z</time>
      </trkpt>
      <trkpt lat="49.35988" lon="1.29152">
        <ele>92</ele>
        <time>2017-06-27T16:43:09Z</time>
      </trkpt>
      <trkpt lat="49.3599" lon="1.29148">
        <ele>92</ele>
        <time>2017-06-27T16:43:24Z</time>
      </trkpt>
      <trkpt lat="49.35995" lon="1.29147">
        <ele>92</ele>
        <time>2017-06-27T16:43:25Z</time>
      </trkpt>
      <trkpt lat="49.35994" lon="1.29138">
        <ele>92</ele>
        <time>2017-06-27T16:43:25Z</time>
      </trkpt>
      <trkpt lat="49.35994" lon="1.29131">
        <ele>92</ele>
        <time>2017-06-27T16:43:25Z</time>
      </trkpt>
      <trkpt lat="49.35992" lon="1.2912">
        <ele>85</ele>
        <time>2017-06-27T16:43:41Z</time>
      </trkpt>
      <trkpt lat="49.35996" lon="1.29117">
        <ele>85</ele>
        <time>2017-06-27T16:43:41Z</time>
      </trkpt>
      <trkpt lat="49.36" lon="1.29112">
        <ele>85</ele>
        <time>2017-06-27T16:43:42Z</time>
      </trkpt>
      <trkpt lat="49.36003" lon="1.29103">
        <ele>85</ele>
        <time>2017-06-27T16:43:42Z</time>
      </trkpt>
      <trkpt lat="49.36006" lon="1.29097">
        <ele>85</ele>
        <time>2017-06-27T16:43:56Z</time>
      </trkpt>
      <trkpt lat="49.36007" lon="1.29089">
        <ele>85</ele>
        <time>2017-06-27T16:43:57Z</time>
      </trkpt>
      <trkpt lat="49.36006" lon="1.29079">
        <ele>85</ele>
        <time>2017-06-27T16:43:57Z</time>
      </trkpt>
      <trkpt lat="49.36011" lon="1.29069">
        <ele>85</ele>
        <time>2017-06-27T16:43:57Z</time>
      </trkpt>
      <trkpt lat="49.36013" lon="1.2906">
        <ele>85</ele>
        <time>2017-06-27T16:44:14Z</time>
      </trkpt>
      <trkpt lat="49.36017" lon="1.29052">
        <ele>85</ele>
        <time>2017-06-27T16:44:15Z</time>
      </trkpt>
      <trkpt lat="49.36019" lon="1.29049">
        <ele>85</ele>
        <time>2017-06-27T16:44:15Z</time>
      </trkpt>
      <trkpt lat="49.36019" lon="1.29035">
        <ele>81</ele>
        <time>2017-06-27T16:44:15Z</time>
      </trkpt>
      <trkpt lat="49.36026" lon="1.29043">
        <ele>85</ele>
        <time>2017-06-27T16:44:29Z</time>
      </trkpt>
      <trkpt lat="49.36033" lon="1.29038">
        <ele>81</ele>
        <time>2017-06-27T16:44:29Z</time>
      </trkpt>
      <trkpt lat="49.36037" lon="1.29029">
        <ele>81</ele>
        <time>2017-06-27T16:44:30Z</time>
      </trkpt>
      <trkpt lat="49.36041" lon="1.29027">
        <ele>81</ele>
        <time>2017-06-27T16:44:30Z</time>
      </trkpt>
      <trkpt lat="49.36045" lon="1.29026">
        <ele>88</ele>
        <time>2017-06-27T16:44:44Z</time>
      </trkpt>
      <trkpt lat="49.36047" lon="1.29022">
        <ele>88</ele>
        <time>2017-06-27T16:44:44Z</time>
      </trkpt>
      <trkpt lat="49.36049" lon="1.29018">
        <ele>88</ele>
        <time>2017-06-27T16:44:44Z</time>
      </trkpt>
      <trkpt lat="49.36055" lon="1.29014">
        <ele>88</ele>
        <time>2017-06-27T16:44:44Z</time>
      </trkpt>
      <trkpt lat="49.3606" lon="1.2901">
        <ele>88</ele>
        <time>2017-06-27T16:45:01Z</time>
      </trkpt>
      <trkpt lat="49.36066" lon="1.29009">
        <ele>88</ele>
        <time>2017-06-27T16:45:01Z</time>
      </trkpt>
      <trkpt lat="49.36067" lon="1.29011">
        <ele>88</ele>
        <time>2017-06-27T16:45:01Z</time>
      </trkpt>
      <trkpt lat="49.36069" lon="1.29009">
        <ele>88</ele>
        <time>2017-06-27T16:45:01Z</time>
      </trkpt>
      <trkpt lat="49.36072" lon="1.29008">
        <ele>88</ele>
        <time>2017-06-27T16:45:16Z</time>
      </trkpt>
      <trkpt lat="49.36073" lon="1.29008">
        <ele>88</ele>
        <time>2017-06-27T16:45:16Z</time>
      </trkpt>
      <trkpt lat="49.36073" lon="1.29007">
        <ele>88</ele>
        <time>2017-06-27T16:45:16Z</time>
      </trkpt>
      <trkpt lat="49.36084" lon="1.29007">
        <ele>88</ele>
        <time>2017-06-27T16:45:16Z</time>
      </trkpt>
      <trkpt lat="49.36089" lon="1.29008">
        <ele>88</ele>
        <time>2017-06-27T16:45:33Z</time>
      </trkpt>
      <trkpt lat="49.36095" lon="1.29003">
        <ele>88</ele>
        <time>2017-06-27T16:45:33Z</time>
      </trkpt>
      <trkpt lat="49.36106" lon="1.28998">
        <ele>88</ele>
        <time>2017-06-27T16:45:33Z</time>
      </trkpt>
      <trkpt lat="49.36108" lon="1.2899">
        <ele>88</ele>
        <time>2017-06-27T16:45:33Z</time>
      </trkpt>
      <trkpt lat="49.36117" lon="1.2899">
        <ele>88</ele>
        <time>2017-06-27T16:45:49Z</time>
      </trkpt>
      <trkpt lat="49.36124" lon="1.28986">
        <ele>88</ele>
        <time>2017-06-27T16:45:49Z</time>
      </trkpt>
      <trkpt lat="49.36129" lon="1.2898">
        <ele>100</ele>
        <time>2017-06-27T16:45:49Z</time>
      </trkpt>
      <trkpt lat="49.36134" lon="1.28978">
        <ele>100</ele>
        <time>2017-06-27T16:45:49Z</time>
      </trkpt>
      <trkpt lat="49.36137" lon="1.28978">
        <ele>100</ele>
        <time>2017-06-27T16:46:05Z</time>
      </trkpt>
      <trkpt lat="49.36142" lon="1.28977">
        <ele>100</ele>
        <time>2017-06-27T16:46:05Z</time>
      </trkpt>
      <trkpt lat="49.36144" lon="1.28973">
        <ele>100</ele>
        <time>2017-06-27T16:46:05Z</time>
      </trkpt>
      <trkpt lat="49.36148" lon="1.28971">
        <ele>100</ele>
        <time>2017-06-27T16:46:05Z</time>
      </trkpt>
      <trkpt lat="49.3615" lon="1.28963">
        <ele>100</ele>
        <time>2017-06-27T16:46:21Z</time>
      </trkpt>
      <trkpt lat="49.36157" lon="1.28958">
        <ele>86</ele>
        <time>2017-06-27T16:46:21Z</time>
      </trkpt>
      <trkpt lat="49.36159" lon="1.28953">
        <ele>86</ele>
        <time>2017-06-27T16:46:21Z</time>
      </trkpt>
      <trkpt lat="49.36161" lon="1.2895">
        <ele>86</ele>
        <time>2017-06-27T16:46:21Z</time>
      </trkpt>
      <trkpt lat="49.36164" lon="1.28945">
        <ele>86</ele>
        <time>2017-06-27T16:46:36Z</time>
      </trkpt>
      <trkpt lat="49.36167" lon="1.28941">
        <ele>86</ele>
        <time>2017-06-27T16:46:36Z</time>
      </trkpt>
      <trkpt lat="49.36174" lon="1.28938">
        <ele>86</ele>
        <time>2017-06-27T16:46:36Z</time>
      </trkpt>
      <trkpt lat="49.36179" lon="1.28928">
        <ele>86</ele>
        <time>2017-06-27T16:46:36Z</time>
      </trkpt>
      <trkpt lat="49.36184" lon="1.28919">
        <ele>86</ele>
        <time>2017-06-27T16:46:52Z</time>
      </trkpt>
      <trkpt lat="49.36184" lon="1.28914">
        <ele>86</ele>
        <time>2017-06-27T16:46:52Z</time>
      </trkpt>
      <trkpt lat="49.36187" lon="1.28909">
        <ele>86</ele>
        <time>2017-06-27T16:46:52Z</time>
      </trkpt>
      <trkpt lat="49.36189" lon="1.28904">
        <ele>86</ele>
        <time>2017-06-27T16:46:52Z</time>
      </trkpt>
      <trkpt lat="49.36191" lon="1.28896">
        <ele>86</ele>
        <time>2017-06-27T16:47:10Z</time>
      </trkpt>
      <trkpt lat="49.36194" lon="1.28888">
        <ele>86</ele>
        <time>2017-06-27T16:47:10Z</time>
      </trkpt>
      <trkpt lat="49.36197" lon="1.28879">
        <ele>86</ele>
        <time>2017-06-27T16:47:10Z</time>
      </trkpt>
      <trkpt lat="49.36197" lon="1.28872">
        <ele>82</ele>
        <time>2017-06-27T16:47:10Z</time>
      </trkpt>
      <trkpt lat="49.36198" lon="1.28862">
        <ele>82</ele>
        <time>2017-06-27T16:47:25Z</time>
      </trkpt>
      <trkpt lat="49.36194" lon="1.2885">
        <ele>82</ele>
        <time>2017-06-27T16:47:25Z</time>
      </trkpt>
      <trkpt lat="49.36195" lon="1.28837">
        <ele>82</ele>
        <time>2017-06-27T16:47:25Z</time>
      </trkpt>
      <trkpt lat="49.36198" lon="1.28835">
        <ele>82</ele>
        <time>2017-06-27T16:47:25Z</time>
      </trkpt>
      <trkpt lat="49.36199" lon="1.28827">
        <ele>82</ele>
        <time>2017-06-27T16:47:40Z</time>
      </trkpt>
      <trkpt lat="49.36199" lon="1.28818">
        <ele>82</ele>
        <time>2017-06-27T16:47:40Z</time>
      </trkpt>
      <trkpt lat="49.362" lon="1.28814">
        <ele>82</ele>
        <time>2017-06-27T16:47:40Z</time>
      </trkpt>
      <trkpt lat="49.36199" lon="1.28806">
        <ele>82</ele>
        <time>2017-06-27T16:47:40Z</time>
      </trkpt>
      <trkpt lat="49.36196" lon="1.28798">
        <ele>82</ele>
        <time>2017-06-27T16:48:01Z</time>
      </trkpt>
      <trkpt lat="49.36194" lon="1.28795">
        <ele>82</ele>
        <time>2017-06-27T16:48:01Z</time>
      </trkpt>
      <trkpt lat="49.36194" lon="1.28794">
        <ele>82</ele>
        <time>2017-06-27T16:48:01Z</time>
      </trkpt>
      <trkpt lat="49.36191" lon="1.28789">
        <ele>83</ele>
        <time>2017-06-27T16:48:01Z</time>
      </trkpt>
      <trkpt lat="49.36188" lon="1.28786">
        <ele>83</ele>
        <time>2017-06-27T16:48:01Z</time>
      </trkpt>
      <trkpt lat="49.36183" lon="1.28778">
        <ele>83</ele>
        <time>2017-06-27T16:48:17Z</time>
      </trkpt>
      <trkpt lat="49.36182" lon="1.28776">
        <ele>83</ele>
        <time>2017-06-27T16:48:17Z</time>
      </trkpt>
      <trkpt lat="49.36177" lon="1.28767">
        <ele>83</ele>
        <time>2017-06-27T16:48:17Z</time>
      </trkpt>
      <trkpt lat="49.36176" lon="1.28766">
        <ele>83</ele>
        <time>2017-06-27T16:48:17Z</time>
      </trkpt>
      <trkpt lat="49.36175" lon="1.28766">
        <ele>83</ele>
        <time>2017-06-27T16:48:33Z</time>
      </trkpt>
      <trkpt lat="49.36175" lon="1.28766">
        <ele>83</ele>
        <time>2017-06-27T16:48:33Z</time>
      </trkpt>
      <trkpt lat="49.36173" lon="1.28762">
        <ele>83</ele>
        <time>2017-06-27T16:48:33Z</time>
      </trkpt>
      <trkpt lat="49.36169" lon="1.28754">
        <ele>83</ele>
        <time>2017-06-27T16:48:33Z</time>
      </trkpt>
      <trkpt lat="49.36167" lon="1.28749">
        <ele>83</ele>
        <time>2017-06-27T16:48:49Z</time>
      </trkpt>
      <trkpt lat="49.36164" lon="1.28746">
        <ele>83</ele>
        <time>2017-06-27T16:48:49Z</time>
      </trkpt>
      <trkpt lat="49.3616" lon="1.28739">
        <ele>83</ele>
        <time>2017-06-27T16:48:49Z</time>
      </trkpt>
      <trkpt lat="49.36158" lon="1.28736">
        <ele>83</ele>
        <time>2017-06-27T16:48:49Z</time>
      </trkpt>
      <trkpt lat="49.36153" lon="1.2873">
        <ele>83</ele>
        <time>2017-06-27T16:49:05Z</time>
      </trkpt>
      <trkpt lat="49.3615" lon="1.28726">
        <ele>83</ele>
        <time>2017-06-27T16:49:05Z</time>
      </trkpt>
      <trkpt lat="49.36147" lon="1.28722">
        <ele>83</ele>
        <time>2017-06-27T16:49:05Z</time>
      </trkpt>
      <trkpt lat="49.36143" lon="1.28717">
        <ele>83</ele>
        <time>2017-06-27T16:49:05Z</time>
      </trkpt>
      <trkpt lat="49.3614" lon="1.28713">
        <ele>83</ele>
        <time>2017-06-27T16:49:20Z</time>
      </trkpt>
      <trkpt lat="49.36135" lon="1.28706">
        <ele>86</ele>
        <time>2017-06-27T16:49:20Z</time>
      </trkpt>
      <trkpt lat="49.36133" lon="1.28702">
        <ele>86</ele>
        <time>2017-06-27T16:49:20Z</time>
      </trkpt>
      <trkpt lat="49.36131" lon="1.28699">
        <ele>86</ele>
        <time>2017-06-27T16:49:20Z</time>
      </trkpt>
      <trkpt lat="49.36131" lon="1.28697">
        <ele>86</ele>
        <time>2017-06-27T16:49:37Z</time>
      </trkpt>
      <trkpt lat="49.3613" lon="1.28689">
        <ele>86</ele>
        <time>2017-06-27T16:49:37Z</time>
      </trkpt>
      <trkpt lat="49.36129" lon="1.28686">
        <ele>86</ele>
        <time>2017-06-27T16:49:37Z</time>
      </trkpt>
      <trkpt lat="49.36127" lon="1.28678">
        <ele>86</ele>
        <time>2017-06-27T16:49:37Z</time>
      </trkpt>
      <trkpt lat="49.36125" lon="1.28672">
        <ele>85</ele>
        <time>2017-06-27T16:49:53Z</time>
      </trkpt>
      <trkpt lat="49.36121" lon="1.28665">
        <ele>85</ele>
        <time>2017-06-27T16:49:53Z</time>
      </trkpt>
      <trkpt lat="49.36119" lon="1.28658">
        <ele>85</ele>
        <time>2017-06-27T16:49:53Z</time>
      </trkpt>
      <trkpt lat="49.36117" lon="1.28653">
        <ele>85</ele>
        <time>2017-06-27T16:49:53Z</time>
      </trkpt>
      <trkpt lat="49.36116" lon="1.28647">
        <ele>85</ele>
        <time>2017-06-27T16:50:10Z</time>
      </trkpt>
      <trkpt lat="49.36114" lon="1.28641">
        <ele>85</ele>
        <time>2017-06-27T16:50:10Z</time>
      </trkpt>
      <trkpt lat="49.36113" lon="1.28635">
        <ele>85</ele>
        <time>2017-06-27T16:50:10Z</time>
      </trkpt>
      <trkpt lat="49.3611" lon="1.28624">
        <ele>86</ele>
        <time>2017-06-27T16:50:10Z</time>
      </trkpt>
      <trkpt lat="49.36109" lon="1.2862">
        <ele>86</ele>
        <time>2017-06-27T16:50:26Z</time>
      </trkpt>
      <trkpt lat="49.36105" lon="1.28611">
        <ele>86</ele>
        <time>2017-06-27T16:50:27Z</time>
      </trkpt>
      <trkpt lat="49.36104" lon="1.28607">
        <ele>86</ele>
        <time>2017-06-27T16:50:27Z</time>
      </trkpt>
      <trkpt lat="49.36101" lon="1.28598">
        <ele>86</ele>
        <time>2017-06-27T16:50:27Z</time>
      </trkpt>
      <trkpt lat="49.36099" lon="1.28592">
        <ele>86</ele>
        <time>2017-06-27T16:50:41Z</time>
      </trkpt>
      <trkpt lat="49.36097" lon="1.28586">
        <ele>86</ele>
        <time>2017-06-27T16:50:42Z</time>
      </trkpt>
      <trkpt lat="49.36095" lon="1.28579">
        <ele>86</ele>
        <time>2017-06-27T16:50:42Z</time>
      </trkpt>
      <trkpt lat="49.36092" lon="1.28571">
        <ele>86</ele>
        <time>2017-06-27T16:50:42Z</time>
      </trkpt>
      <trkpt lat="49.36091" lon="1.28567">
        <ele>86</ele>
        <time>2017-06-27T16:50:56Z</time>
      </trkpt>
      <trkpt lat="49.36087" lon="1.28558">
        <ele>86</ele>
        <time>2017-06-27T16:50:56Z</time>
      </trkpt>
      <trkpt lat="49.36086" lon="1.28555">
        <ele>86</ele>
        <time>2017-06-27T16:50:56Z</time>
      </trkpt>
      <trkpt lat="49.36085" lon="1.28551">
        <ele>86</ele>
        <time>2017-06-27T16:50:56Z</time>
      </trkpt>
      <trkpt lat="49.36081" lon="1.28541">
        <ele>93</ele>
        <time>2017-06-27T16:51:13Z</time>
      </trkpt>
      <trkpt lat="49.36083" lon="1.28537">
        <ele>93</ele>
        <time>2017-06-27T16:51:13Z</time>
      </trkpt>
      <trkpt lat="49.36083" lon="1.28532">
        <ele>93</ele>
        <time>2017-06-27T16:51:14Z</time>
      </trkpt>
      <trkpt lat="49.36083" lon="1.28525">
        <ele>93</ele>
        <time>2017-06-27T16:51:14Z</time>
      </trkpt>
      <trkpt lat="49.3608" lon="1.28517">
        <ele>93</ele>
        <time>2017-06-27T16:51:33Z</time>
      </trkpt>
      <trkpt lat="49.36082" lon="1.28513">
        <ele>93</ele>
        <time>2017-06-27T16:51:33Z</time>
      </trkpt>
      <trkpt lat="49.36082" lon="1.28506">
        <ele>93</ele>
        <time>2017-06-27T16:51:33Z</time>
      </trkpt>
      <trkpt lat="49.36082" lon="1.28504">
        <ele>93</ele>
        <time>2017-06-27T16:51:33Z</time>
      </trkpt>
      <trkpt lat="49.36081" lon="1.28499">
        <ele>93</ele>
        <time>2017-06-27T16:51:33Z</time>
      </trkpt>
      <trkpt lat="49.3608" lon="1.28493">
        <ele>93</ele>
        <time>2017-06-27T16:51:50Z</time>
      </trkpt>
      <trkpt lat="49.36077" lon="1.28482">
        <ele>93</ele>
        <time>2017-06-27T16:51:50Z</time>
      </trkpt>
      <trkpt lat="49.36076" lon="1.28479">
        <ele>93</ele>
        <time>2017-06-27T16:51:50Z</time>
      </trkpt>
      <trkpt lat="49.36077" lon="1.28475">
        <ele>93</ele>
        <time>2017-06-27T16:51:50Z</time>
      </trkpt>
      <trkpt lat="49.36077" lon="1.28471">
        <ele>93</ele>
        <time>2017-06-27T16:52:05Z</time>
      </trkpt>
      <trkpt lat="49.36081" lon="1.28467">
        <ele>93</ele>
        <time>2017-06-27T16:52:05Z</time>
      </trkpt>
      <trkpt lat="49.36077" lon="1.28458">
        <ele>93</ele>
        <time>2017-06-27T16:52:05Z</time>
      </trkpt>
      <trkpt lat="49.36077" lon="1.28444">
        <ele>96</ele>
        <time>2017-06-27T16:52:05Z</time>
      </trkpt>
      <trkpt lat="49.36076" lon="1.28435">
        <ele>96</ele>
        <time>2017-06-27T16:52:22Z</time>
      </trkpt>
      <trkpt lat="49.36076" lon="1.28428">
        <ele>96</ele>
        <time>2017-06-27T16:52:22Z</time>
      </trkpt>
      <trkpt lat="49.36075" lon="1.28422">
        <ele>96</ele>
        <time>2017-06-27T16:52:22Z</time>
      </trkpt>
      <trkpt lat="49.36074" lon="1.28411">
        <ele>96</ele>
        <time>2017-06-27T16:52:22Z</time>
      </trkpt>
      <trkpt lat="49.36074" lon="1.28404">
        <ele>96</ele>
        <time>2017-06-27T16:52:37Z</time>
      </trkpt>
      <trkpt lat="49.36074" lon="1.28396">
        <ele>96</ele>
        <time>2017-06-27T16:52:37Z</time>
      </trkpt>
      <trkpt lat="49.36074" lon="1.28387">
        <ele>96</ele>
        <time>2017-06-27T16:52:37Z</time>
      </trkpt>
      <trkpt lat="49.36072" lon="1.28373">
        <ele>96</ele>
        <time>2017-06-27T16:52:37Z</time>
      </trkpt>
      <trkpt lat="49.36073" lon="1.28366">
        <ele>96</ele>
        <time>2017-06-27T16:52:53Z</time>
      </trkpt>
      <trkpt lat="49.36071" lon="1.28355">
        <ele>96</ele>
        <time>2017-06-27T16:52:53Z</time>
      </trkpt>
      <trkpt lat="49.36071" lon="1.28346">
        <ele>96</ele>
        <time>2017-06-27T16:52:53Z</time>
      </trkpt>
      <trkpt lat="49.36074" lon="1.28341">
        <ele>96</ele>
        <time>2017-06-27T16:52:53Z</time>
      </trkpt>
      <trkpt lat="49.36076" lon="1.28337">
        <ele>96</ele>
        <time>2017-06-27T16:53:10Z</time>
      </trkpt>
      <trkpt lat="49.36076" lon="1.28328">
        <ele>96</ele>
        <time>2017-06-27T16:53:10Z</time>
      </trkpt>
      <trkpt lat="49.36075" lon="1.28319">
        <ele>96</ele>
        <time>2017-06-27T16:53:10Z</time>
      </trkpt>
      <trkpt lat="49.36078" lon="1.28309">
        <ele>96</ele>
        <time>2017-06-27T16:53:10Z</time>
      </trkpt>
      <trkpt lat="49.36075" lon="1.28282">
        <ele>98</ele>
        <time>2017-06-27T16:53:42Z</time>
      </trkpt>
      <trkpt lat="49.36073" lon="1.28272">
        <ele>98</ele>
        <time>2017-06-27T16:53:42Z</time>
      </trkpt>
      <trkpt lat="49.36072" lon="1.28265">
        <ele>98</ele>
        <time>2017-06-27T16:53:42Z</time>
      </trkpt>
      <trkpt lat="49.36072" lon="1.28255">
        <ele>98</ele>
        <time>2017-06-27T16:53:42Z</time>
      </trkpt>
      <trkpt lat="49.36071" lon="1.28244">
        <ele>98</ele>
        <time>2017-06-27T16:53:42Z</time>
      </trkpt>
      <trkpt lat="49.3607" lon="1.28239">
        <ele>98</ele>
        <time>2017-06-27T16:53:56Z</time>
      </trkpt>
      <trkpt lat="49.36067" lon="1.28229">
        <ele>98</ele>
        <time>2017-06-27T16:53:56Z</time>
      </trkpt>
      <trkpt lat="49.36071" lon="1.28223">
        <ele>98</ele>
        <time>2017-06-27T16:53:56Z</time>
      </trkpt>
      <trkpt lat="49.36068" lon="1.28212">
        <ele>98</ele>
        <time>2017-06-27T16:53:56Z</time>
      </trkpt>
      <trkpt lat="49.36067" lon="1.28207">
        <ele>102</ele>
        <time>2017-06-27T16:54:34Z</time>
      </trkpt>
      <trkpt lat="49.36067" lon="1.28207">
        <ele>102</ele>
        <time>2017-06-27T16:54:34Z</time>
      </trkpt>
      <trkpt lat="49.36067" lon="1.28207">
        <ele>102</ele>
        <time>2017-06-27T16:54:34Z</time>
      </trkpt>
      <trkpt lat="49.36069" lon="1.28206">
        <ele>102</ele>
        <time>2017-06-27T16:54:34Z</time>
      </trkpt>
      <trkpt lat="49.36073" lon="1.28183">
        <ele>102</ele>
        <time>2017-06-27T16:54:34Z</time>
      </trkpt>
      <trkpt lat="49.36075" lon="1.28175">
        <ele>102</ele>
        <time>2017-06-27T16:54:49Z</time>
      </trkpt>
      <trkpt lat="49.36076" lon="1.28164">
        <ele>102</ele>
        <time>2017-06-27T16:54:49Z</time>
      </trkpt>
      <trkpt lat="49.36071" lon="1.2815">
        <ele>102</ele>
        <time>2017-06-27T16:54:50Z</time>
      </trkpt>
      <trkpt lat="49.36073" lon="1.28143">
        <ele>102</ele>
        <time>2017-06-27T16:54:50Z</time>
      </trkpt>
      <trkpt lat="49.36074" lon="1.28138">
        <ele>102</ele>
        <time>2017-06-27T16:55:05Z</time>
      </trkpt>
      <trkpt lat="49.36076" lon="1.28128">
        <ele>102</ele>
        <time>2017-06-27T16:55:06Z</time>
      </trkpt>
      <trkpt lat="49.36076" lon="1.28117">
        <ele>100</ele>
        <time>2017-06-27T16:55:06Z</time>
      </trkpt>
      <trkpt lat="49.36076" lon="1.28113">
        <ele>100</ele>
        <time>2017-06-27T16:55:06Z</time>
      </trkpt>
      <trkpt lat="49.36077" lon="1.28108">
        <ele>100</ele>
        <time>2017-06-27T16:55:22Z</time>
      </trkpt>
      <trkpt lat="49.36076" lon="1.28096">
        <ele>100</ele>
        <time>2017-06-27T16:55:22Z</time>
      </trkpt>
      <trkpt lat="49.36076" lon="1.28096">
        <ele>100</ele>
        <time>2017-06-27T16:55:22Z</time>
      </trkpt>
      <trkpt lat="49.36076" lon="1.28085">
        <ele>100</ele>
        <time>2017-06-27T16:55:22Z</time>
      </trkpt>
      <trkpt lat="49.36074" lon="1.28078">
        <ele>100</ele>
        <time>2017-06-27T16:55:37Z</time>
      </trkpt>
      <trkpt lat="49.36072" lon="1.28069">
        <ele>100</ele>
        <time>2017-06-27T16:55:37Z</time>
      </trkpt>
      <trkpt lat="49.36071" lon="1.28061">
        <ele>100</ele>
        <time>2017-06-27T16:55:37Z</time>
      </trkpt>
      <trkpt lat="49.36072" lon="1.28057">
        <ele>100</ele>
        <time>2017-06-27T16:55:37Z</time>
      </trkpt>
      <trkpt lat="49.36072" lon="1.28049">
        <ele>100</ele>
        <time>2017-06-27T16:55:52Z</time>
      </trkpt>
      <trkpt lat="49.36073" lon="1.28047">
        <ele>100</ele>
        <time>2017-06-27T16:55:52Z</time>
      </trkpt>
      <trkpt lat="49.36072" lon="1.2804">
        <ele>98</ele>
        <time>2017-06-27T16:55:52Z</time>
      </trkpt>
      <trkpt lat="49.36073" lon="1.28033">
        <ele>98</ele>
        <time>2017-06-27T16:55:52Z</time>
      </trkpt>
      <trkpt lat="49.36079" lon="1.28029">
        <ele>98</ele>
        <time>2017-06-27T17:00:21Z</time>
      </trkpt>
      <trkpt lat="49.36081" lon="1.28023">
        <ele>98</ele>
        <time>2017-06-27T17:00:21Z</time>
      </trkpt>
      <trkpt lat="49.36082" lon="1.28019">
        <ele>98</ele>
        <time>2017-06-27T17:00:21Z</time>
      </trkpt>
      <trkpt lat="49.36082" lon="1.28015">
        <ele>98</ele>
        <time>2017-06-27T17:00:21Z</time>
      </trkpt>
      <trkpt lat="49.36082" lon="1.28009">
        <ele>98</ele>
        <time>2017-06-27T17:00:21Z</time>
      </trkpt>
      <trkpt lat="49.36082" lon="1.28002">
        <ele>98</ele>
        <time>2017-06-27T17:00:37Z</time>
      </trkpt>
      <trkpt lat="49.36082" lon="1.27998">
        <ele>98</ele>
        <time>2017-06-27T17:00:37Z</time>
      </trkpt>
      <trkpt lat="49.36084" lon="1.27988">
        <ele>98</ele>
        <time>2017-06-27T17:00:37Z</time>
      </trkpt>
      <trkpt lat="49.36084" lon="1.27988">
        <ele>98</ele>
        <time>2017-06-27T17:00:37Z</time>
      </trkpt>
      <trkpt lat="49.36085" lon="1.2798">
        <ele>98</ele>
        <time>2017-06-27T17:00:54Z</time>
      </trkpt>
      <trkpt lat="49.36085" lon="1.27976">
        <ele>98</ele>
        <time>2017-06-27T17:00:54Z</time>
      </trkpt>
      <trkpt lat="49.36086" lon="1.27972">
        <ele>98</ele>
        <time>2017-06-27T17:00:54Z</time>
      </trkpt>
      <trkpt lat="49.36086" lon="1.27965">
        <ele>98</ele>
        <time>2017-06-27T17:00:55Z</time>
      </trkpt>
      <trkpt lat="49.36086" lon="1.27961">
        <ele>98</ele>
        <time>2017-06-27T17:01:08Z</time>
      </trkpt>
      <trkpt lat="49.36087" lon="1.27952">
        <ele>101</ele>
        <time>2017-06-27T17:01:08Z</time>
      </trkpt>
      <trkpt lat="49.36089" lon="1.27946">
        <ele>101</ele>
        <time>2017-06-27T17:01:08Z</time>
      </trkpt>
      <trkpt lat="49.36088" lon="1.27939">
        <ele>101</ele>
        <time>2017-06-27T17:01:09Z</time>
      </trkpt>
      <trkpt lat="49.36088" lon="1.27929">
        <ele>101</ele>
        <time>2017-06-27T17:01:25Z</time>
      </trkpt>
      <trkpt lat="49.36087" lon="1.27924">
        <ele>101</ele>
        <time>2017-06-27T17:01:25Z</time>
      </trkpt>
      <trkpt lat="49.36088" lon="1.27921">
        <ele>101</ele>
        <time>2017-06-27T17:01:25Z</time>
      </trkpt>
      <trkpt lat="49.36082" lon="1.27911">
        <ele>101</ele>
        <time>2017-06-27T17:01:26Z</time>
      </trkpt>
      <trkpt lat="49.36086" lon="1.27887">
        <ele>101</ele>
        <time>2017-06-27T17:01:56Z</time>
      </trkpt>
      <trkpt lat="49.36083" lon="1.2788">
        <ele>101</ele>
        <time>2017-06-27T17:01:56Z</time>
      </trkpt>
      <trkpt lat="49.3608" lon="1.27875">
        <ele>101</ele>
        <time>2017-06-27T17:01:56Z</time>
      </trkpt>
      <trkpt lat="49.36081" lon="1.27869">
        <ele>105</ele>
        <time>2017-06-27T17:01:56Z</time>
      </trkpt>
      <trkpt lat="49.3608" lon="1.27866">
        <ele>105</ele>
        <time>2017-06-27T17:01:56Z</time>
      </trkpt>
      <trkpt lat="49.36078" lon="1.27858">
        <ele>105</ele>
        <time>2017-06-27T17:02:16Z</time>
      </trkpt>
      <trkpt lat="49.36077" lon="1.27858">
        <ele>105</ele>
        <time>2017-06-27T17:02:16Z</time>
      </trkpt>
      <trkpt lat="49.36075" lon="1.27856">
        <ele>105</ele>
        <time>2017-06-27T17:02:16Z</time>
      </trkpt>
      <trkpt lat="49.36073" lon="1.27855">
        <ele>105</ele>
        <time>2017-06-27T17:02:16Z</time>
      </trkpt>
      <trkpt lat="49.36069" lon="1.27846">
        <ele>105</ele>
        <time>2017-06-27T17:02:16Z</time>
      </trkpt>
      <trkpt lat="49.36066" lon="1.27837">
        <ele>105</ele>
        <time>2017-06-27T17:02:32Z</time>
      </trkpt>
      <trkpt lat="49.36063" lon="1.27833">
        <ele>105</ele>
        <time>2017-06-27T17:02:33Z</time>
      </trkpt>
      <trkpt lat="49.36062" lon="1.27829">
        <ele>105</ele>
        <time>2017-06-27T17:02:33Z</time>
      </trkpt>
      <trkpt lat="49.36058" lon="1.27827">
        <ele>105</ele>
        <time>2017-06-27T17:02:33Z</time>
      </trkpt>
      <trkpt lat="49.36054" lon="1.27819">
        <ele>105</ele>
        <time>2017-06-27T17:02:49Z</time>
      </trkpt>
      <trkpt lat="49.36052" lon="1.27817">
        <ele>105</ele>
        <time>2017-06-27T17:02:49Z</time>
      </trkpt>
      <trkpt lat="49.36049" lon="1.27813">
        <ele>105</ele>
        <time>2017-06-27T17:02:49Z</time>
      </trkpt>
      <trkpt lat="49.36046" lon="1.2781">
        <ele>105</ele>
        <time>2017-06-27T17:02:49Z</time>
      </trkpt>
      <trkpt lat="49.36043" lon="1.27801">
        <ele>105</ele>
        <time>2017-06-27T17:03:06Z</time>
      </trkpt>
      <trkpt lat="49.36039" lon="1.27794">
        <ele>115</ele>
        <time>2017-06-27T17:03:06Z</time>
      </trkpt>
      <trkpt lat="49.36034" lon="1.27788">
        <ele>107</ele>
        <time>2017-06-27T17:03:06Z</time>
      </trkpt>
      <trkpt lat="49.36029" lon="1.27781">
        <ele>107</ele>
        <time>2017-06-27T17:03:06Z</time>
      </trkpt>
      <trkpt lat="49.36023" lon="1.27778">
        <ele>107</ele>
        <time>2017-06-27T17:03:25Z</time>
      </trkpt>
      <trkpt lat="49.36024" lon="1.27771">
        <ele>107</ele>
        <time>2017-06-27T17:03:25Z</time>
      </trkpt>
      <trkpt lat="49.36019" lon="1.27771">
        <ele>107</ele>
        <time>2017-06-27T17:03:25Z</time>
      </trkpt>
      <trkpt lat="49.36017" lon="1.27767">
        <ele>107</ele>
        <time>2017-06-27T17:03:25Z</time>
      </trkpt>
      <trkpt lat="49.36017" lon="1.27763">
        <ele>107</ele>
        <time>2017-06-27T17:03:25Z</time>
      </trkpt>
      <trkpt lat="49.36007" lon="1.27749">
        <ele>107</ele>
        <time>2017-06-27T17:03:57Z</time>
      </trkpt>
      <trkpt lat="49.35999" lon="1.27749">
        <ele>107</ele>
        <time>2017-06-27T17:03:57Z</time>
      </trkpt>
      <trkpt lat="49.35994" lon="1.27743">
        <ele>107</ele>
        <time>2017-06-27T17:03:57Z</time>
      </trkpt>
      <trkpt lat="49.35989" lon="1.27741">
        <ele>107</ele>
        <time>2017-06-27T17:03:57Z</time>
      </trkpt>
      <trkpt lat="49.35987" lon="1.27737">
        <ele>107</ele>
        <time>2017-06-27T17:03:57Z</time>
      </trkpt>
      <trkpt lat="49.35985" lon="1.27734">
        <ele>107</ele>
        <time>2017-06-27T17:04:14Z</time>
      </trkpt>
      <trkpt lat="49.35981" lon="1.27731">
        <ele>107</ele>
        <time>2017-06-27T17:04:14Z</time>
      </trkpt>
      <trkpt lat="49.35977" lon="1.27727">
        <ele>107</ele>
        <time>2017-06-27T17:04:14Z</time>
      </trkpt>
      <trkpt lat="49.35974" lon="1.27723">
        <ele>107</ele>
        <time>2017-06-27T17:04:14Z</time>
      </trkpt>
      <trkpt lat="49.35975" lon="1.27723">
        <ele>107</ele>
        <time>2017-06-27T17:04:33Z</time>
      </trkpt>
      <trkpt lat="49.35975" lon="1.27721">
        <ele>107</ele>
        <time>2017-06-27T17:04:33Z</time>
      </trkpt>
      <trkpt lat="49.35973" lon="1.27719">
        <ele>107</ele>
        <time>2017-06-27T17:04:33Z</time>
      </trkpt>
      <trkpt lat="49.35971" lon="1.27717">
        <ele>107</ele>
        <time>2017-06-27T17:04:33Z</time>
      </trkpt>
      <trkpt lat="49.35968" lon="1.27712">
        <ele>107</ele>
        <time>2017-06-27T17:04:33Z</time>
      </trkpt>
      <trkpt lat="49.3595" lon="1.27697">
        <ele>107</ele>
        <time>2017-06-27T17:05:00Z</time>
      </trkpt>
      <trkpt lat="49.35944" lon="1.2769">
        <ele>107</ele>
        <time>2017-06-27T17:05:00Z</time>
      </trkpt>
      <trkpt lat="49.35937" lon="1.27687">
        <ele>107</ele>
        <time>2017-06-27T17:05:00Z</time>
      </trkpt>
      <trkpt lat="49.35935" lon="1.27683">
        <ele>107</ele>
        <time>2017-06-27T17:05:00Z</time>
      </trkpt>
      <trkpt lat="49.35931" lon="1.27671">
        <ele>107</ele>
        <time>2017-06-27T17:05:00Z</time>
      </trkpt>
      <trkpt lat="49.35929" lon="1.27668">
        <ele>107</ele>
        <time>2017-06-27T17:05:18Z</time>
      </trkpt>
      <trkpt lat="49.35923" lon="1.27662">
        <ele>107</ele>
        <time>2017-06-27T17:05:18Z</time>
      </trkpt>
      <trkpt lat="49.35923" lon="1.27661">
        <ele>107</ele>
        <time>2017-06-27T17:05:18Z</time>
      </trkpt>
      <trkpt lat="49.35921" lon="1.27657">
        <ele>107</ele>
        <time>2017-06-27T17:05:18Z</time>
      </trkpt>
      <trkpt lat="49.35924" lon="1.27652">
        <ele>107</ele>
        <time>2017-06-27T17:05:33Z</time>
      </trkpt>
      <trkpt lat="49.35916" lon="1.27638">
        <ele>107</ele>
        <time>2017-06-27T17:05:33Z</time>
      </trkpt>
      <trkpt lat="49.3591" lon="1.27627">
        <ele>107</ele>
        <time>2017-06-27T17:05:33Z</time>
      </trkpt>
      <trkpt lat="49.35909" lon="1.27618">
        <ele>112</ele>
        <time>2017-06-27T17:05:34Z</time>
      </trkpt>
      <trkpt lat="49.35912" lon="1.27616">
        <ele>112</ele>
        <time>2017-06-27T17:05:49Z</time>
      </trkpt>
      <trkpt lat="49.35909" lon="1.2761">
        <ele>112</ele>
        <time>2017-06-27T17:05:49Z</time>
      </trkpt>
      <trkpt lat="49.35906" lon="1.27601">
        <ele>112</ele>
        <time>2017-06-27T17:05:50Z</time>
      </trkpt>
      <trkpt lat="49.35904" lon="1.27599">
        <ele>112</ele>
        <time>2017-06-27T17:05:50Z</time>
      </trkpt>
      <trkpt lat="49.35908" lon="1.27592">
        <ele>112</ele>
        <time>2017-06-27T17:06:04Z</time>
      </trkpt>
      <trkpt lat="49.35903" lon="1.27583">
        <ele>112</ele>
        <time>2017-06-27T17:06:04Z</time>
      </trkpt>
      <trkpt lat="49.35903" lon="1.27573">
        <ele>112</ele>
        <time>2017-06-27T17:06:04Z</time>
      </trkpt>
      <trkpt lat="49.35902" lon="1.27573">
        <ele>112</ele>
        <time>2017-06-27T17:06:04Z</time>
      </trkpt>
      <trkpt lat="49.35904" lon="1.2757">
        <ele>112</ele>
        <time>2017-06-27T17:06:21Z</time>
      </trkpt>
      <trkpt lat="49.35897" lon="1.27558">
        <ele>112</ele>
        <time>2017-06-27T17:06:22Z</time>
      </trkpt>
      <trkpt lat="49.35895" lon="1.27551">
        <ele>112</ele>
        <time>2017-06-27T17:06:22Z</time>
      </trkpt>
      <trkpt lat="49.35893" lon="1.27543">
        <ele>112</ele>
        <time>2017-06-27T17:06:22Z</time>
      </trkpt>
      <trkpt lat="49.35892" lon="1.27513">
        <ele>119</ele>
        <time>2017-06-27T17:07:00Z</time>
      </trkpt>
      <trkpt lat="49.35891" lon="1.27506">
        <ele>119</ele>
        <time>2017-06-27T17:07:00Z</time>
      </trkpt>
      <trkpt lat="49.35889" lon="1.27498">
        <ele>119</ele>
        <time>2017-06-27T17:07:00Z</time>
      </trkpt>
      <trkpt lat="49.35888" lon="1.27487">
        <ele>119</ele>
        <time>2017-06-27T17:07:00Z</time>
      </trkpt>
      <trkpt lat="49.35884" lon="1.27479">
        <ele>119</ele>
        <time>2017-06-27T17:07:00Z</time>
      </trkpt>
      <trkpt lat="49.35886" lon="1.27472">
        <ele>119</ele>
        <time>2017-06-27T17:07:16Z</time>
      </trkpt>
      <trkpt lat="49.35887" lon="1.27469">
        <ele>119</ele>
        <time>2017-06-27T17:07:16Z</time>
      </trkpt>
      <trkpt lat="49.35885" lon="1.27458">
        <ele>119</ele>
        <time>2017-06-27T17:07:16Z</time>
      </trkpt>
      <trkpt lat="49.35889" lon="1.27459">
        <ele>119</ele>
        <time>2017-06-27T17:07:16Z</time>
      </trkpt>
      <trkpt lat="49.35892" lon="1.27452">
        <ele>119</ele>
        <time>2017-06-27T17:07:33Z</time>
      </trkpt>
      <trkpt lat="49.35889" lon="1.27435">
        <ele>119</ele>
        <time>2017-06-27T17:07:33Z</time>
      </trkpt>
      <trkpt lat="49.35885" lon="1.27427">
        <ele>119</ele>
        <time>2017-06-27T17:07:33Z</time>
      </trkpt>
      <trkpt lat="49.35886" lon="1.27424">
        <ele>119</ele>
        <time>2017-06-27T17:07:33Z</time>
      </trkpt>
      <trkpt lat="49.35884" lon="1.27412">
        <ele>119</ele>
        <time>2017-06-27T17:07:49Z</time>
      </trkpt>
      <trkpt lat="49.35886" lon="1.27407">
        <ele>119</ele>
        <time>2017-06-27T17:07:49Z</time>
      </trkpt>
      <trkpt lat="49.35886" lon="1.27399">
        <ele>119</ele>
        <time>2017-06-27T17:07:49Z</time>
      </trkpt>
      <trkpt lat="49.35885" lon="1.27394">
        <ele>119</ele>
        <time>2017-06-27T17:07:49Z</time>
      </trkpt>
      <trkpt lat="49.35885" lon="1.27387">
        <ele>119</ele>
        <time>2017-06-27T17:08:05Z</time>
      </trkpt>
      <trkpt lat="49.35885" lon="1.27378">
        <ele>119</ele>
        <time>2017-06-27T17:08:05Z</time>
      </trkpt>
      <trkpt lat="49.35886" lon="1.27373">
        <ele>118</ele>
        <time>2017-06-27T17:08:05Z</time>
      </trkpt>
      <trkpt lat="49.35887" lon="1.27367">
        <ele>118</ele>
        <time>2017-06-27T17:08:05Z</time>
      </trkpt>
      <trkpt lat="49.35888" lon="1.27362">
        <ele>118</ele>
        <time>2017-06-27T17:08:21Z</time>
      </trkpt>
      <trkpt lat="49.3589" lon="1.27354">
        <ele>118</ele>
        <time>2017-06-27T17:08:21Z</time>
      </trkpt>
      <trkpt lat="49.35891" lon="1.27347">
        <ele>118</ele>
        <time>2017-06-27T17:08:21Z</time>
      </trkpt>
      <trkpt lat="49.35894" lon="1.2734">
        <ele>118</ele>
        <time>2017-06-27T17:08:21Z</time>
      </trkpt>
      <trkpt lat="49.35896" lon="1.27333">
        <ele>118</ele>
        <time>2017-06-27T17:08:36Z</time>
      </trkpt>
      <trkpt lat="49.35898" lon="1.27325">
        <ele>118</ele>
        <time>2017-06-27T17:08:37Z</time>
      </trkpt>
      <trkpt lat="49.35901" lon="1.27319">
        <ele>118</ele>
        <time>2017-06-27T17:08:37Z</time>
      </trkpt>
      <trkpt lat="49.35903" lon="1.27311">
        <ele>118</ele>
        <time>2017-06-27T17:08:37Z</time>
      </trkpt>
      <trkpt lat="49.35904" lon="1.27306">
        <ele>118</ele>
        <time>2017-06-27T17:08:54Z</time>
      </trkpt>
      <trkpt lat="49.35905" lon="1.27299">
        <ele>118</ele>
        <time>2017-06-27T17:08:54Z</time>
      </trkpt>
      <trkpt lat="49.35908" lon="1.27293">
        <ele>118</ele>
        <time>2017-06-27T17:08:54Z</time>
      </trkpt>
      <trkpt lat="49.35911" lon="1.27288">
        <ele>116</ele>
        <time>2017-06-27T17:08:54Z</time>
      </trkpt>
      <trkpt lat="49.35914" lon="1.27283">
        <ele>116</ele>
        <time>2017-06-27T17:09:08Z</time>
      </trkpt>
      <trkpt lat="49.35915" lon="1.27274">
        <ele>116</ele>
        <time>2017-06-27T17:09:08Z</time>
      </trkpt>
      <trkpt lat="49.35919" lon="1.27269">
        <ele>116</ele>
        <time>2017-06-27T17:09:09Z</time>
      </trkpt>
      <trkpt lat="49.35921" lon="1.27262">
        <ele>116</ele>
        <time>2017-06-27T17:09:09Z</time>
      </trkpt>
      <trkpt lat="49.35923" lon="1.27254">
        <ele>116</ele>
        <time>2017-06-27T17:09:24Z</time>
      </trkpt>
      <trkpt lat="49.35926" lon="1.27248">
        <ele>116</ele>
        <time>2017-06-27T17:09:24Z</time>
      </trkpt>
      <trkpt lat="49.35929" lon="1.27245">
        <ele>116</ele>
        <time>2017-06-27T17:09:24Z</time>
      </trkpt>
      <trkpt lat="49.35931" lon="1.27239">
        <ele>116</ele>
        <time>2017-06-27T17:09:24Z</time>
      </trkpt>
      <trkpt lat="49.35932" lon="1.2723">
        <ele>116</ele>
        <time>2017-06-27T17:09:57Z</time>
      </trkpt>
      <trkpt lat="49.35932" lon="1.27229">
        <ele>116</ele>
        <time>2017-06-27T17:09:57Z</time>
      </trkpt>
      <trkpt lat="49.35933" lon="1.27227">
        <ele>116</ele>
        <time>2017-06-27T17:09:57Z</time>
      </trkpt>
      <trkpt lat="49.35935" lon="1.27223">
        <ele>116</ele>
        <time>2017-06-27T17:09:57Z</time>
      </trkpt>
      <trkpt lat="49.35938" lon="1.27217">
        <ele>116</ele>
        <time>2017-06-27T17:09:57Z</time>
      </trkpt>
      <trkpt lat="49.35939" lon="1.27213">
        <ele>116</ele>
        <time>2017-06-27T17:10:13Z</time>
      </trkpt>
      <trkpt lat="49.35943" lon="1.27211">
        <ele>116</ele>
        <time>2017-06-27T17:10:13Z</time>
      </trkpt>
      <trkpt lat="49.35947" lon="1.27204">
        <ele>119</ele>
        <time>2017-06-27T17:10:13Z</time>
      </trkpt>
      <trkpt lat="49.3595" lon="1.27198">
        <ele>119</ele>
        <time>2017-06-27T17:10:13Z</time>
      </trkpt>
      <trkpt lat="49.35952" lon="1.27194">
        <ele>119</ele>
        <time>2017-06-27T17:10:30Z</time>
      </trkpt>
      <trkpt lat="49.35956" lon="1.27184">
        <ele>119</ele>
        <time>2017-06-27T17:10:30Z</time>
      </trkpt>
      <trkpt lat="49.35959" lon="1.27181">
        <ele>130</ele>
        <time>2017-06-27T17:10:30Z</time>
      </trkpt>
      <trkpt lat="49.35961" lon="1.27171">
        <ele>130</ele>
        <time>2017-06-27T17:10:30Z</time>
      </trkpt>
      <trkpt lat="49.35963" lon="1.27166">
        <ele>130</ele>
        <time>2017-06-27T17:10:44Z</time>
      </trkpt>
      <trkpt lat="49.35964" lon="1.27157">
        <ele>130</ele>
        <time>2017-06-27T17:10:44Z</time>
      </trkpt>
      <trkpt lat="49.35967" lon="1.27152">
        <ele>130</ele>
        <time>2017-06-27T17:10:44Z</time>
      </trkpt>
      <trkpt lat="49.3597" lon="1.27146">
        <ele>130</ele>
        <time>2017-06-27T17:10:44Z</time>
      </trkpt>
      <trkpt lat="49.35972" lon="1.27141">
        <ele>130</ele>
        <time>2017-06-27T17:11:00Z</time>
      </trkpt>
      <trkpt lat="49.35973" lon="1.27134">
        <ele>130</ele>
        <time>2017-06-27T17:11:00Z</time>
      </trkpt>
      <trkpt lat="49.35974" lon="1.27127">
        <ele>130</ele>
        <time>2017-06-27T17:11:00Z</time>
      </trkpt>
      <trkpt lat="49.35975" lon="1.27121">
        <ele>125</ele>
        <time>2017-06-27T17:11:00Z</time>
      </trkpt>
      <trkpt lat="49.35977" lon="1.27115">
        <ele>125</ele>
        <time>2017-06-27T17:11:16Z</time>
      </trkpt>
      <trkpt lat="49.3598" lon="1.2711">
        <ele>125</ele>
        <time>2017-06-27T17:11:16Z</time>
      </trkpt>
      <trkpt lat="49.35982" lon="1.27101">
        <ele>125</ele>
        <time>2017-06-27T17:11:16Z</time>
      </trkpt>
      <trkpt lat="49.35984" lon="1.27093">
        <ele>125</ele>
        <time>2017-06-27T17:11:16Z</time>
      </trkpt>
      <trkpt lat="49.35986" lon="1.27086">
        <ele>125</ele>
        <time>2017-06-27T17:11:33Z</time>
      </trkpt>
      <trkpt lat="49.35988" lon="1.27079">
        <ele>125</ele>
        <time>2017-06-27T17:11:33Z</time>
      </trkpt>
      <trkpt lat="49.3599" lon="1.27073">
        <ele>125</ele>
        <time>2017-06-27T17:11:34Z</time>
      </trkpt>
      <trkpt lat="49.35993" lon="1.27067">
        <ele>125</ele>
        <time>2017-06-27T17:11:34Z</time>
      </trkpt>
      <trkpt lat="49.35995" lon="1.2706">
        <ele>125</ele>
        <time>2017-06-27T17:11:50Z</time>
      </trkpt>
      <trkpt lat="49.35996" lon="1.27053">
        <ele>125</ele>
        <time>2017-06-27T17:11:50Z</time>
      </trkpt>
      <trkpt lat="49.35997" lon="1.27047">
        <ele>125</ele>
        <time>2017-06-27T17:11:51Z</time>
      </trkpt>
      <trkpt lat="49.35998" lon="1.27037">
        <ele>121</ele>
        <time>2017-06-27T17:11:51Z</time>
      </trkpt>
      <trkpt lat="49.35998" lon="1.27033">
        <ele>121</ele>
        <time>2017-06-27T17:12:04Z</time>
      </trkpt>
      <trkpt lat="49.36001" lon="1.27025">
        <ele>121</ele>
        <time>2017-06-27T17:12:04Z</time>
      </trkpt>
      <trkpt lat="49.36002" lon="1.2702">
        <ele>121</ele>
        <time>2017-06-27T17:12:04Z</time>
      </trkpt>
      <trkpt lat="49.36004" lon="1.27013">
        <ele>121</ele>
        <time>2017-06-27T17:12:04Z</time>
      </trkpt>
      <trkpt lat="49.36005" lon="1.27006">
        <ele>121</ele>
        <time>2017-06-27T17:12:21Z</time>
      </trkpt>
      <trkpt lat="49.36007" lon="1.27">
        <ele>121</ele>
        <time>2017-06-27T17:12:21Z</time>
      </trkpt>
      <trkpt lat="49.36009" lon="1.26996">
        <ele>121</ele>
        <time>2017-06-27T17:12:22Z</time>
      </trkpt>
      <trkpt lat="49.36011" lon="1.26987">
        <ele>121</ele>
        <time>2017-06-27T17:12:22Z</time>
      </trkpt>
      <trkpt lat="49.36013" lon="1.26982">
        <ele>121</ele>
        <time>2017-06-27T17:12:37Z</time>
      </trkpt>
      <trkpt lat="49.36015" lon="1.26975">
        <ele>121</ele>
        <time>2017-06-27T17:12:37Z</time>
      </trkpt>
      <trkpt lat="49.36016" lon="1.26967">
        <ele>121</ele>
        <time>2017-06-27T17:12:37Z</time>
      </trkpt>
      <trkpt lat="49.36018" lon="1.26963">
        <ele>121</ele>
        <time>2017-06-27T17:12:37Z</time>
      </trkpt>
      <trkpt lat="49.3602" lon="1.26956">
        <ele>124</ele>
        <time>2017-06-27T17:12:53Z</time>
      </trkpt>
      <trkpt lat="49.36021" lon="1.2695">
        <ele>124</ele>
        <time>2017-06-27T17:12:53Z</time>
      </trkpt>
      <trkpt lat="49.36023" lon="1.26942">
        <ele>124</ele>
        <time>2017-06-27T17:12:53Z</time>
      </trkpt>
      <trkpt lat="49.36024" lon="1.26935">
        <ele>124</ele>
        <time>2017-06-27T17:12:53Z</time>
      </trkpt>
      <trkpt lat="49.36026" lon="1.26931">
        <ele>124</ele>
        <time>2017-06-27T17:13:08Z</time>
      </trkpt>
      <trkpt lat="49.36027" lon="1.26923">
        <ele>124</ele>
        <time>2017-06-27T17:13:08Z</time>
      </trkpt>
      <trkpt lat="49.36028" lon="1.26916">
        <ele>124</ele>
        <time>2017-06-27T17:13:08Z</time>
      </trkpt>
      <trkpt lat="49.36029" lon="1.2691">
        <ele>124</ele>
        <time>2017-06-27T17:13:08Z</time>
      </trkpt>
      <trkpt lat="49.3603" lon="1.26902">
        <ele>124</ele>
        <time>2017-06-27T17:13:26Z</time>
      </trkpt>
      <trkpt lat="49.36031" lon="1.26897">
        <ele>124</ele>
        <time>2017-06-27T17:13:26Z</time>
      </trkpt>
      <trkpt lat="49.36033" lon="1.26892">
        <ele>124</ele>
        <time>2017-06-27T17:13:26Z</time>
      </trkpt>
      <trkpt lat="49.36034" lon="1.26882">
        <ele>124</ele>
        <time>2017-06-27T17:13:26Z</time>
      </trkpt>
      <trkpt lat="49.36034" lon="1.26875">
        <ele>128</ele>
        <time>2017-06-27T17:13:42Z</time>
      </trkpt>
      <trkpt lat="49.36033" lon="1.26867">
        <ele>128</ele>
        <time>2017-06-27T17:13:42Z</time>
      </trkpt>
      <trkpt lat="49.36034" lon="1.26859">
        <ele>128</ele>
        <time>2017-06-27T17:13:42Z</time>
      </trkpt>
      <trkpt lat="49.36034" lon="1.26852">
        <ele>128</ele>
        <time>2017-06-27T17:13:42Z</time>
      </trkpt>
      <trkpt lat="49.36036" lon="1.2685">
        <ele>128</ele>
        <time>2017-06-27T17:13:58Z</time>
      </trkpt>
      <trkpt lat="49.36037" lon="1.26843">
        <ele>128</ele>
        <time>2017-06-27T17:13:58Z</time>
      </trkpt>
      <trkpt lat="49.36035" lon="1.26836">
        <ele>128</ele>
        <time>2017-06-27T17:13:59Z</time>
      </trkpt>
      <trkpt lat="49.36033" lon="1.26824">
        <ele>128</ele>
        <time>2017-06-27T17:13:59Z</time>
      </trkpt>
      <trkpt lat="49.36031" lon="1.26818">
        <ele>128</ele>
        <time>2017-06-27T17:14:12Z</time>
      </trkpt>
      <trkpt lat="49.3603" lon="1.2681">
        <ele>128</ele>
        <time>2017-06-27T17:14:12Z</time>
      </trkpt>
      <trkpt lat="49.36029" lon="1.26804">
        <ele>128</ele>
        <time>2017-06-27T17:14:12Z</time>
      </trkpt>
      <trkpt lat="49.36027" lon="1.26797">
        <ele>128</ele>
        <time>2017-06-27T17:14:12Z</time>
      </trkpt>
      <trkpt lat="49.36026" lon="1.26789">
        <ele>125</ele>
        <time>2017-06-27T17:14:29Z</time>
      </trkpt>
      <trkpt lat="49.36025" lon="1.26781">
        <ele>125</ele>
        <time>2017-06-27T17:14:29Z</time>
      </trkpt>
      <trkpt lat="49.36024" lon="1.26776">
        <ele>125</ele>
        <time>2017-06-27T17:14:29Z</time>
      </trkpt>
      <trkpt lat="49.36023" lon="1.26766">
        <ele>125</ele>
        <time>2017-06-27T17:14:29Z</time>
      </trkpt>
      <trkpt lat="49.36021" lon="1.26757">
        <ele>125</ele>
        <time>2017-06-27T17:14:45Z</time>
      </trkpt>
      <trkpt lat="49.36019" lon="1.26749">
        <ele>125</ele>
        <time>2017-06-27T17:14:46Z</time>
      </trkpt>
      <trkpt lat="49.36018" lon="1.26742">
        <ele>125</ele>
        <time>2017-06-27T17:14:46Z</time>
      </trkpt>
      <trkpt lat="49.36017" lon="1.26733">
        <ele>125</ele>
        <time>2017-06-27T17:14:46Z</time>
      </trkpt>
      <trkpt lat="49.36016" lon="1.26729">
        <ele>125</ele>
        <time>2017-06-27T17:15:01Z</time>
      </trkpt>
      <trkpt lat="49.36014" lon="1.26719">
        <ele>125</ele>
        <time>2017-06-27T17:15:02Z</time>
      </trkpt>
      <trkpt lat="49.36012" lon="1.26712">
        <ele>125</ele>
        <time>2017-06-27T17:15:02Z</time>
      </trkpt>
      <trkpt lat="49.36011" lon="1.26706">
        <ele>126</ele>
        <time>2017-06-27T17:15:02Z</time>
      </trkpt>
      <trkpt lat="49.3601" lon="1.26699">
        <ele>126</ele>
        <time>2017-06-27T17:15:16Z</time>
      </trkpt>
      <trkpt lat="49.36008" lon="1.26692">
        <ele>126</ele>
        <time>2017-06-27T17:15:16Z</time>
      </trkpt>
      <trkpt lat="49.36006" lon="1.26684">
        <ele>126</ele>
        <time>2017-06-27T17:15:16Z</time>
      </trkpt>
      <trkpt lat="49.36004" lon="1.26676">
        <ele>126</ele>
        <time>2017-06-27T17:15:16Z</time>
      </trkpt>
      <trkpt lat="49.36002" lon="1.26668">
        <ele>126</ele>
        <time>2017-06-27T17:15:34Z</time>
      </trkpt>
      <trkpt lat="49.36001" lon="1.26659">
        <ele>126</ele>
        <time>2017-06-27T17:15:34Z</time>
      </trkpt>
      <trkpt lat="49.36" lon="1.26653">
        <ele>126</ele>
        <time>2017-06-27T17:15:34Z</time>
      </trkpt>
      <trkpt lat="49.35997" lon="1.26644">
        <ele>126</ele>
        <time>2017-06-27T17:15:35Z</time>
      </trkpt>
      <trkpt lat="49.35994" lon="1.26634">
        <ele>126</ele>
        <time>2017-06-27T17:16:09Z</time>
      </trkpt>
      <trkpt lat="49.35993" lon="1.26628">
        <ele>126</ele>
        <time>2017-06-27T17:16:10Z</time>
      </trkpt>
      <trkpt lat="49.3599" lon="1.26618">
        <ele>128</ele>
        <time>2017-06-27T17:16:10Z</time>
      </trkpt>
      <trkpt lat="49.35989" lon="1.26613">
        <ele>128</ele>
        <time>2017-06-27T17:16:10Z</time>
      </trkpt>
      <trkpt lat="49.35988" lon="1.26606">
        <ele>128</ele>
        <time>2017-06-27T17:16:10Z</time>
      </trkpt>
      <trkpt lat="49.35985" lon="1.266">
        <ele>128</ele>
        <time>2017-06-27T17:16:25Z</time>
      </trkpt>
      <trkpt lat="49.35985" lon="1.26595">
        <ele>128</ele>
        <time>2017-06-27T17:16:25Z</time>
      </trkpt>
      <trkpt lat="49.35983" lon="1.26588">
        <ele>128</ele>
        <time>2017-06-27T17:16:25Z</time>
      </trkpt>
      <trkpt lat="49.35982" lon="1.26585">
        <ele>128</ele>
        <time>2017-06-27T17:16:26Z</time>
      </trkpt>
      <trkpt lat="49.35981" lon="1.26578">
        <ele>128</ele>
        <time>2017-06-27T17:16:41Z</time>
      </trkpt>
      <trkpt lat="49.3598" lon="1.26574">
        <ele>128</ele>
        <time>2017-06-27T17:16:41Z</time>
      </trkpt>
      <trkpt lat="49.35976" lon="1.26565">
        <ele>128</ele>
        <time>2017-06-27T17:16:41Z</time>
      </trkpt>
      <trkpt lat="49.35973" lon="1.2656">
        <ele>128</ele>
        <time>2017-06-27T17:16:42Z</time>
      </trkpt>
      <trkpt lat="49.35977" lon="1.26553">
        <ele>128</ele>
        <time>2017-06-27T17:17:57Z</time>
      </trkpt>
      <trkpt lat="49.35972" lon="1.26553">
        <ele>128</ele>
        <time>2017-06-27T17:17:57Z</time>
      </trkpt>
      <trkpt lat="49.35972" lon="1.26539">
        <ele>129</ele>
        <time>2017-06-27T17:17:58Z</time>
      </trkpt>
      <trkpt lat="49.35971" lon="1.26539">
        <ele>129</ele>
        <time>2017-06-27T17:17:58Z</time>
      </trkpt>
      <trkpt lat="49.35972" lon="1.26531">
        <ele>129</ele>
        <time>2017-06-27T17:17:58Z</time>
      </trkpt>
      <trkpt lat="49.35969" lon="1.26525">
        <ele>129</ele>
        <time>2017-06-27T17:18:13Z</time>
      </trkpt>
      <trkpt lat="49.35966" lon="1.2652">
        <ele>129</ele>
        <time>2017-06-27T17:18:13Z</time>
      </trkpt>
      <trkpt lat="49.35964" lon="1.26509">
        <ele>129</ele>
        <time>2017-06-27T17:18:13Z</time>
      </trkpt>
      <trkpt lat="49.35961" lon="1.265">
        <ele>129</ele>
        <time>2017-06-27T17:18:13Z</time>
      </trkpt>
      <trkpt lat="49.3596" lon="1.26495">
        <ele>129</ele>
        <time>2017-06-27T17:18:28Z</time>
      </trkpt>
      <trkpt lat="49.35954" lon="1.26487">
        <ele>136</ele>
        <time>2017-06-27T17:18:28Z</time>
      </trkpt>
      <trkpt lat="49.35951" lon="1.26484">
        <ele>136</ele>
        <time>2017-06-27T17:18:28Z</time>
      </trkpt>
      <trkpt lat="49.3595" lon="1.26477">
        <ele>136</ele>
        <time>2017-06-27T17:18:28Z</time>
      </trkpt>
      <trkpt lat="49.35947" lon="1.26471">
        <ele>136</ele>
        <time>2017-06-27T17:18:45Z</time>
      </trkpt>
      <trkpt lat="49.35947" lon="1.26468">
        <ele>136</ele>
        <time>2017-06-27T17:18:45Z</time>
      </trkpt>
      <trkpt lat="49.3594" lon="1.2646">
        <ele>136</ele>
        <time>2017-06-27T17:18:45Z</time>
      </trkpt>
      <trkpt lat="49.35938" lon="1.26459">
        <ele>136</ele>
        <time>2017-06-27T17:18:45Z</time>
      </trkpt>
      <trkpt lat="49.35935" lon="1.26455">
        <ele>136</ele>
        <time>2017-06-27T17:19:01Z</time>
      </trkpt>
      <trkpt lat="49.3593" lon="1.26449">
        <ele>136</ele>
        <time>2017-06-27T17:19:01Z</time>
      </trkpt>
      <trkpt lat="49.35928" lon="1.26444">
        <ele>136</ele>
        <time>2017-06-27T17:19:01Z</time>
      </trkpt>
      <trkpt lat="49.35926" lon="1.26441">
        <ele>136</ele>
        <time>2017-06-27T17:19:01Z</time>
      </trkpt>
      <trkpt lat="49.35923" lon="1.26439">
        <ele>136</ele>
        <time>2017-06-27T17:19:17Z</time>
      </trkpt>
      <trkpt lat="49.35919" lon="1.26436">
        <ele>136</ele>
        <time>2017-06-27T17:19:17Z</time>
      </trkpt>
      <trkpt lat="49.35916" lon="1.26432">
        <ele>136</ele>
        <time>2017-06-27T17:19:17Z</time>
      </trkpt>
      <trkpt lat="49.35912" lon="1.26426">
        <ele>136</ele>
        <time>2017-06-27T17:19:17Z</time>
      </trkpt>
      <trkpt lat="49.35906" lon="1.2642">
        <ele>136</ele>
        <time>2017-06-27T17:19:33Z</time>
      </trkpt>
      <trkpt lat="49.35902" lon="1.26417">
        <ele>136</ele>
        <time>2017-06-27T17:19:33Z</time>
      </trkpt>
      <trkpt lat="49.35896" lon="1.26415">
        <ele>136</ele>
        <time>2017-06-27T17:19:33Z</time>
      </trkpt>
      <trkpt lat="49.35893" lon="1.26412">
        <ele>136</ele>
        <time>2017-06-27T17:19:33Z</time>
      </trkpt>
      <trkpt lat="49.3589" lon="1.26411">
        <ele>136</ele>
        <time>2017-06-27T17:19:49Z</time>
      </trkpt>
      <trkpt lat="49.35884" lon="1.26404">
        <ele>136</ele>
        <time>2017-06-27T17:19:49Z</time>
      </trkpt>
      <trkpt lat="49.35878" lon="1.26399">
        <ele>136</ele>
        <time>2017-06-27T17:19:49Z</time>
      </trkpt>
      <trkpt lat="49.35877" lon="1.26401">
        <ele>136</ele>
        <time>2017-06-27T17:19:49Z</time>
      </trkpt>
      <trkpt lat="49.35873" lon="1.26396">
        <ele>143</ele>
        <time>2017-06-27T17:20:05Z</time>
      </trkpt>
      <trkpt lat="49.35869" lon="1.26392">
        <ele>143</ele>
        <time>2017-06-27T17:20:05Z</time>
      </trkpt>
      <trkpt lat="49.35862" lon="1.26385">
        <ele>143</ele>
        <time>2017-06-27T17:20:05Z</time>
      </trkpt>
      <trkpt lat="49.35859" lon="1.26381">
        <ele>143</ele>
        <time>2017-06-27T17:20:05Z</time>
      </trkpt>
      <trkpt lat="49.35856" lon="1.26378">
        <ele>143</ele>
        <time>2017-06-27T17:20:21Z</time>
      </trkpt>
      <trkpt lat="49.35852" lon="1.26375">
        <ele>144</ele>
        <time>2017-06-27T17:20:21Z</time>
      </trkpt>
      <trkpt lat="49.35849" lon="1.26374">
        <ele>144</ele>
        <time>2017-06-27T17:20:21Z</time>
      </trkpt>
      <trkpt lat="49.35843" lon="1.26371">
        <ele>144</ele>
        <time>2017-06-27T17:20:21Z</time>
      </trkpt>
      <trkpt lat="49.3584" lon="1.26369">
        <ele>144</ele>
        <time>2017-06-27T17:20:37Z</time>
      </trkpt>
      <trkpt lat="49.35835" lon="1.26363">
        <ele>144</ele>
        <time>2017-06-27T17:20:37Z</time>
      </trkpt>
      <trkpt lat="49.35831" lon="1.26359">
        <ele>144</ele>
        <time>2017-06-27T17:20:37Z</time>
      </trkpt>
      <trkpt lat="49.35828" lon="1.26359">
        <ele>144</ele>
        <time>2017-06-27T17:20:37Z</time>
      </trkpt>
      <trkpt lat="49.35823" lon="1.26352">
        <ele>144</ele>
        <time>2017-06-27T17:20:52Z</time>
      </trkpt>
      <trkpt lat="49.35819" lon="1.26349">
        <ele>144</ele>
        <time>2017-06-27T17:20:52Z</time>
      </trkpt>
      <trkpt lat="49.35817" lon="1.2635">
        <ele>144</ele>
        <time>2017-06-27T17:20:52Z</time>
      </trkpt>
      <trkpt lat="49.35814" lon="1.26345">
        <ele>144</ele>
        <time>2017-06-27T17:20:52Z</time>
      </trkpt>
      <trkpt lat="49.35811" lon="1.26337">
        <ele>144</ele>
        <time>2017-06-27T17:21:09Z</time>
      </trkpt>
      <trkpt lat="49.35809" lon="1.26333">
        <ele>144</ele>
        <time>2017-06-27T17:21:09Z</time>
      </trkpt>
      <trkpt lat="49.35808" lon="1.26328">
        <ele>144</ele>
        <time>2017-06-27T17:21:09Z</time>
      </trkpt>
      <trkpt lat="49.35805" lon="1.26321">
        <ele>144</ele>
        <time>2017-06-27T17:21:09Z</time>
      </trkpt>
      <trkpt lat="49.35805" lon="1.26311">
        <ele>144</ele>
        <time>2017-06-27T17:21:25Z</time>
      </trkpt>
      <trkpt lat="49.35802" lon="1.26307">
        <ele>144</ele>
        <time>2017-06-27T17:21:25Z</time>
      </trkpt>
      <trkpt lat="49.35803" lon="1.26299">
        <ele>144</ele>
        <time>2017-06-27T17:21:25Z</time>
      </trkpt>
      <trkpt lat="49.35802" lon="1.26285">
        <ele>143</ele>
        <time>2017-06-27T17:21:25Z</time>
      </trkpt>
      <trkpt lat="49.35803" lon="1.26277">
        <ele>143</ele>
        <time>2017-06-27T17:21:42Z</time>
      </trkpt>
      <trkpt lat="49.35806" lon="1.26274">
        <ele>143</ele>
        <time>2017-06-27T17:21:42Z</time>
      </trkpt>
      <trkpt lat="49.35805" lon="1.26267">
        <ele>143</ele>
        <time>2017-06-27T17:21:42Z</time>
      </trkpt>
      <trkpt lat="49.35804" lon="1.2626">
        <ele>143</ele>
        <time>2017-06-27T17:21:42Z</time>
      </trkpt>
      <trkpt lat="49.35803" lon="1.26257">
        <ele>143</ele>
        <time>2017-06-27T17:21:57Z</time>
      </trkpt>
      <trkpt lat="49.35798" lon="1.26247">
        <ele>143</ele>
        <time>2017-06-27T17:21:57Z</time>
      </trkpt>
      <trkpt lat="49.35795" lon="1.2624">
        <ele>143</ele>
        <time>2017-06-27T17:21:57Z</time>
      </trkpt>
      <trkpt lat="49.35792" lon="1.26233">
        <ele>143</ele>
        <time>2017-06-27T17:21:57Z</time>
      </trkpt>
      <trkpt lat="49.3579" lon="1.26227">
        <ele>149</ele>
        <time>2017-06-27T17:22:12Z</time>
      </trkpt>
      <trkpt lat="49.35786" lon="1.26222">
        <ele>149</ele>
        <time>2017-06-27T17:22:12Z</time>
      </trkpt>
      <trkpt lat="49.35784" lon="1.26216">
        <ele>149</ele>
        <time>2017-06-27T17:22:12Z</time>
      </trkpt>
      <trkpt lat="49.3578" lon="1.2621">
        <ele>149</ele>
        <time>2017-06-27T17:22:12Z</time>
      </trkpt>
      <trkpt lat="49.35777" lon="1.26203">
        <ele>148</ele>
        <time>2017-06-27T17:22:29Z</time>
      </trkpt>
      <trkpt lat="49.35774" lon="1.26196">
        <ele>148</ele>
        <time>2017-06-27T17:22:29Z</time>
      </trkpt>
      <trkpt lat="49.35772" lon="1.26188">
        <ele>148</ele>
        <time>2017-06-27T17:22:29Z</time>
      </trkpt>
      <trkpt lat="49.3577" lon="1.26184">
        <ele>148</ele>
        <time>2017-06-27T17:22:29Z</time>
      </trkpt>
      <trkpt lat="49.35767" lon="1.26178">
        <ele>148</ele>
        <time>2017-06-27T17:22:46Z</time>
      </trkpt>
      <trkpt lat="49.35763" lon="1.2617">
        <ele>148</ele>
        <time>2017-06-27T17:22:46Z</time>
      </trkpt>
      <trkpt lat="49.35761" lon="1.26166">
        <ele>148</ele>
        <time>2017-06-27T17:22:46Z</time>
      </trkpt>
      <trkpt lat="49.35757" lon="1.26159">
        <ele>148</ele>
        <time>2017-06-27T17:22:46Z</time>
      </trkpt>
      <trkpt lat="49.35754" lon="1.26155">
        <ele>148</ele>
        <time>2017-06-27T17:23:00Z</time>
      </trkpt>
      <trkpt lat="49.35751" lon="1.26148">
        <ele>148</ele>
        <time>2017-06-27T17:23:00Z</time>
      </trkpt>
      <trkpt lat="49.35747" lon="1.26142">
        <ele>148</ele>
        <time>2017-06-27T17:23:00Z</time>
      </trkpt>
      <trkpt lat="49.35744" lon="1.26137">
        <ele>148</ele>
        <time>2017-06-27T17:23:00Z</time>
      </trkpt>
      <trkpt lat="49.35741" lon="1.26132">
        <ele>148</ele>
        <time>2017-06-27T17:23:20Z</time>
      </trkpt>
      <trkpt lat="49.35739" lon="1.26127">
        <ele>148</ele>
        <time>2017-06-27T17:23:20Z</time>
      </trkpt>
      <trkpt lat="49.35735" lon="1.26121">
        <ele>148</ele>
        <time>2017-06-27T17:23:20Z</time>
      </trkpt>
      <trkpt lat="49.35729" lon="1.26111">
        <ele>148</ele>
        <time>2017-06-27T17:23:20Z</time>
      </trkpt>
      <trkpt lat="49.35725" lon="1.26107">
        <ele>148</ele>
        <time>2017-06-27T17:23:36Z</time>
      </trkpt>
      <trkpt lat="49.35723" lon="1.26099">
        <ele>148</ele>
        <time>2017-06-27T17:23:36Z</time>
      </trkpt>
      <trkpt lat="49.35719" lon="1.26092">
        <ele>148</ele>
        <time>2017-06-27T17:23:36Z</time>
      </trkpt>
      <trkpt lat="49.35716" lon="1.2609">
        <ele>148</ele>
        <time>2017-06-27T17:23:36Z</time>
      </trkpt>
      <trkpt lat="49.35713" lon="1.26084">
        <ele>148</ele>
        <time>2017-06-27T17:23:52Z</time>
      </trkpt>
      <trkpt lat="49.3571" lon="1.26079">
        <ele>148</ele>
        <time>2017-06-27T17:23:53Z</time>
      </trkpt>
      <trkpt lat="49.35707" lon="1.26074">
        <ele>151</ele>
        <time>2017-06-27T17:23:53Z</time>
      </trkpt>
      <trkpt lat="49.35704" lon="1.26069">
        <ele>151</ele>
        <time>2017-06-27T17:23:53Z</time>
      </trkpt>
      <trkpt lat="49.357" lon="1.26063">
        <ele>151</ele>
        <time>2017-06-27T17:24:08Z</time>
      </trkpt>
      <trkpt lat="49.35698" lon="1.26058">
        <ele>151</ele>
        <time>2017-06-27T17:24:08Z</time>
      </trkpt>
      <trkpt lat="49.35694" lon="1.26051">
        <ele>151</ele>
        <time>2017-06-27T17:24:08Z</time>
      </trkpt>
      <trkpt lat="49.35691" lon="1.26045">
        <ele>151</ele>
        <time>2017-06-27T17:24:08Z</time>
      </trkpt>
      <trkpt lat="49.35688" lon="1.26039">
        <ele>151</ele>
        <time>2017-06-27T17:24:24Z</time>
      </trkpt>
      <trkpt lat="49.35685" lon="1.26034">
        <ele>151</ele>
        <time>2017-06-27T17:24:24Z</time>
      </trkpt>
      <trkpt lat="49.35681" lon="1.26029">
        <ele>151</ele>
        <time>2017-06-27T17:24:24Z</time>
      </trkpt>
      <trkpt lat="49.35678" lon="1.26023">
        <ele>151</ele>
        <time>2017-06-27T17:24:24Z</time>
      </trkpt>
      <trkpt lat="49.35675" lon="1.26018">
        <ele>151</ele>
        <time>2017-06-27T17:24:41Z</time>
      </trkpt>
      <trkpt lat="49.35671" lon="1.26013">
        <ele>151</ele>
        <time>2017-06-27T17:24:41Z</time>
      </trkpt>
      <trkpt lat="49.35667" lon="1.26009">
        <ele>151</ele>
        <time>2017-06-27T17:24:41Z</time>
      </trkpt>
      <trkpt lat="49.35664" lon="1.26005">
        <ele>151</ele>
        <time>2017-06-27T17:24:41Z</time>
      </trkpt>
      <trkpt lat="49.3566" lon="1.26">
        <ele>151</ele>
        <time>2017-06-27T17:24:56Z</time>
      </trkpt>
      <trkpt lat="49.35655" lon="1.25994">
        <ele>151</ele>
        <time>2017-06-27T17:24:56Z</time>
      </trkpt>
      <trkpt lat="49.35651" lon="1.2599">
        <ele>151</ele>
        <time>2017-06-27T17:24:56Z</time>
      </trkpt>
      <trkpt lat="49.35647" lon="1.25985">
        <ele>151</ele>
        <time>2017-06-27T17:24:56Z</time>
      </trkpt>
      <trkpt lat="49.35644" lon="1.25982">
        <ele>151</ele>
        <time>2017-06-27T17:25:15Z</time>
      </trkpt>
      <trkpt lat="49.35639" lon="1.25977">
        <ele>151</ele>
        <time>2017-06-27T17:25:15Z</time>
      </trkpt>
      <trkpt lat="49.35635" lon="1.25973">
        <ele>151</ele>
        <time>2017-06-27T17:25:15Z</time>
      </trkpt>
      <trkpt lat="49.35632" lon="1.25969">
        <ele>151</ele>
        <time>2017-06-27T17:25:15Z</time>
      </trkpt>
      <trkpt lat="49.35622" lon="1.2596">
        <ele>150</ele>
        <time>2017-06-27T17:25:37Z</time>
      </trkpt>
      <trkpt lat="49.35621" lon="1.25961">
        <ele>150</ele>
        <time>2017-06-27T17:25:37Z</time>
      </trkpt>
      <trkpt lat="49.3562" lon="1.25961">
        <ele>150</ele>
        <time>2017-06-27T17:25:37Z</time>
      </trkpt>
      <trkpt lat="49.3562" lon="1.2596">
        <ele>150</ele>
        <time>2017-06-27T17:25:37Z</time>
      </trkpt>
      <trkpt lat="49.35617" lon="1.25956">
        <ele>150</ele>
        <time>2017-06-27T17:25:37Z</time>
      </trkpt>
      <trkpt lat="49.35612" lon="1.25954">
        <ele>150</ele>
        <time>2017-06-27T17:25:52Z</time>
      </trkpt>
      <trkpt lat="49.35608" lon="1.25952">
        <ele>150</ele>
        <time>2017-06-27T17:25:53Z</time>
      </trkpt>
      <trkpt lat="49.35604" lon="1.2595">
        <ele>150</ele>
        <time>2017-06-27T17:25:53Z</time>
      </trkpt>
      <trkpt lat="49.35602" lon="1.25949">
        <ele>150</ele>
        <time>2017-06-27T17:25:53Z</time>
      </trkpt>
      <trkpt lat="49.35597" lon="1.25947">
        <ele>150</ele>
        <time>2017-06-27T17:26:09Z</time>
      </trkpt>
      <trkpt lat="49.35593" lon="1.25945">
        <ele>150</ele>
        <time>2017-06-27T17:26:09Z</time>
      </trkpt>
      <trkpt lat="49.3559" lon="1.25944">
        <ele>150</ele>
        <time>2017-06-27T17:26:09Z</time>
      </trkpt>
      <trkpt lat="49.35586" lon="1.25943">
        <ele>150</ele>
        <time>2017-06-27T17:26:09Z</time>
      </trkpt>
      <trkpt lat="49.35573" lon="1.25937">
        <ele>150</ele>
        <time>2017-06-27T17:26:33Z</time>
      </trkpt>
      <trkpt lat="49.3557" lon="1.25934">
        <ele>150</ele>
        <time>2017-06-27T17:26:33Z</time>
      </trkpt>
      <trkpt lat="49.35564" lon="1.25929">
        <ele>150</ele>
        <time>2017-06-27T17:26:33Z</time>
      </trkpt>
      <trkpt lat="49.3556" lon="1.25927">
        <ele>150</ele>
        <time>2017-06-27T17:26:33Z</time>
      </trkpt>
      <trkpt lat="49.35554" lon="1.25921">
        <ele>150</ele>
        <time>2017-06-27T17:26:48Z</time>
      </trkpt>
      <trkpt lat="49.35549" lon="1.25919">
        <ele>150</ele>
        <time>2017-06-27T17:26:48Z</time>
      </trkpt>
      <trkpt lat="49.35545" lon="1.25918">
        <ele>150</ele>
        <time>2017-06-27T17:26:48Z</time>
      </trkpt>
      <trkpt lat="49.35541" lon="1.25917">
        <ele>149</ele>
        <time>2017-06-27T17:26:48Z</time>
      </trkpt>
      <trkpt lat="49.35537" lon="1.25921">
        <ele>149</ele>
        <time>2017-06-27T17:27:08Z</time>
      </trkpt>
      <trkpt lat="49.35536" lon="1.25922">
        <ele>149</ele>
        <time>2017-06-27T17:27:08Z</time>
      </trkpt>
      <trkpt lat="49.35533" lon="1.25925">
        <ele>149</ele>
        <time>2017-06-27T17:27:08Z</time>
      </trkpt>
      <trkpt lat="49.3553" lon="1.25928">
        <ele>149</ele>
        <time>2017-06-27T17:27:08Z</time>
      </trkpt>
      <trkpt lat="49.35528" lon="1.25931">
        <ele>149</ele>
        <time>2017-06-27T17:27:08Z</time>
      </trkpt>
      <trkpt lat="49.35524" lon="1.25935">
        <ele>149</ele>
        <time>2017-06-27T17:27:24Z</time>
      </trkpt>
      <trkpt lat="49.3552" lon="1.25939">
        <ele>149</ele>
        <time>2017-06-27T17:27:24Z</time>
      </trkpt>
      <trkpt lat="49.35519" lon="1.25941">
        <ele>149</ele>
        <time>2017-06-27T17:27:24Z</time>
      </trkpt>
      <trkpt lat="49.35516" lon="1.25944">
        <ele>149</ele>
        <time>2017-06-27T17:27:24Z</time>
      </trkpt>
      <trkpt lat="49.35513" lon="1.25948">
        <ele>149</ele>
        <time>2017-06-27T17:27:40Z</time>
      </trkpt>
      <trkpt lat="49.35508" lon="1.25951">
        <ele>149</ele>
        <time>2017-06-27T17:27:41Z</time>
      </trkpt>
      <trkpt lat="49.35504" lon="1.2595">
        <ele>149</ele>
        <time>2017-06-27T17:27:41Z</time>
      </trkpt>
      <trkpt lat="49.355" lon="1.25948">
        <ele>149</ele>
        <time>2017-06-27T17:27:41Z</time>
      </trkpt>
      <trkpt lat="49.35494" lon="1.25944">
        <ele>149</ele>
        <time>2017-06-27T17:27:57Z</time>
      </trkpt>
      <trkpt lat="49.3549" lon="1.25938">
        <ele>149</ele>
        <time>2017-06-27T17:27:58Z</time>
      </trkpt>
      <trkpt lat="49.35486" lon="1.25933">
        <ele>149</ele>
        <time>2017-06-27T17:27:58Z</time>
      </trkpt>
      <trkpt lat="49.35483" lon="1.25929">
        <ele>149</ele>
        <time>2017-06-27T17:27:58Z</time>
      </trkpt>
      <trkpt lat="49.3548" lon="1.25927">
        <ele>149</ele>
        <time>2017-06-27T17:28:13Z</time>
      </trkpt>
      <trkpt lat="49.35477" lon="1.2592">
        <ele>149</ele>
        <time>2017-06-27T17:28:13Z</time>
      </trkpt>
      <trkpt lat="49.35473" lon="1.25917">
        <ele>149</ele>
        <time>2017-06-27T17:28:13Z</time>
      </trkpt>
      <trkpt lat="49.35471" lon="1.25912">
        <ele>149</ele>
        <time>2017-06-27T17:28:13Z</time>
      </trkpt>
      <trkpt lat="49.35468" lon="1.25906">
        <ele>149</ele>
        <time>2017-06-27T17:28:30Z</time>
      </trkpt>
      <trkpt lat="49.35466" lon="1.25899">
        <ele>149</ele>
        <time>2017-06-27T17:28:30Z</time>
      </trkpt>
      <trkpt lat="49.35464" lon="1.25894">
        <ele>149</ele>
        <time>2017-06-27T17:28:30Z</time>
      </trkpt>
      <trkpt lat="49.35464" lon="1.25889">
        <ele>149</ele>
        <time>2017-06-27T17:28:30Z</time>
      </trkpt>
      <trkpt lat="49.35464" lon="1.25878">
        <ele>149</ele>
        <time>2017-06-27T17:28:48Z</time>
      </trkpt>
      <trkpt lat="49.35464" lon="1.25873">
        <ele>148</ele>
        <time>2017-06-27T17:28:48Z</time>
      </trkpt>
      <trkpt lat="49.35462" lon="1.25862">
        <ele>148</ele>
        <time>2017-06-27T17:28:50Z</time>
      </trkpt>
      <trkpt lat="49.35463" lon="1.25862">
        <ele>148</ele>
        <time>2017-06-27T17:28:50Z</time>
      </trkpt>
      <trkpt lat="49.35465" lon="1.25846">
        <ele>148</ele>
        <time>2017-06-27T17:29:09Z</time>
      </trkpt>
      <trkpt lat="49.35466" lon="1.2584">
        <ele>148</ele>
        <time>2017-06-27T17:29:09Z</time>
      </trkpt>
      <trkpt lat="49.35467" lon="1.25832">
        <ele>148</ele>
        <time>2017-06-27T17:29:09Z</time>
      </trkpt>
      <trkpt lat="49.35469" lon="1.25828">
        <ele>148</ele>
        <time>2017-06-27T17:29:09Z</time>
      </trkpt>
      <trkpt lat="49.35474" lon="1.25822">
        <ele>148</ele>
        <time>2017-06-27T17:29:25Z</time>
      </trkpt>
      <trkpt lat="49.35476" lon="1.25822">
        <ele>148</ele>
        <time>2017-06-27T17:29:25Z</time>
      </trkpt>
      <trkpt lat="49.35481" lon="1.25816">
        <ele>148</ele>
        <time>2017-06-27T17:29:25Z</time>
      </trkpt>
      <trkpt lat="49.35487" lon="1.25813">
        <ele>148</ele>
        <time>2017-06-27T17:29:25Z</time>
      </trkpt>
      <trkpt lat="49.35492" lon="1.25806">
        <ele>148</ele>
        <time>2017-06-27T17:29:45Z</time>
      </trkpt>
      <trkpt lat="49.35495" lon="1.25802">
        <ele>148</ele>
        <time>2017-06-27T17:29:45Z</time>
      </trkpt>
      <trkpt lat="49.355" lon="1.25798">
        <ele>148</ele>
        <time>2017-06-27T17:29:45Z</time>
      </trkpt>
      <trkpt lat="49.35503" lon="1.25795">
        <ele>148</ele>
        <time>2017-06-27T17:29:45Z</time>
      </trkpt>
      <trkpt lat="49.35515" lon="1.25779">
        <ele>148</ele>
        <time>2017-06-27T17:30:10Z</time>
      </trkpt>
      <trkpt lat="49.35517" lon="1.25779">
        <ele>148</ele>
        <time>2017-06-27T17:30:10Z</time>
      </trkpt>
      <trkpt lat="49.3552" lon="1.25778">
        <ele>148</ele>
        <time>2017-06-27T17:30:10Z</time>
      </trkpt>
      <trkpt lat="49.35525" lon="1.25774">
        <ele>148</ele>
        <time>2017-06-27T17:30:10Z</time>
      </trkpt>
      <trkpt lat="49.35532" lon="1.25761">
        <ele>148</ele>
        <time>2017-06-27T17:30:34Z</time>
      </trkpt>
      <trkpt lat="49.35536" lon="1.25756">
        <ele>148</ele>
        <time>2017-06-27T17:30:34Z</time>
      </trkpt>
      <trkpt lat="49.35538" lon="1.25748">
        <ele>148</ele>
        <time>2017-06-27T17:30:34Z</time>
      </trkpt>
      <trkpt lat="49.35543" lon="1.25743">
        <ele>150</ele>
        <time>2017-06-27T17:30:34Z</time>
      </trkpt>
      <trkpt lat="49.35548" lon="1.25741">
        <ele>150</ele>
        <time>2017-06-27T17:30:50Z</time>
      </trkpt>
      <trkpt lat="49.3555" lon="1.25737">
        <ele>150</ele>
        <time>2017-06-27T17:30:50Z</time>
      </trkpt>
      <trkpt lat="49.35555" lon="1.25735">
        <ele>150</ele>
        <time>2017-06-27T17:30:50Z</time>
      </trkpt>
      <trkpt lat="49.3556" lon="1.25732">
        <ele>150</ele>
        <time>2017-06-27T17:30:50Z</time>
      </trkpt>
      <trkpt lat="49.35575" lon="1.25716">
        <ele>150</ele>
        <time>2017-06-27T17:31:18Z</time>
      </trkpt>
      <trkpt lat="49.35578" lon="1.25714">
        <ele>150</ele>
        <time>2017-06-27T17:31:18Z</time>
      </trkpt>
      <trkpt lat="49.35582" lon="1.25709">
        <ele>150</ele>
        <time>2017-06-27T17:31:18Z</time>
      </trkpt>
      <trkpt lat="49.35583" lon="1.25708">
        <ele>150</ele>
        <time>2017-06-27T17:31:18Z</time>
      </trkpt>
      <trkpt lat="49.35585" lon="1.25702">
        <ele>149</ele>
        <time>2017-06-27T17:31:40Z</time>
      </trkpt>
      <trkpt lat="49.3559" lon="1.25698">
        <ele>149</ele>
        <time>2017-06-27T17:31:40Z</time>
      </trkpt>
      <trkpt lat="49.35594" lon="1.25693">
        <ele>149</ele>
        <time>2017-06-27T17:31:40Z</time>
      </trkpt>
      <trkpt lat="49.35598" lon="1.25688">
        <ele>149</ele>
        <time>2017-06-27T17:31:40Z</time>
      </trkpt>
      <trkpt lat="49.35605" lon="1.25686">
        <ele>149</ele>
        <time>2017-06-27T17:32:13Z</time>
      </trkpt>
      <trkpt lat="49.35606" lon="1.25686">
        <ele>149</ele>
        <time>2017-06-27T17:32:13Z</time>
      </trkpt>
      <trkpt lat="49.35605" lon="1.25687">
        <ele>149</ele>
        <time>2017-06-27T17:32:13Z</time>
      </trkpt>
      <trkpt lat="49.35608" lon="1.25679">
        <ele>149</ele>
        <time>2017-06-27T17:32:13Z</time>
      </trkpt>
      <trkpt lat="49.35611" lon="1.25673">
        <ele>149</ele>
        <time>2017-06-27T17:32:14Z</time>
      </trkpt>
      <trkpt lat="49.35614" lon="1.25671">
        <ele>149</ele>
        <time>2017-06-27T17:32:30Z</time>
      </trkpt>
      <trkpt lat="49.35619" lon="1.25667">
        <ele>149</ele>
        <time>2017-06-27T17:32:30Z</time>
      </trkpt>
      <trkpt lat="49.35623" lon="1.25663">
        <ele>149</ele>
        <time>2017-06-27T17:32:30Z</time>
      </trkpt>
      <trkpt lat="49.35627" lon="1.25658">
        <ele>150</ele>
        <time>2017-06-27T17:32:30Z</time>
      </trkpt>
      <trkpt lat="49.35642" lon="1.25647">
        <ele>150</ele>
        <time>2017-06-27T17:32:53Z</time>
      </trkpt>
      <trkpt lat="49.35646" lon="1.25642">
        <ele>150</ele>
        <time>2017-06-27T17:32:53Z</time>
      </trkpt>
      <trkpt lat="49.35649" lon="1.2564">
        <ele>150</ele>
        <time>2017-06-27T17:32:53Z</time>
      </trkpt>
      <trkpt lat="49.3565" lon="1.25634">
        <ele>150</ele>
        <time>2017-06-27T17:32:53Z</time>
      </trkpt>
    </trkseg>
  </trk>
</gpx>